Date StartTime U_cm/s V_cm/s W_cm/s Ustd_cm/s Vstd_cm/s Wstd_cm/s Uvar_(cm/s)^2 Vvar_(cm/s)^2 Wvar_(cm/s)^2 KE_(m/s)^2 TurbulentKE_(m/s)^2 HorizWindSpeed_cm/s FrictionSpeec_cm/s DragCoef SpeedOfSound_m/s SonicTemperature_C Pressure_mb 
10/25/2014  00:00:00     -150.945      -34.365      -22.901      104.146       70.837       33.152    10846.401     5017.852     1099.074        2.072        0.848      154.808       32.613        0.044      340.019       13.750      858.745
10/25/2014  00:01:00      -32.127     -106.644       -7.846      123.333       86.225       49.503    15211.064     7434.706     2450.522        1.878        1.255      111.379       40.670        0.133      341.024       15.449      858.766
10/25/2014  00:02:00     -158.782      -78.983      -16.242      123.215       46.411       27.822    15181.942     2154.004      774.052        2.491        0.905      177.341       21.797        0.015      341.072       15.529      858.767
10/25/2014  00:03:00     -147.277      -80.588       -4.946      105.876       57.436       42.666    11209.685     3298.891     1820.408        2.227        0.816      167.884       49.265        0.086      340.900       15.238      858.732
10/25/2014  00:04:00     -185.203      -48.066        1.897       81.473       72.606       43.734     6637.902     5271.681     1912.686        2.522        0.691      191.339       46.928        0.060      340.942       15.307      858.710
10/25/2014  00:05:00      -92.491      -47.039       18.390      108.268       59.547       38.596    11721.980     3545.828     1489.669        1.393        0.838      103.765       49.064        0.224      340.700       14.900      858.674
10/25/2014  00:06:00      -32.468     -154.354       11.331       65.028       83.009       25.037     4228.586     6890.543      626.856        1.837        0.587      157.732       26.611        0.028      340.828       15.116      858.713
10/25/2014  00:07:00      -85.195     -102.358      -15.418       49.421       39.962       26.681     2442.386     1596.975      711.883        1.136        0.238      133.174       10.866        0.007      341.016       15.436      858.680
10/25/2014  00:08:00     -132.057      -72.119       -7.709       89.553       51.273       38.555     8019.713     2628.957     1486.492        1.742        0.607      150.467       29.681        0.039      340.854       15.159      858.666
10/25/2014  00:09:00      -82.930      -68.237        5.959       64.731       37.957       30.627     4190.076     1440.758      938.013        0.907        0.328      107.395       28.850        0.072      341.002       15.413      858.655
10/25/2014  00:10:00     -120.142      -38.321      -12.105       77.098       50.921       22.994     5944.051     2592.940      528.728        1.256        0.453      126.105       26.030        0.043      341.016       15.437      858.665
10/25/2014  00:11:00      -84.752     -115.829       10.976       80.803       59.761       40.850     6529.200     3571.348     1668.697        1.624        0.588      143.524       34.068        0.056      341.212       15.768      858.638
10/25/2014  00:12:00     -120.012      -75.944       -5.499       84.492       38.123       25.319     7138.952     1453.363      641.072        1.472        0.462      142.023       36.386        0.066      341.124       15.618      858.650
10/25/2014  00:13:00     -241.312     -131.906      -12.164       68.752       65.164       38.676     4726.798     4246.317     1495.828        4.312        0.523      275.010       36.885        0.018      341.124       15.615      858.611
10/25/2014  00:14:00     -110.722     -120.115       -7.058      122.654       62.875       43.070    15044.099     3953.292     1855.034        2.379        1.043      163.362       42.525        0.068      341.012       15.427      858.620
10/25/2014  00:15:00      -47.942      -12.659       -5.546       58.735       36.803       26.433     3449.812     1354.497      698.713        0.400        0.275       49.585       21.517        0.188      340.981       15.375      858.645
10/25/2014  00:16:00      -46.103      -42.708        0.398       32.205       29.875       22.719     1037.165      892.503      516.137        0.320        0.122       62.845       20.144        0.103      340.998       15.407      858.651
10/25/2014  00:17:00     -110.666      -36.987       -4.488       52.747       48.424       23.475     2782.194     2344.932      551.076        0.966        0.284      116.683       18.259        0.024      341.103       15.583      858.624
10/25/2014  00:18:00      -69.580      -66.403        4.492       66.617       44.885       28.226     4437.857     2014.652      796.688        0.826        0.362       96.181       27.182        0.080      341.144       15.653      858.606
10/25/2014  00:19:00     -201.952      -77.333      -14.895       87.285       49.344       48.799     7618.588     2434.852     2381.350        2.971        0.622      216.252       48.530        0.050      341.168       15.689      858.560
10/25/2014  00:20:00      -72.647     -118.020        6.847       66.413       62.610       39.838     4410.663     3920.051     1587.069        1.458        0.496      138.587       37.282        0.072      341.287       15.895      858.609
10/25/2014  00:21:00      -97.525      -50.522        4.208       66.478       44.554       29.795     4419.364     1985.063      887.752        0.969        0.365      109.835       36.039        0.108      341.083       15.549      858.592
10/25/2014  00:22:00      -63.920     -126.722      -16.620       62.201       50.323       26.330     3869.016     2532.453      693.245        1.376        0.355      141.931       15.100        0.011      341.299       15.916      858.635
10/25/2014  00:23:00     -103.199      -80.677       -7.700       42.552       41.632       26.995     1810.673     1733.183      728.710        1.074        0.214      130.992       22.423        0.029      341.273       15.873      858.585
10/25/2014  00:24:00      -59.666      -91.489        6.841       41.011       86.592       24.642     1681.904     7498.194      607.214        1.088        0.489      109.226       21.083        0.037      341.263       15.854      858.589
10/25/2014  00:25:00     -163.876     -115.990      -13.386       90.980       57.083       33.337     8277.274     3258.487     1111.356        2.657        0.632      200.771       20.834        0.011      341.245       15.822      858.575
10/25/2014  00:26:00     -154.650     -111.315        2.022       75.177       78.618       45.396     5651.637     6180.768     2060.840        2.510        0.695      190.545       36.819        0.037      340.959       15.338      858.592
10/25/2014  00:27:00     -146.385      -55.412       -1.081       74.259       67.982       40.780     5514.419     4621.544     1662.974        1.815        0.590      156.522       39.210        0.063      341.011       15.426      858.582
10/25/2014  00:28:00      -66.071      -22.393       -4.365       60.472       32.316       22.309     3656.862     1044.319      497.703        0.504        0.260       69.763       26.432        0.144      340.895       15.232      858.543
10/25/2014  00:29:00      -59.167      -45.242        1.164       34.932       32.571       20.767     1220.231     1060.884      431.259        0.413        0.136       74.482       14.282        0.037      340.992       15.395      858.570
10/25/2014  00:30:00      -65.971      -23.730       -2.447       38.241       24.468       18.873     1462.365      598.687      356.207        0.367        0.121       70.109       17.970        0.066      340.920       15.273      858.541
10/25/2014  00:31:00     -113.370      -23.874      -10.069       35.838       36.036       22.633     1284.332     1298.596      512.235        0.831        0.155      115.857       18.443        0.025      340.816       15.098      858.526
10/25/2014  00:32:00     -141.232      -66.561       -6.566       84.103       55.750       25.503     7073.287     3108.035      650.415        1.762        0.542      156.131       28.863        0.034      340.885       15.212      858.570
10/25/2014  00:33:00     -226.077      -75.784       -3.763       88.964       73.513       39.399     7914.636     5404.119     1552.314        3.587        0.744      238.441       37.197        0.024      340.961       15.341      858.554
10/25/2014  00:34:00     -209.183      -63.256      -23.024       43.672       51.818       32.324     1907.223     2685.097     1044.841        2.696        0.282      218.538       26.749        0.015      340.908       15.250      858.534
10/25/2014  00:35:00     -158.771      -44.335       -2.718       74.863       59.782       26.686     5604.442     3573.928      712.163        1.853        0.495      164.845       28.725        0.030      340.772       15.021      858.531
10/25/2014  00:36:00     -206.318      -73.201        5.147       98.878       53.809       36.760     9776.816     2895.412     1351.288        3.099        0.701      218.919       44.681        0.042      340.840       15.136      858.515
10/25/2014  00:37:00     -186.595      -65.082       -8.328      104.489       80.552       44.772    10918.013     6488.672     2004.572        2.926        0.971      197.619       44.146        0.050      341.098       15.572      858.457
10/25/2014  00:38:00      -86.030      -68.279        2.334       78.893       50.561       35.241     6224.090     2556.374     1241.898        1.104        0.501      109.833       36.510        0.111      341.034       15.467      858.471
10/25/2014  00:39:00     -115.519     -136.881      -18.004       58.582       55.857       23.963     3431.874     3119.961      574.238        1.976        0.356      179.112       23.270        0.017      341.041       15.477      858.447
10/25/2014  00:40:00     -165.699      -58.489       -2.913       60.843       60.706       32.519     3701.905     3685.203     1057.485        1.966        0.422      175.719       35.949        0.042      341.091       15.562      858.356
10/25/2014  00:41:00     -103.285      -36.174       18.207       75.782       58.321       37.702     5742.962     3401.355     1421.412        1.143        0.528      109.437       27.428        0.063      341.188       15.729      858.314
10/25/2014  00:42:00      -34.048      -41.567       -0.148       62.279       54.920       29.980     3878.653     3016.181      898.816        0.534        0.390       53.732       20.268        0.142      340.992       15.396      858.305
10/25/2014  00:43:00     -117.745      -86.427        6.334       57.672       62.026       28.591     3326.071     3847.240      817.451        1.468        0.400      146.060       30.294        0.043      340.980       15.373      858.320
10/25/2014  00:44:00      -95.567      -71.362        7.607       77.763       47.505       25.338     6047.041     2256.741      642.030        1.161        0.447      119.271       29.480        0.061      340.990       15.393      858.349
10/25/2014  00:45:00     -136.628      -48.417      -13.229       46.664       34.520       25.973     2177.561     1191.647      674.574        1.261        0.202      144.954       27.266        0.035      341.083       15.550      858.298
10/25/2014  00:46:00       -1.836      -57.005        8.808       62.158       32.027       25.163     3863.555     1025.729      633.182        0.443        0.276       57.035       24.504        0.185      340.860       15.172      858.293
10/25/2014  00:47:00     -125.278      -72.881      -11.592       70.349       47.364       24.044     4949.000     2243.368      578.124        1.445        0.389      144.935       26.562        0.034      340.881       15.205      858.308
10/25/2014  00:48:00     -108.600      -96.375        9.194       77.804       54.514       36.277     6053.466     2971.739     1316.016        1.575        0.517      145.197       35.849        0.061      340.756       14.996      858.304
10/25/2014  00:49:00     -201.442     -117.025      -14.379       81.685       53.980       37.918     6672.489     2913.810     1437.762        3.275        0.551      232.967       36.712        0.025      341.070       15.524      858.322
10/25/2014  00:50:00     -184.887      -54.967      -12.434       66.800       46.726       36.292     4462.181     2183.319     1317.078        2.266        0.398      192.885       38.209        0.039      340.891       15.222      858.249
10/25/2014  00:51:00     -106.553      -54.453        9.333       85.940       45.253       29.056     7385.664     2047.801      844.242        1.234        0.514      119.661       37.983        0.101      340.823       15.108      858.276
10/25/2014  00:52:00     -156.239      -81.247      -10.788       39.362       57.276       24.176     1549.352     3280.549      584.473        1.827        0.271      176.101       24.743        0.020      340.883       15.211      858.254
10/25/2014  00:53:00     -122.523      -29.564        4.935       78.531       64.701       36.098     6167.047     4186.225     1303.073        1.378        0.583      126.040       49.649        0.155      340.858       15.166      858.185
10/25/2014  00:54:00     -124.306     -126.248       -4.370       51.021       47.937       24.705     2603.128     2297.939      610.347        1.846        0.276      177.174       24.810        0.020      340.792       15.056      858.202
10/25/2014  00:55:00      -85.114      -77.776       14.024       94.119       43.162       31.547     8858.313     1862.972      995.199        1.260        0.586      115.297       45.739        0.157      340.835       15.130      858.245
10/25/2014  00:56:00      -79.255      -29.010      -12.563       70.875       37.515       31.121     5023.201     1407.394      968.525        0.734        0.370       84.398       37.685        0.199      340.820       15.105      858.200
10/25/2014  00:57:00     -137.326      -84.829       -4.460       49.029       99.987       38.443     2403.849     9997.466     1477.864        1.997        0.694      161.413       37.277        0.053      341.136       15.638      858.170
10/25/2014  00:58:00      -50.985      -13.927        5.986       40.089       29.434       17.281     1607.139      866.342      298.631        0.280        0.139       52.853       11.751        0.049      340.758       15.000      858.175
10/25/2014  00:59:00      -86.341      -24.160        1.401       26.180       33.542       16.087      685.376     1125.080      258.802        0.505        0.103       89.658       12.548        0.020      340.737       14.965      858.165
10/25/2014  01:00:00     -130.115      -32.832      -11.242       33.675       46.177       20.330     1134.029     2132.288      413.321        1.091        0.184      134.194       14.504        0.012      340.592       14.718      858.146
10/25/2014  01:01:00     -167.558      -34.013       -0.786       92.243       40.188       38.038     8508.848     1615.079     1446.879        2.040        0.579      170.976       49.860        0.085      340.673       14.854      858.157
10/25/2014  01:02:00     -110.554      -82.286       -4.123       76.562       42.216       39.559     5861.681     1782.151     1564.921        1.411        0.460      137.816       45.275        0.108      340.778       15.033      858.228
10/25/2014  01:03:00     -149.830      -89.105      -11.891       74.600       45.786       30.005     5565.167     2096.400      900.319        1.954        0.428      174.323       24.928        0.020      340.766       15.010      858.174
10/25/2014  01:04:00      -79.964     -121.363       -1.002      125.134       49.316       36.359    15658.435     2432.036     1322.000        2.026        0.971      145.338       32.805        0.051      340.622       14.768      858.130
10/25/2014  01:05:00      -51.626      -19.508        7.381       67.824       50.942       26.646     4600.069     2595.059      710.014        0.550        0.395       55.189       33.674        0.372      340.569       14.681      858.110
10/25/2014  01:06:00      -92.401      -55.347       -0.296       67.537       33.735       23.862     4561.180     1138.057      569.418        0.893        0.313      107.710       28.155        0.068      340.632       14.786      858.127
10/25/2014  01:07:00      -71.019      -30.940       19.483      109.524       82.477       46.845    11995.428     6802.416     2194.447        1.368        1.050       77.466       64.599        0.695      340.430       14.444      858.111
10/25/2014  01:08:00      -37.777      -41.742       -4.414       50.348       61.693       42.616     2534.905     3806.007     1816.105        0.567        0.408       56.299       42.900        0.581      341.026       15.452      858.084
10/25/2014  01:09:00     -118.082      -73.441       -9.760       52.240       52.367       18.900     2728.992     2742.307      357.229        1.263        0.291      139.057       17.243        0.015      340.768       15.017      858.088
10/25/2014  01:10:00       29.693        1.869       11.484       67.133       54.286       36.257     4506.849     2946.946     1314.555        0.489        0.438       29.752       15.043        0.256      340.729       14.950      858.068
10/25/2014  01:11:00      142.515     -197.782        3.128      124.981      153.661       88.485    15620.368    23611.702     7829.540        5.324        2.353      243.780       73.981        0.092      341.726       16.636      857.947
10/25/2014  01:12:00       -2.147     -170.383       15.257      137.390      133.089       72.380    18876.002    17712.613     5238.928        3.554        2.091      170.397       75.302        0.195      341.700       16.592      858.001
10/25/2014  01:13:00      110.096      -69.000       45.416       98.541      100.343       59.028     9710.233    10068.722     3484.322        2.110        1.163      129.931       63.816        0.241      342.076       17.231      858.058
10/25/2014  01:14:00       64.101       15.747      102.184       92.671      140.941       86.826     8587.924    19864.451     7538.768        2.539        1.800       66.007       97.970        2.203      342.017       17.131      858.020
10/25/2014  01:15:00      201.266      -76.627       81.347      147.501      218.594      134.064    21756.537    47783.406    17973.184        7.024        4.376      215.359      163.691        0.578      342.262       17.546      858.001
10/25/2014  01:16:00      119.146     -163.726       35.960      200.776      175.225      115.494    40310.874    30703.831    13338.803        6.331        4.218      202.489      110.370        0.297      342.482       17.920      857.901
10/25/2014  01:17:00       74.164     -153.890       19.277      112.271      140.276       76.307    12604.734    19677.478     5822.782        3.382        1.905      170.828       96.011        0.316      342.437       17.844      857.940
10/25/2014  01:18:00       35.857     -176.661        6.576      112.919      145.667       65.243    12750.713    21218.914     4256.655        3.537        1.911      180.263       70.980        0.155      342.320       17.645      858.045
10/25/2014  01:19:00       33.347      -80.392        6.048      131.709       70.959       51.675    17347.287     5035.223     2670.319        1.633        1.253       87.034       41.684        0.229      342.294       17.603      857.985
10/25/2014  01:20:00       49.960      -57.455       40.576       98.544      151.665       68.570     9710.864    23002.150     4701.822        2.242        1.871       76.139       77.809        1.044      342.320       17.645      857.972
10/25/2014  01:21:00       78.472      -93.022       19.384      105.821      155.849       61.015    11198.189    24288.925     3722.773        2.719        1.960      121.700       78.139        0.412      342.300       17.611      857.902
10/25/2014  01:22:00      -49.305      -34.136       74.296      154.784      156.029      146.245    23957.961    24344.982    21387.675        3.939        3.485       59.969      131.365        4.799      342.420       17.815      857.801
10/25/2014  01:23:00      163.423     -330.716      -16.586      186.604      256.329      119.461    34821.117    65704.694    14270.868       12.555        5.740      368.891      120.067        0.106      342.834       18.518      857.777
10/25/2014  01:24:00       27.844     -243.950      -26.521      163.673      167.409       84.095    26788.744    28025.671     7071.940        6.143        3.094      245.533       89.745        0.134      342.741       18.361      857.822
10/25/2014  01:25:00       47.958        3.416      106.780       80.664      170.682      101.834     6506.694    29132.320    10370.219        2.985        2.300       48.079      108.375        5.081      342.591       18.105      857.855
10/25/2014  01:26:00       91.855      -32.736       78.153      119.596      170.604      110.808    14303.208    29105.556    12278.318        3.564        2.784       97.514      125.167        1.648      342.544       18.026      857.814
10/25/2014  01:27:00       60.075      -78.922       17.276       82.163       92.643       70.386     6750.751     8582.767     4954.232        1.521        1.014       99.185       57.430        0.335      342.477       17.914      857.818
10/25/2014  01:28:00      -30.067      -83.549       27.564      156.497      102.640       78.952    24491.290    10535.003     6233.430        2.494        2.063       88.794       70.425        0.629      342.615       18.147      857.798
10/25/2014  01:29:00      144.989     -140.123       18.953      122.189      117.641       79.467    14930.123    13839.447     6315.041        3.804        1.754      201.634       85.504        0.180      342.693       18.279      857.813
10/25/2014  01:30:00      142.098     -244.367       -1.674      141.637      157.317       83.136    20060.985    24748.793     6911.659        6.581        2.586      282.678       85.248        0.091      342.756       18.386      857.744
10/25/2014  01:31:00      169.314     -225.115       11.651      121.242      141.412       84.893    14699.572    19997.439     7206.879        6.068        2.095      281.681       93.275        0.110      342.698       18.286      857.689
10/25/2014  01:32:00      155.254     -263.969       -6.332      102.122      123.441       65.724    10428.885    15237.582     4319.647        6.190        1.499      306.241       69.363        0.051      342.701       18.290      857.712
10/25/2014  01:33:00      127.933     -198.388       42.406      144.419      180.706      107.050    20856.970    32654.670    11459.753        6.123        3.249      236.061      117.726        0.249      342.799       18.458      857.687
10/25/2014  01:34:00       29.260      -72.974       40.825      102.608       75.964       71.382    10528.355     5770.586     5095.397        1.462        1.070       78.621       47.026        0.358      342.613       18.143      857.719
10/25/2014  01:35:00       -7.058     -159.303       15.994       83.604      164.504       56.164     6989.691    27061.585     3154.425        3.144        1.860      159.460       67.383        0.179      342.729       18.341      857.767
10/25/2014  01:36:00      -23.781     -188.663        9.378      140.929      129.083       70.878    19861.103    16662.435     5023.681        3.889        2.077      190.156       68.782        0.131      342.861       18.564      857.734
10/25/2014  01:37:00     -138.166     -340.772      -20.157      174.698      147.240       89.399    30519.288    21679.471     7992.136        9.789        3.010      367.717       81.688        0.049      343.031       18.851      857.696
10/25/2014  01:38:00      -19.363     -268.342       -2.535      146.891      121.496       84.601    21577.106    14761.246     7157.319        5.793        2.175      269.040       69.122        0.066      343.048       18.882      857.789
10/25/2014  01:39:00       81.633      -42.349      106.814      133.980      248.146      123.561    17950.628    61576.656    15267.246        5.731        4.740       91.964      158.937        2.987      342.829       18.511      857.781
10/25/2014  01:40:00       59.798       58.725      165.572      144.554      145.394      108.295    20895.852    21139.394    11727.897        4.409        2.688       83.812      111.286        1.763      342.776       18.420      857.739
10/25/2014  01:41:00       23.383      -96.097       60.372      147.718      154.623      115.971    21820.726    23908.334    13449.315        3.629        2.959       98.901      117.887        1.421      342.769       18.408      857.692
10/25/2014  01:42:00       30.944     -293.690       -5.413      184.755      193.256       93.620    34134.437    37348.046     8764.797        8.373        4.012      295.315       70.545        0.057      342.982       18.771      857.704
10/25/2014  01:43:00      -30.101     -125.138        0.973       75.390       80.943       51.020     5683.634     6551.714     2603.026        1.570        0.742      128.707       36.512        0.080      342.913       18.655      857.761
10/25/2014  01:44:00       39.375     -135.140       40.056      110.021      115.224       59.711    12104.605    13276.620     3565.409        2.518        1.447      140.760       67.732        0.232      342.820       18.494      857.775
10/25/2014  01:45:00      -68.731      -70.668       38.789      121.297      151.475      110.413    14712.909    22944.793    12191.009        3.053        2.492       98.580      118.432        1.443      342.806       18.472      857.696
10/25/2014  01:46:00      -13.565     -245.199       -1.066      116.901      219.369       83.924    13665.771    48122.596     7043.319        6.456        3.442      245.574       93.005        0.143      342.919       18.664      857.671
10/25/2014  01:47:00      -20.022     -229.754        4.704      158.670      140.956       72.075    25176.193    19868.585     5194.742        5.171        2.512      230.625       53.831        0.054      342.966       18.743      857.617
10/25/2014  01:48:00       45.743     -197.760      -15.005      123.312      147.901       67.053    15205.755    21874.828     4496.063        4.149        2.079      202.981       66.297        0.107      342.951       18.718      857.605
10/25/2014  01:49:00       68.344     -172.726       22.064      140.402      184.453       84.991    19712.630    34022.765     7223.520        4.796        3.048      185.756       85.723        0.213      342.954       18.722      857.554
10/25/2014  01:50:00       57.656     -170.927       -4.760       96.577      112.906       55.105     9327.131    12747.664     3036.549        2.883        1.256      180.389       41.115        0.052      342.911       18.650      857.551
10/25/2014  01:51:00       36.589     -188.687       -6.109      186.044      131.430       87.444    34612.307    17273.887     7646.415        4.824        2.977      192.202       57.493        0.089      342.989       18.783      857.551
10/25/2014  01:52:00       67.450     -176.728        1.907      117.260      108.890       68.320    13749.999    11856.930     4667.636        3.302        1.514      189.162       59.106        0.098      342.958       18.730      857.582
10/25/2014  01:53:00       35.257     -185.138      -10.386      123.604      118.750       70.333    15277.947    14101.463     4946.777        3.497        1.716      188.465       75.027        0.158      342.977       18.762      857.588
10/25/2014  01:54:00       12.703      -63.947       16.395       91.069       88.958       48.887     8293.568     7913.524     2389.939        1.155        0.930       65.197       19.998        0.094      342.875       18.590      857.610
10/25/2014  01:55:00      -15.885      -69.123       26.636      116.999      113.511       60.903    13688.775    12884.643     3709.165        1.801        1.514       70.925       61.938        0.763      342.858       18.561      857.602
10/25/2014  01:56:00      101.724     -185.690        3.605      118.396      116.087       76.341    14017.552    13476.300     5828.002        3.908        1.666      211.728       64.635        0.093      343.129       19.020      857.524
10/25/2014  01:57:00       69.374     -235.831       -9.645      139.955      134.720       74.561    19587.302    18149.529     5559.275        5.190        2.165      245.823       63.008        0.066      343.163       19.078      857.498
10/25/2014  01:58:00      -57.433     -237.775       -3.603      284.857      211.182       94.215    81143.540    44597.966     8876.373        9.721        6.731      244.612       85.072        0.121      343.129       19.020      857.570
10/25/2014  01:59:00      210.355     -395.677      -29.374      181.875      219.913      113.602    33078.354    48361.698    12905.340       14.799        4.717      448.118      117.482        0.069      343.142       19.041      857.540
10/25/2014  02:00:00      157.051     -165.680       53.232      133.467      196.546       92.372    17813.379    38630.385     8532.675        5.995        3.249      228.286      105.302        0.213      343.043       18.874      857.461
10/25/2014  02:01:00      -40.432     -116.323       22.848       81.644      132.033       47.904     6665.824    17432.642     2294.761        2.104        1.320      123.150       51.811        0.177      342.993       18.792      857.480
10/25/2014  02:02:00      -77.503     -106.834       -5.852       97.530       48.217       34.797     9512.191     2324.837     1210.852        1.525        0.652      131.986       41.730        0.100      342.930       18.684      857.502
10/25/2014  02:03:00        8.485      -99.117       -4.252      107.286      136.535       58.366    11510.298    18641.758     3406.606        2.173        1.678       99.479       53.339        0.287      342.990       18.786      857.506
10/25/2014  02:04:00       35.950     -140.683        0.154      122.267      119.810       60.313    14949.244    14354.368     3637.708        2.701        1.647      145.203       55.404        0.146      343.008       18.814      857.483
10/25/2014  02:05:00      -47.498     -233.794       -3.540      133.226      146.250       77.190    17749.157    21388.980     5958.352        5.100        2.255      238.570       72.539        0.092      343.009       18.816      857.467
10/25/2014  02:06:00      -17.406     -272.341       -7.248      129.814      166.635       74.904    16851.613    27767.242     5610.535        6.237        2.511      272.896       70.205        0.066      343.092       18.955      857.497
10/25/2014  02:07:00      -45.462     -201.084       -2.247      161.233      142.060       73.964    25995.990    20180.941     5470.614        4.707        2.582      206.159       69.259        0.113      343.010       18.817      857.498
10/25/2014  02:08:00     -130.093     -168.942       -4.128      191.089      171.179       79.349    36514.836    29302.088     6296.274        5.878        3.606      213.226       67.622        0.101      342.887       18.607      857.591
10/25/2014  02:09:00      -54.615     -123.419       41.294      133.542      175.676       81.705    17833.472    30861.994     6675.778        3.763        2.769      134.963       84.807        0.395      343.082       18.941      857.569
10/25/2014  02:10:00     -133.266     -195.610      -20.825      233.467      108.896       74.284    54506.655    11858.363     5518.187        6.416        3.594      236.692       61.453        0.067      343.075       18.929      857.580
10/25/2014  02:11:00      -38.424      -61.413       12.320       97.999       92.826       57.824     9603.713     8616.624     3343.580        1.348        1.078       72.442       48.712        0.452      343.037       18.865      857.593
10/25/2014  02:12:00        0.885       -2.911       36.278      101.091      100.985       82.072    10219.303    10197.920     6735.789        1.423        1.358        3.043       65.699      466.146      343.036       18.863      857.553
10/25/2014  02:13:00       35.890      -90.763       17.755       90.803       90.348       70.323     8245.161     8162.742     4945.342        1.559        1.068       97.601       66.821        0.469      343.050       18.887      857.549
10/25/2014  02:14:00      -62.385      -49.919       11.295       73.314       71.134       34.709     5374.991     5060.075     1204.719        0.907        0.582       79.898       36.820        0.212      342.987       18.780      857.539
10/25/2014  02:15:00      -44.969      -52.238        9.049      116.637       61.836       42.335    13604.148     3823.692     1792.270        1.202        0.961       68.928       34.318        0.248      343.005       18.810      857.534
10/25/2014  02:16:00     -134.981      -48.909        1.022       78.400       59.653       40.825     6146.568     3558.532     1666.687        1.599        0.569      143.568       44.076        0.094      342.872       18.584      857.527
10/25/2014  02:17:00      -74.287      -81.346        9.251       42.352       61.956       25.833     1793.700     3838.498      667.369        0.926        0.315      110.162       25.487        0.054      342.785       18.438      857.542
10/25/2014  02:18:00     -108.354      -64.384      -15.535       88.006       64.792       43.448     7745.076     4198.065     1887.771        1.498        0.692      126.039       28.870        0.052      342.820       18.496      857.551
10/25/2014  02:19:00     -109.415     -135.660        0.900       87.673      105.265       48.955     7686.612    11080.742     2396.593        2.577        1.058      174.285       45.039        0.067      342.746       18.369      857.588
10/25/2014  02:20:00     -155.909      -96.365      -13.753       87.859       62.845       43.548     7719.168     3949.526     1896.462        2.367        0.678      183.286       54.663        0.089      342.567       18.063      857.595
10/25/2014  02:21:00      -72.652      -14.459       -4.527       68.198       43.760       35.687     4650.986     1914.913     1273.540        0.667        0.392       74.077       38.990        0.277      342.434       17.841      857.539
10/25/2014  02:22:00     -108.142      -46.258       -2.305       61.948       40.065       35.176     3837.528     1605.185     1237.357        1.026        0.334      117.620       38.508        0.107      342.401       17.785      857.524
10/25/2014  02:23:00      -27.500      -57.344        9.526      101.947       63.777       46.604    10393.121     4067.551     2171.978        1.038        0.832       63.597       29.038        0.208      342.550       18.037      857.530
10/25/2014  02:24:00     -128.723      -65.800        1.013       86.025       68.520       45.992     7400.220     4694.978     2115.253        1.755        0.711      144.566       35.128        0.059      342.429       17.831      857.564
10/25/2014  02:25:00     -151.053       13.123      -22.101      125.243      117.635       43.843    15685.827    13838.010     1922.216        2.746        1.572      151.622       64.892        0.183      342.427       17.826      857.522
10/25/2014  02:26:00     -163.922      -89.852        3.745      106.172      101.767       58.327    11272.506    10356.508     3402.013        2.999        1.252      186.933       58.043        0.096      342.157       17.367      857.534
10/25/2014  02:27:00     -266.221     -115.821      -12.924      119.883       83.562       45.749    14371.941     6982.596     2092.982        5.395        1.172      290.324       38.773        0.018      342.105       17.279      857.568
10/25/2014  02:28:00     -261.672      -61.967        1.370       94.318       70.946       49.886     8895.848     5033.266     2488.573        4.436        0.821      268.909       53.173        0.039      342.001       17.099      857.618
10/25/2014  02:29:00     -204.099     -122.082        0.138       55.233       56.189       34.126     3050.633     3157.185     1164.586        3.196        0.369      237.825       29.560        0.015      342.018       17.130      857.644
10/25/2014  02:30:00     -120.555      -81.096      -12.966       58.645       49.352       31.821     3439.291     2435.628     1012.589        1.408        0.344      145.293       12.930        0.008      342.070       17.221      857.629
10/25/2014  02:31:00     -155.389     -169.667      -14.007       86.767       67.197       34.030     7528.561     4515.447     1158.074        3.316        0.660      230.071       37.805        0.027      342.298       17.606      857.667
10/25/2014  02:32:00     -144.043     -110.482       -1.567       99.998       59.395       41.761     9999.695     3527.818     1743.954        2.411        0.764      181.534       40.978        0.051      342.293       17.599      857.643
10/25/2014  02:33:00     -193.486     -111.828       -7.631       63.369       62.345       35.699     4015.630     3886.945     1274.451        2.959        0.459      223.477       31.260        0.020      342.153       17.360      857.635
10/25/2014  02:34:00     -148.149     -110.994        0.540       72.988       64.380       39.974     5327.251     4144.826     1597.945        2.267        0.554      185.115       39.505        0.046      342.076       17.230      857.653
10/25/2014  02:35:00     -137.760     -165.974        5.512       74.525      110.353       51.910     5553.940    12177.892     2694.679        3.349        1.021      215.697       39.623        0.034      342.225       17.484      857.664
10/25/2014  02:36:00     -132.399     -180.454       -4.920       78.788       87.684       51.297     6207.589     7688.568     2631.357        3.332        0.826      223.815       43.361        0.038      342.188       17.421      857.637
10/25/2014  02:37:00      -70.315     -160.103       15.989       66.332      100.599       44.757     4399.931    10120.149     2003.151        2.367        0.826      174.863       48.442        0.077      342.227       17.487      857.601
10/25/2014  02:38:00      -61.197     -162.217       -6.007       71.538      110.059       35.180     5117.664    12113.028     1237.648        2.428        0.923      173.376       34.689        0.040      342.302       17.615      857.615
10/25/2014  02:39:00     -107.568      -78.429        3.407       71.668       52.146       30.268     5136.263     2719.231      916.132        1.325        0.439      133.124       23.839        0.032      342.152       17.360      857.657
10/25/2014  02:40:00      -86.793     -179.591       -0.297       74.676       74.468       39.102     5576.513     5545.501     1528.989        2.622        0.633      199.464       35.500        0.032      342.136       17.331      857.656
10/25/2014  02:41:00      -18.170     -141.930      -10.967       48.455       61.377       40.607     2347.842     3767.157     1648.916        1.418        0.388      143.089       23.146        0.026      342.164       17.381      857.594
10/25/2014  02:42:00       -9.992       -9.387       13.070       43.863       55.546       32.809     1923.920     3085.341     1076.398        0.322        0.304       13.709       38.540        7.903      342.239       17.510      857.542
10/25/2014  02:43:00       13.300      -54.080       -2.002       57.292       57.496       42.221     3282.342     3305.739     1782.638        0.574        0.419       55.691       36.219        0.423      342.064       17.211      857.528
10/25/2014  02:44:00      -41.781     -117.769       -5.612       76.239       53.303       39.105     5812.383     2841.168     1529.215        1.291        0.509      124.961       20.472        0.027      342.199       17.441      857.489
10/25/2014  02:45:00       23.721      -92.595       -7.953       42.879       46.364       28.873     1838.590     2149.609      833.632        0.701        0.241       95.585       17.340        0.033      342.183       17.415      857.481
10/25/2014  02:46:00      -50.916      -43.259        1.168       20.854       28.541       17.832      434.885      814.591      317.984        0.302        0.078       66.811       16.711        0.063      342.120       17.306      857.499
10/25/2014  02:47:00      -69.648      -70.377       -6.588       48.529       49.757       19.021     2355.094     2475.784      361.803        0.752        0.260       99.014       16.188        0.027      342.025       17.146      857.546
10/25/2014  02:48:00     -158.228     -118.730      -11.340       54.461       66.313       22.481     2966.004     4397.455      505.417        2.356        0.393      197.821       25.006        0.016      342.019       17.133      857.502
10/25/2014  02:49:00     -100.960      -83.592        3.866       76.307       64.907       28.868     5822.765     4212.919      833.339        1.403        0.543      131.075       28.469        0.047      341.870       16.883      857.403
10/25/2014  02:50:00      -98.688     -158.227       -0.040       47.235       68.901       30.821     2231.100     4747.292      949.908        2.135        0.396      186.481       30.024        0.026      342.182       17.410      857.395
10/25/2014  02:51:00      -49.762     -103.607        3.485       52.185       38.029       25.395     2723.249     1446.183      644.897        0.902        0.241      114.938       25.485        0.049      342.129       17.324      857.383
10/25/2014  02:52:00      -45.039     -105.309        1.645       48.006       54.055       21.982     2304.601     2921.955      483.209        0.941        0.285      114.537       22.300        0.038      342.085       17.247      857.418
10/25/2014  02:53:00      -69.541      -81.687       -0.906       60.228       59.885       35.147     3627.374     3586.262     1235.297        0.998        0.422      107.279       35.802        0.111      341.940       17.001      857.418
10/25/2014  02:54:00     -172.617      -44.915        3.478      101.582       73.735       44.032    10318.999     5436.908     1938.823        2.476        0.885      178.364       39.710        0.050      341.864       16.870      857.406
10/25/2014  02:55:00     -269.694     -148.432        3.187      125.580      128.053       63.717    15770.449    16397.595     4059.801        6.550        1.811      307.842       67.532        0.048      342.054       17.191      857.219
10/25/2014  02:56:00      -81.010     -119.848       16.152      105.429      123.788       55.315    11115.342    15323.432     3059.790        2.534        1.475      144.659       50.308        0.121      342.016       17.128      857.303
10/25/2014  02:57:00      -35.850     -238.673        9.067       72.637       77.811       48.709     5276.184     6054.611     2372.533        3.601        0.685      241.350       29.167        0.015      342.130       17.321      857.318
10/25/2014  02:58:00      -60.980     -108.521        8.470       59.813       61.904       35.868     3577.629     3832.121     1286.545        1.213        0.435      124.480       33.547        0.073      342.015       17.129      857.337
10/25/2014  02:59:00     -103.842     -123.008       -6.442       92.367       77.820       38.308     8531.588     6055.996     1467.488        2.100        0.803      160.979       37.987        0.056      341.853       16.853      857.346
10/25/2014  03:00:00      -93.327      -81.825       -4.696       63.267       54.819       36.805     4002.748     3005.128     1354.620        1.189        0.418      124.118       38.283        0.095      341.658       16.524      857.330
10/25/2014  03:01:00     -221.223     -136.656       -7.073       64.708       67.079       36.311     4187.101     4499.537     1318.470        3.883        0.500      260.028       33.310        0.016      341.540       16.319      857.262
10/25/2014  03:02:00     -235.136      -96.834       10.181      111.391      105.592       62.744    12408.034    11149.597     3936.774        4.613        1.375      254.295       67.889        0.071      341.741       16.660      857.193
10/25/2014  03:03:00     -213.497     -156.335       -4.076      104.838      103.560       55.952    10990.955    10724.604     3130.632        4.744        1.242      264.616       51.371        0.038      341.817       16.790      857.259
10/25/2014  03:04:00     -149.999     -143.324       -0.420       78.414       80.494       46.888     6148.684     6479.323     2198.454        2.893        0.741      207.464       40.619        0.038      341.817       16.790      857.372
10/25/2014  03:05:00      -97.858     -145.124       -8.360       74.218       53.744       28.401     5508.324     2888.445      806.600        1.995        0.460      175.034       30.496        0.030      341.693       16.582      857.338
10/25/2014  03:06:00      -12.607      -29.622       14.812       38.188       64.997       24.689     1458.324     4224.633      609.539        0.377        0.315       32.193       30.849        0.918      341.486       16.232      857.298
10/25/2014  03:07:00      -94.100     -141.182       -1.772       65.616       95.503       50.790     4305.468     9120.753     2579.658        2.239        0.800      169.668       54.437        0.103      341.794       16.752      857.358
10/25/2014  03:08:00     -156.626      -42.381      -12.185       67.577       46.667       36.937     4566.675     2177.802     1364.331        1.729        0.405      162.258       35.216        0.047      341.805       16.773      857.264
10/25/2014  03:09:00      -92.688     -135.076      -15.811       96.732       75.457       35.724     9357.127     5693.719     1276.234        2.170        0.816      163.818       35.271        0.046      341.692       16.578      857.264
10/25/2014  03:10:00     -172.842     -150.471       -5.402       95.576       81.519       47.347     9134.796     6645.378     2241.708        3.528        0.901      229.163       44.209        0.037      341.874       16.886      857.234
10/25/2014  03:11:00     -166.030     -179.557       13.092      135.732      102.560       57.390    18423.108    10518.483     3293.589        4.610        1.612      244.554       55.404        0.051      341.878       16.893      857.223
10/25/2014  03:12:00      -81.813     -250.807       12.740       58.973       88.762       56.070     3477.869     7878.768     3143.806        4.213        0.725      263.813       36.986        0.020      341.870       16.879      857.235
10/25/2014  03:13:00      -31.945     -156.417        0.550       60.275       89.679       40.256     3633.105     8042.288     1620.565        1.939        0.665      159.645       42.608        0.071      341.747       16.673      857.264
10/25/2014  03:14:00     -129.185     -129.154       -8.073       66.445       51.208       36.778     4414.987     2622.212     1352.621        2.091        0.419      182.673       20.261        0.012      341.693       16.580      857.225
10/25/2014  03:15:00     -274.426     -151.861      -10.078      101.991       58.344       40.539    10402.174     3404.019     1643.377        5.696        0.772      313.642       42.468        0.018      341.576       16.381      857.201
10/25/2014  03:16:00     -233.014     -124.689      -25.916      127.365      101.110       59.905    16221.945    10223.287     3588.643        5.027        1.502      264.278       67.066        0.064      341.714       16.615      857.176
10/25/2014  03:17:00      -96.220     -118.787       10.382       89.095       77.073       48.160     7937.924     5940.231     2319.404        1.983        0.810      152.868       59.221        0.150      341.586       16.398      857.115
10/25/2014  03:18:00     -134.331      -75.213        4.391       94.397       61.930       36.709     8910.721     3835.288     1347.538        1.890        0.705      153.954       46.060        0.090      341.604       16.430      857.205
10/25/2014  03:19:00     -170.378     -171.269      -10.511      169.545      179.645       79.257    28745.556    32272.339     6281.607        6.287        3.365      241.582       60.000        0.062      341.952       17.018      857.065
10/25/2014  03:20:00      -79.600     -198.735      -10.978      125.985      127.844       75.349    15872.308    16344.018     5677.469        4.192        1.895      214.083       64.303        0.090      342.172       17.393      857.052
10/25/2014  03:21:00       -9.440     -371.718      -18.961      244.766      251.083      105.942    59910.349    63042.876    11223.665       13.637        6.709      371.838      108.907        0.086      342.788       18.438      857.090
10/25/2014  03:22:00     -106.470     -150.064       18.929      207.337      208.419      109.530    42988.745    43438.285    11996.722        6.630        4.921      183.997      115.430        0.394      342.555       18.044      856.944
10/25/2014  03:23:00       11.685     -207.233       15.554      134.621      154.207       62.573    18122.685    23779.801     3915.351        4.456        2.291      207.562       53.493        0.066      342.574       18.076      857.015
10/25/2014  03:24:00        3.295     -212.201        5.013      225.993      177.969       85.371    51072.773    31672.987     7288.261        6.753        4.502      212.227       77.523        0.133      342.798       18.458      856.948
10/25/2014  03:25:00       17.594     -221.547        1.624      189.849      238.704      110.497    36042.677    56979.521    12209.539        7.729        5.262      222.244      108.818        0.240      342.884       18.602      856.891
10/25/2014  03:26:00      -34.049     -336.486        9.366      232.938      298.846      116.192    54260.092    89309.047    13500.493       13.574        7.853      338.205      152.586        0.204      342.952       18.718      856.899
10/25/2014  03:27:00      196.523     -503.030        5.406      350.375      307.800      160.870   122762.734    94740.654    25879.005       26.749       12.169      540.056      158.889        0.087      343.045       18.877      856.741
10/25/2014  03:28:00     -199.856     -311.974        4.177      317.583      212.303      114.401   100859.196    45072.757    13087.495       14.812        7.951      370.500       96.860        0.068      342.950       18.716      856.805
10/25/2014  03:29:00       23.341     -335.715      -10.632      196.708      204.677      142.634    38693.927    41892.738    20344.504       10.713        5.047      336.525      125.666        0.139      342.975       18.758      856.815
10/25/2014  03:30:00      -85.178     -288.044       28.699      219.585      287.215      121.845    48217.700    82492.460    14846.199       11.827        7.278      300.374      132.170        0.194      343.016       18.828      856.779
10/25/2014  03:31:00        2.750     -452.501        8.119      164.126      276.923      131.428    26937.475    76686.160    17273.346       16.284        6.045      452.510      124.732        0.076      343.021       18.836      856.766
10/25/2014  03:32:00       47.456     -259.892       16.288      155.686      239.988      113.344    24238.251    57594.371    12846.883        8.235        4.734      264.190      124.963        0.224      342.955       18.723      856.763
10/25/2014  03:33:00       45.585     -421.558       -9.950      251.948      300.280      130.986    63477.983    90168.114    17157.336       17.531        8.540      424.015      127.852        0.091      342.973       18.755      856.725
10/25/2014  03:34:00      115.606     -329.691        3.924      161.565      234.656      100.085    26103.170    55063.527    10017.061       10.661        4.559      349.372      111.962        0.103      342.934       18.687      856.725
10/25/2014  03:35:00       34.200     -126.903       24.463      110.883      129.476       74.114    12295.139    16764.156     5492.815        2.621        1.728      131.430       74.493        0.321      342.831       18.515      856.726
10/25/2014  03:36:00      -52.652     -222.336      -14.109      132.011      132.690       72.343    17426.831    17606.735     5233.531        4.633        2.013      228.485       49.264        0.046      342.859       18.561      856.710
10/25/2014  03:37:00       -1.634     -340.058      -10.705      198.172      169.682       95.918    39272.320    28792.144     9200.189        9.650        3.863      340.062       79.621        0.055      342.871       18.581      856.687
10/25/2014  03:38:00      -46.799     -333.471       14.856      190.770      328.048      121.396    36393.290   107615.200    14737.085       13.615        7.937      336.738      130.759        0.151      342.892       18.616      856.633
10/25/2014  03:39:00        8.871      -88.007       58.306      113.077      140.876       86.859    12786.410    19845.978     7544.451        2.569        2.009       88.453       79.685        0.812      342.783       18.432      856.630
10/25/2014  03:40:00      -14.796     -195.921       22.890      192.931      185.516       98.700    37222.185    34416.237     9741.678        6.024        4.069      196.479       83.050        0.179      342.788       18.441      856.586
10/25/2014  03:41:00      -56.775     -423.305       -6.170      238.743      296.335      133.526    56998.351    87814.473    17829.158       17.251        8.132      427.095      116.159        0.074      342.948       18.711      856.528
10/25/2014  03:42:00       26.978     -325.532        8.000      244.057      168.552      104.542    59563.912    28409.711    10929.131       10.281        4.945      326.648       73.227        0.050      342.988       18.779      856.593
10/25/2014  03:43:00       25.410     -295.534      -17.843      194.422      184.141      109.455    37799.781    33907.895    11980.297        8.598        4.184      296.625       97.146        0.107      342.946       18.707      856.575
10/25/2014  03:44:00       22.407     -393.076        7.218      263.227      244.043      126.393    69288.253    59557.157    15975.180       14.991        7.241      393.714      116.604        0.088      342.935       18.690      856.523
10/25/2014  03:45:00      163.521     -399.326      -12.780      244.606      282.692      123.161    59832.010    79915.018    15168.751       17.061        7.746      431.510      129.864        0.091      342.987       18.777      856.546
10/25/2014  03:46:00       94.153     -333.615       49.732      229.695      281.827      156.565    52759.926    79426.607    24512.537       13.964        7.835      346.647      165.697        0.228      342.963       18.737      856.505
10/25/2014  03:47:00        7.675     -391.666       -2.530      204.326      230.998       93.986    41749.016    53359.928     8833.361       12.868        5.197      391.741       67.800        0.030      342.989       18.781      856.494
10/25/2014  03:48:00        4.410     -396.921      -12.295      232.927      242.198      114.185    54255.009    58660.016    13038.155       14.181        6.298      396.945       97.545        0.060      343.009       18.815      856.518
10/25/2014  03:49:00       50.477     -463.148      -13.416      187.836      168.586      104.537    35282.215    28421.189    10927.880       14.592        3.732      465.891       72.532        0.024      343.003       18.806      856.569
10/25/2014  03:50:00        7.778     -319.193      -13.834      225.741      231.647      142.042    50959.224    53660.299    20175.924       11.344        6.240      319.288      119.451        0.140      342.915       18.655      856.539
10/25/2014  03:51:00       41.477     -420.667       -6.118      223.360      238.349      123.507    49889.792    56810.465    15254.008       15.031        6.098      422.707      118.074        0.078      342.987       18.778      856.595
10/25/2014  03:52:00      -97.192     -364.602       44.611      192.979      338.794      125.368    37241.005   114781.360    15717.216       15.602        8.387      377.334      138.327        0.134      342.942       18.702      856.625
10/25/2014  03:53:00      -10.826     -454.529      -35.479      263.677      282.855      111.445    69525.302    80006.693    12419.901       18.493        8.098      454.658      110.390        0.059      342.976       18.759      856.624
10/25/2014  03:54:00      -26.168     -375.111       38.876      184.313      279.586      119.893    33971.418    78168.341    14374.342       13.468        6.326      376.022      122.019        0.105      342.944       18.705      856.592
10/25/2014  03:55:00      -74.465     -353.959      -20.789      224.795      190.388      112.398    50532.905    36247.590    12633.294       11.532        4.971      361.707       72.144        0.040      342.953       18.720      856.578
10/25/2014  03:56:00      -45.539     -207.019        1.043      144.205      210.334      101.895    20794.987    44240.405    10382.636        6.016        3.771      211.968       90.016        0.180      342.813       18.483      856.579
10/25/2014  03:57:00      -88.702     -281.974      -26.646      219.958      186.655      102.011    48381.318    34840.134    10406.234        9.084        4.681      295.597       83.724        0.080      342.913       18.652      856.617
10/25/2014  03:58:00     -186.526     -191.240        3.289      178.165      153.616       75.960    31742.666    23597.816     5769.946        6.623        3.056      267.142       69.739        0.068      342.842       18.531      856.656
10/25/2014  03:59:00      -36.969     -251.720       -1.732      154.893      141.354       79.748    23991.698    19981.012     6359.748        5.752        2.517      254.420       79.872        0.099      342.911       18.649      856.687
10/25/2014  04:00:00      -99.317     -272.103      -15.370      234.196      232.273      125.571    54847.748    53950.698    15768.187       10.433        6.228      289.662      105.748        0.133      342.863       18.568      856.727
10/25/2014  04:01:00      -92.831     -320.124       -2.918      251.054      214.444      105.538    63028.326    45986.363    11138.329       11.561        6.008      333.312       99.621        0.089      342.874       18.586      856.656
10/25/2014  04:02:00      -64.163     -328.050        5.303      177.436      292.779      108.636    31483.368    85719.573    11801.800       12.036        6.450      334.266       84.289        0.064      342.823       18.499      856.683
10/25/2014  04:03:00        3.773     -273.384        0.266      162.627      203.099       92.143    26447.471    41249.041     8490.300        7.545        3.809      273.410      104.054        0.145      342.838       18.526      856.623
10/25/2014  04:04:00      156.870     -399.120      -38.697      236.558      223.091      116.610    55959.613    49769.736    13597.901       15.234        5.966      428.842      114.575        0.071      342.840       18.528      856.615
10/25/2014  04:05:00      -74.737     -272.343       12.111      142.352      253.316       99.606    20264.006    64169.185     9921.319        8.711        4.718      282.411      104.880        0.138      342.782       18.430      856.620
10/25/2014  04:06:00     -112.594     -441.477      -25.464      237.074      257.907      108.400    56203.969    66515.893    11750.568       17.132        6.724      455.609       99.721        0.048      342.931       18.682      856.680
10/25/2014  04:07:00      -72.359     -196.807        1.566      232.264      138.263       81.142    53946.699    19116.593     6584.021        6.179        3.982      209.687       57.708        0.076      342.849       18.544      856.652
10/25/2014  04:08:00      -57.811     -138.970       12.326      103.231      101.034       57.517    10656.588    10207.868     3308.150        2.348        1.209      150.515       58.171        0.149      342.716       18.319      856.669
10/25/2014  04:09:00     -104.545     -205.204       -6.346      119.986      153.159       82.432    14396.741    23457.759     6795.069        4.885        2.232      230.300       64.920        0.079      342.714       18.315      856.662
10/25/2014  04:10:00      -94.219     -111.319       -0.894      138.520       94.373       71.815    19187.654     8906.332     5157.412        2.725        1.663      145.839       61.122        0.176      342.621       18.158      856.709
10/25/2014  04:11:00      -92.223     -255.969      -18.308      266.347      194.977      102.957    70940.949    38015.862    10600.095        9.693        5.978      272.076       67.436        0.061      342.733       18.347      856.619
10/25/2014  04:12:00      -75.690     -116.513        7.016      160.322      109.609       71.973    25703.095    12014.163     5180.108        3.112        2.145      138.940       73.284        0.278      342.706       18.301      856.581
10/25/2014  04:13:00      -82.529     -120.261       16.666      156.482      112.932       64.833    24486.605    12753.682     4203.325        3.149        2.072      145.855       83.809        0.330      342.693       18.280      856.524
10/25/2014  04:14:00      -18.015     -104.494       32.419      143.102      152.288       85.962    20478.202    23191.731     7389.487        3.167        2.553      106.036       85.136        0.645      342.675       18.249      856.472
10/25/2014  04:15:00     -153.482     -228.172       11.068      176.743      241.481       72.985    31238.069    58312.999     5326.753        8.529        4.744      274.989      103.390        0.141      342.519       17.985      856.484
10/25/2014  04:16:00     -259.779     -284.174        2.833      151.084      165.829       83.864    22826.481    27499.374     7033.195       10.279        2.868      385.019       70.050        0.033      342.199       17.439      856.582
10/25/2014  04:17:00     -321.970     -211.214       -9.618      128.792       98.972       64.287    16587.345     9795.403     4132.857        8.944        1.526      385.066       61.460        0.025      342.016       17.127      856.600
10/25/2014  04:18:00     -255.688     -165.116      -17.412      112.996       86.969       43.985    12768.001     7563.654     1934.688        5.760        1.113      304.368       31.693        0.011      341.847       16.840      856.559
10/25/2014  04:19:00      -76.689     -131.976      -19.313      122.288       57.023       45.759    14954.320     3251.634     2093.909        2.198        1.015      152.639       18.638        0.015      341.899       16.931      856.570
10/25/2014  04:20:00      -49.099     -141.293      -26.435       89.517       78.402       52.215     8013.308     6146.851     2726.379        1.998        0.844      149.581       54.364        0.132      342.162       17.377      856.579
10/25/2014  04:21:00      -28.701     -223.557        5.504      152.825      100.160       78.616    23355.415    10032.036     6180.460        4.519        1.978      225.391       63.059        0.078      342.485       17.925      856.552
10/25/2014  04:22:00       13.957     -216.076       12.803      203.374      156.269       81.859    41360.835    24419.898     6700.824        5.975        3.624      216.527       73.066        0.114      342.516       17.978      856.514
10/25/2014  04:23:00      -90.193     -161.909       27.916      166.854      166.919       90.531    27840.350    27861.878     8195.930        4.950        3.195      185.336       93.189        0.253      342.636       18.181      856.498
10/25/2014  04:24:00      -47.908     -309.769       -9.667      214.056      157.992      101.857    45819.947    24961.473    10374.949        8.973        4.058      313.451       81.745        0.068      342.700       18.290      856.434
10/25/2014  04:25:00      -14.738     -101.797        7.142      116.533      144.281       62.213    13579.865    20816.961     3870.475        2.444        1.913      102.858       58.809        0.327      342.639       18.189      856.436
10/25/2014  04:26:00      -23.558     -290.276        0.787      165.005      157.191       80.796    27226.598    24708.908     6528.069        7.163        2.923      291.231       65.916        0.051      342.741       18.359      856.398
10/25/2014  04:27:00       30.676     -382.781       25.749      205.409      260.084      105.972    42192.903    67643.716    11230.034       13.457        6.053      384.009       97.342        0.064      342.726       18.334      856.422
10/25/2014  04:28:00      -98.617     -158.090      -17.344      170.211      174.821       77.346    28971.783    30562.384     5982.407        5.025        3.276      186.327       72.765        0.153      342.675       18.247      856.467
10/25/2014  04:29:00     -118.240     -262.579      -19.359      129.707      135.588       73.389    16824.000    18384.098     5385.969        6.194        2.030      287.973       50.083        0.030      342.627       18.166      856.415
10/25/2014  04:30:00     -159.318     -128.627      -35.574      162.112      114.423       57.854    26280.273    13092.560     3347.140        4.295        2.136      204.761       43.920        0.046      342.543       18.024      856.419
10/25/2014  04:31:00     -152.314     -232.843       -6.427      180.561      178.251       92.961    32602.101    31773.315     8641.817        7.522        3.651      278.236       82.754        0.088      342.617       18.149      856.449
10/25/2014  04:32:00     -271.247     -235.050      -15.662      130.797      153.879       71.925    17107.846    23678.640     5173.222        8.751        2.298      358.920       69.760        0.038      342.512       17.970      856.531
10/25/2014  04:33:00     -165.720     -158.420       11.554      129.213      126.711       69.421    16695.901    16055.603     4819.314        4.512        1.879      229.260       60.407        0.069      342.376       17.740      856.522
10/25/2014  04:34:00     -244.456     -208.688       -6.433      137.965      120.633       66.842    19034.371    14552.268     4467.808        7.069        1.903      321.418       68.794        0.046      342.234       17.499      856.530
10/25/2014  04:35:00     -240.253     -161.133       -5.956      138.652      109.829       70.369    19224.318    12062.303     4951.818        5.997        1.812      289.285       47.507        0.027      342.172       17.393      856.516
10/25/2014  04:36:00     -236.205     -180.843       -8.893      134.610       97.104       58.312    18119.822     9429.246     3400.271        5.976        1.547      297.484       41.911        0.020      342.156       17.367      856.545
10/25/2014  04:37:00     -113.747     -128.985       -2.131      137.345      102.411       68.727    18863.612    10488.036     4723.342        3.182        1.704      171.975       39.976        0.054      342.280       17.578      856.529
10/25/2014  04:38:00      -88.045      -86.762       -9.738       88.183       72.812       35.304     7776.205     5301.521     1246.359        1.485        0.716      123.611       23.942        0.038      342.145       17.350      856.490
10/25/2014  04:39:00      -44.956     -148.776       -8.706      171.485       74.979       65.023    29407.110     5621.806     4228.052        3.174        1.963      155.420       47.996        0.095      342.334       17.668      856.499
10/25/2014  04:40:00      -40.116     -112.075       22.780      139.818      150.839       61.523    19549.022    22752.277     3785.110        3.038        2.304      119.038       60.417        0.258      342.372       17.734      856.467
10/25/2014  04:41:00      -74.888      -95.114       12.039      104.913      102.585       49.686    11006.833    10523.680     2468.694        1.939        1.200      121.057       50.441        0.174      342.386       17.757      856.450
10/25/2014  04:42:00       -7.089     -169.935       10.744      129.002      218.736       78.941    16641.440    47845.634     6231.726        4.987        3.536      170.083       94.400        0.308      342.483       17.922      856.462
10/25/2014  04:43:00       58.851     -312.987      -18.570      185.833      200.833       92.423    34533.897    40333.892     8541.955        9.257        4.170      318.472       70.238        0.049      342.585       18.096      856.461
10/25/2014  04:44:00     -169.937     -115.901        5.872      132.863      111.667       66.044    17652.531    12469.518     4361.868        3.841        1.724      205.697       44.676        0.047      342.410       17.799      856.441
10/25/2014  04:45:00     -252.920     -314.079      -13.659      148.201      136.653       62.420    21963.598    18674.103     3896.304       10.366        2.227      403.255       36.076        0.008      342.360       17.713      856.435
10/25/2014  04:46:00     -308.802     -200.311       -6.283      152.175      121.383       68.427    23157.139    14733.729     4682.260        8.904        2.129      368.081       72.198        0.038      342.183       17.411      856.520
10/25/2014  04:47:00     -191.610     -190.485       -8.684      131.668      102.495       60.662    17336.344    10505.296     3679.831        5.229        1.576      270.183       59.696        0.049      342.069       17.216      856.574
10/25/2014  04:48:00     -242.026     -178.872      -27.141       99.534      154.359       46.575     9907.061    23826.649     2169.217        6.360        1.795      300.951       24.022        0.006      342.298       17.608      856.532
10/25/2014  04:49:00      -65.354      -74.496       32.306      132.762       99.679       75.206    17625.718     9935.963     5655.911        2.203        1.661       99.100       69.995        0.499      342.319       17.644      856.510
10/25/2014  04:50:00     -120.570     -198.781        4.012       99.991      110.755       60.260     9998.109    12266.713     3631.319        3.998        1.295      232.489       52.804        0.052      342.347       17.690      856.524
10/25/2014  04:51:00     -207.497     -140.096      -17.923      109.380       81.235       47.587    11963.897     6599.060     2264.538        4.191        1.041      250.364       36.419        0.021      342.301       17.612      856.500
10/25/2014  04:52:00     -105.843     -154.225       -5.051      137.887       94.951       41.369    19012.694     9015.719     1711.386        3.237        1.487      187.051       57.275        0.094      342.167       17.383      856.487
10/25/2014  04:53:00     -170.627     -101.237       -7.323       82.727       96.503       36.876     6843.834     9312.804     1359.806        2.846        0.876      198.400       37.935        0.037      341.997       17.097      856.467
10/25/2014  04:54:00     -155.627     -222.420       -5.658      101.350      103.121       61.191    10271.749    10633.942     3744.354        4.918        1.233      271.460       42.318        0.024      342.147       17.349      856.417
10/25/2014  04:55:00     -192.122      -94.433       -8.728       66.619       89.932       31.853     4438.039     8087.675     1014.628        2.972        0.677      214.076       34.385        0.026      341.991       17.085      856.428
10/25/2014  04:56:00      -96.319     -112.781       -8.095       93.419       67.022       39.457     8727.151     4492.014     1556.817        1.842        0.739      148.313       40.728        0.075      341.909       16.947      856.422
10/25/2014  04:57:00     -134.444     -112.304        5.199       86.456       70.478       38.859     7474.649     4967.133     1510.032        2.233        0.698      175.179       35.448        0.041      341.810       16.779      856.461
10/25/2014  04:58:00     -119.091     -199.179       -3.139       64.246       76.820       43.269     4127.604     5901.337     1872.228        3.288        0.595      232.067       41.654        0.032      341.790       16.745      856.560
10/25/2014  04:59:00     -145.339     -120.749        4.768       87.104      105.749       60.005     7587.073    11182.945     3600.606        2.904        1.119      188.954       51.173        0.073      342.127       17.317      856.530
10/25/2014  05:00:00     -148.776     -109.300      -20.615       46.579       44.956       31.148     2169.598     2021.056      970.226        1.983        0.258      184.610       28.537        0.024      341.798       16.759      856.497
10/25/2014  05:01:00      -63.301        3.228      -15.686       82.589       85.580       35.020     6821.011     7323.984     1226.421        0.981        0.769       63.384       40.106        0.400      341.816       16.792      856.463
10/25/2014  05:02:00      -85.405     -116.082       -2.903      137.919      110.718       53.707    19021.768    12258.540     2884.428        2.746        1.708      144.114       44.401        0.095      341.979       17.067      856.450
10/25/2014  05:03:00     -212.067     -147.406       -3.897      137.138       93.589       47.324    18806.713     8758.838     2239.597        4.825        1.490      258.265       58.911        0.052      341.743       16.665      856.506
10/25/2014  05:04:00     -153.081     -150.881        8.714      122.051      108.937       68.507    14896.565    11867.373     4693.186        3.886        1.573      214.939       72.145        0.113      341.697       16.586      856.523
10/25/2014  05:05:00     -147.650     -112.814        6.936       88.140       86.384       41.735     7768.646     7462.119     1741.778        2.577        0.849      185.816       33.792        0.033      341.734       16.648      856.499
10/25/2014  05:06:00     -273.978      -99.420      -27.515       86.248       87.603       43.698     7438.725     7674.209     1909.546        5.136        0.851      291.459       49.231        0.029      341.793       16.749      856.409
10/25/2014  05:07:00     -170.532     -122.967        5.863      143.677      111.460       63.383    20643.051    12423.345     4017.412        4.065        1.854      210.243       64.142        0.093      341.667       16.536      856.460
10/25/2014  05:08:00      -14.542       29.314       74.651      108.065      114.476       93.582    11678.136    13104.790     8757.526        2.009        1.677       32.722       94.014        8.255      341.321       15.953      856.476
10/25/2014  05:09:00     -143.369     -198.692      -17.176      154.601      114.776       59.036    23901.550    13173.524     3485.292        5.044        2.028      245.016       61.952        0.064      342.033       17.157      856.466
10/25/2014  05:10:00     -146.540     -125.499        2.563      230.063      134.049       67.008    52928.846    17969.156     4490.105        5.629        3.769      192.935       54.581        0.080      341.960       17.036      856.467
10/25/2014  05:11:00     -123.353     -170.614       -2.158      172.176      162.983       69.561    29644.737    26563.341     4838.761        5.268        3.052      210.535       75.242        0.128      342.068       17.216      856.520
10/25/2014  05:12:00      -82.109     -138.725      -10.691      127.589       95.828       48.096    16278.846     9183.044     2313.196        2.693        1.389      161.203       47.641        0.087      342.065       17.213      856.514
10/25/2014  05:13:00     -205.479      -93.247      -13.317      144.853      122.254       68.408    20982.449    14946.137     4679.592        4.584        2.030      225.648       85.891        0.145      342.022       17.139      856.432
10/25/2014  05:14:00      -79.466     -135.317       -8.656       77.718       90.266       40.558     6040.095     8147.895     1644.924        2.026        0.792      156.925       32.201        0.042      342.042       17.173      856.424
10/25/2014  05:15:00      -38.111     -246.314       18.377      174.308      237.411      107.136    30383.377    56363.789    11478.214        8.032        4.911      249.245      115.772        0.216      342.148       17.353      856.542
10/25/2014  05:16:00     -220.411     -183.786      -12.111      219.079      169.725       81.847    47995.593    28806.595     6698.963        8.299        4.175      286.981       86.396        0.091      341.981       17.068      856.450
10/25/2014  05:17:00     -167.925     -220.281        5.827      184.724      168.431       89.319    34122.773    28368.955     7977.838        7.360        3.523      276.988       87.107        0.099      342.056       17.196      856.550
10/25/2014  05:18:00      -44.812     -272.789       -4.438      206.286      222.272       95.576    42553.886    49404.664     9134.701        8.875        5.055      276.445       74.795        0.073      342.207       17.452      856.588
10/25/2014  05:19:00     -178.184     -118.280       15.456      149.761      127.858       79.293    22428.219    16347.681     6287.439        4.551        2.253      213.869       76.864        0.129      342.028       17.149      856.603
10/25/2014  05:20:00     -169.133     -203.483      -20.155      121.444      145.528       61.142    14748.602    21178.493     3738.333        5.503        1.983      264.596       59.656        0.051      341.974       17.057      856.563
10/25/2014  05:21:00      -92.016     -208.032        7.925       94.623      115.603       47.811     8953.597    13364.149     2285.877        3.820        1.230      227.473       43.737        0.037      341.907       16.942      856.588
10/25/2014  05:22:00     -216.139     -227.666      -27.848      159.964      148.123       54.532    25588.463    21940.376     2973.687        7.490        2.525      313.924       61.376        0.038      341.954       17.022      856.529
10/25/2014  05:23:00     -210.526     -190.184      -13.450      139.020       95.805       64.153    19326.582     9178.633     4115.670        5.664        1.631      283.710       64.466        0.052      342.015       17.124      856.517
10/25/2014  05:24:00     -148.480     -107.066       13.460      149.590       86.296       56.263    22377.141     7446.971     3165.508        3.333        1.649      183.056       51.167        0.078      341.928       16.980      856.437
10/25/2014  05:25:00      -64.121      -60.357       15.592      122.891      111.672       57.712    15102.312    12470.585     3330.649        1.944        1.545       88.060       63.172        0.515      341.850       16.848      856.429
10/25/2014  05:26:00      -17.063     -170.985      -24.992      181.999      199.891       80.572    33123.514    39956.465     6491.795        5.485        3.979      171.834       76.071        0.196      341.936       16.995      856.386
10/25/2014  05:27:00      -41.305     -247.465        9.892      137.242      209.351       79.942    18835.441    43827.668     6390.684        6.603        3.453      250.889       63.428        0.064      342.159       17.370      856.289
10/25/2014  05:28:00      128.633     -230.100      -27.338      215.629      198.115      105.874    46495.943    39249.651    11209.392        8.358        4.848      263.614       91.210        0.120      342.109       17.286      856.260
10/25/2014  05:29:00      103.613     -296.334       40.759      259.036      371.066      196.504    67099.467   137690.267    38613.835       17.176       12.170      313.926      225.180        0.515      342.098       17.266      856.201
10/25/2014  05:30:00       59.287     -177.096       13.845      150.660      216.097       91.158    22698.398    46698.018     8309.729        5.637        3.885      186.756      109.980        0.347      342.072       17.224      856.285
10/25/2014  05:31:00      103.664     -296.068        6.158      183.059      168.533       98.999    33510.703    28403.519     9800.792        8.506        3.586      313.692       87.729        0.078      342.169       17.387      856.325
10/25/2014  05:32:00      -83.028     -206.738      -17.055      150.611      130.157       75.344    22683.770    16940.841     5676.663        4.760        2.265      222.787       49.728        0.050      342.116       17.296      856.196
10/25/2014  05:33:00       75.199      -78.265       67.232      147.010      183.727      105.944    21611.941    33755.459    11224.131        4.143        3.330      108.537      107.585        0.983      342.003       17.105      856.287
10/25/2014  05:34:00       36.379      -75.501       66.023      140.517      199.840      103.869    19744.980    39936.092    10788.760        4.091        3.523       83.808      108.623        1.680      341.993       17.090      856.283
10/25/2014  05:35:00       93.900     -252.440       22.532      137.375      196.253       87.334    18871.969    38515.368     7627.157        6.902        3.251      269.338       84.538        0.099      342.098       17.268      856.320
10/25/2014  05:36:00       81.074     -397.211      -15.386      184.699      233.030      123.187    34113.778    54302.820    15174.974       13.407        5.180      405.400      111.223        0.075      342.137       17.333      856.300
10/25/2014  05:37:00      -30.044     -236.471       10.171      188.527      229.046      104.312    35542.494    52461.961    10881.027        7.789        4.944      238.372       86.631        0.132      342.086       17.247      856.373
10/25/2014  05:38:00      110.469     -264.976       84.884      170.293      285.969      133.981    28999.708    81778.366    17950.884       10.915        6.436      287.081      156.678        0.298      342.071       17.222      856.310
10/25/2014  05:39:00        6.468     -174.176       -6.098       86.354      144.499       80.723     7457.066    20879.851     6516.279        3.263        1.743      174.296       70.563        0.164      342.023       17.141      856.331
10/25/2014  05:40:00       32.272     -147.738       47.498      147.692      144.213       92.148    21812.978    20797.361     8491.297        3.810        2.555      151.221       79.667        0.278      341.984       17.073      856.345
10/25/2014  05:41:00       33.043     -365.912       -1.493      253.933      246.861      106.225    64482.145    60940.383    11283.673       13.582        6.835      367.400      117.376        0.102      342.024       17.142      856.319
10/25/2014  05:42:00       68.223     -360.992       19.800      282.567      257.239      124.770    79844.164    66172.034    15567.550       14.844        8.079      367.382       96.112        0.068      342.080       17.238      856.303
10/25/2014  05:43:00     -162.391     -335.738      -10.058      184.856      188.730      102.398    34171.677    35618.899    10485.417       10.972        4.014      372.948       94.967        0.065      342.092       17.257      856.376
10/25/2014  05:44:00       17.264     -262.470       -5.882      159.068      272.422       88.873    25302.471    74213.894     7898.396        8.830        5.371      263.037       76.422        0.084      342.081       17.238      856.292
10/25/2014  05:45:00      -64.978      -28.357       90.322      165.990      180.248      129.009    27552.603    32489.187    16643.347        4.492        3.834       70.896      137.818        3.779      341.991       17.086      856.283
10/25/2014  05:46:00      -15.927     -223.742       38.760      156.568      215.483      109.069    24513.582    46432.983    11896.134        6.731        4.142      224.308      108.442        0.234      342.059       17.201      856.281
10/25/2014  05:47:00       60.993     -410.577       -1.964      222.202      310.017      140.806    49373.781    96110.538    19826.323       16.877        8.266      415.082      160.326        0.149      342.052       17.188      856.226
10/25/2014  05:48:00      188.588     -375.586       -2.024      291.360      346.173      138.607    84890.414   119835.600    19212.013       20.024       11.197      420.274      167.251        0.158      342.140       17.338      856.254
10/25/2014  05:49:00       52.219     -286.408       13.832      180.260      238.856      133.149    32493.602    57052.383    17728.706        9.609        5.364      291.129      121.696        0.175      342.115       17.295      856.256
10/25/2014  05:50:00       51.635     -196.237       85.002      208.279      248.488      132.699    43380.143    61746.270    17609.002        8.554        6.137      202.916      166.492        0.673      342.004       17.108      856.233
10/25/2014  05:51:00      203.558     -359.023      -22.764      228.144      186.273      110.617    52049.465    34697.542    12236.142       13.490        4.949      412.714      107.097        0.067      342.110       17.288      856.275
10/25/2014  05:52:00      105.073     -290.862       29.440      229.278      246.759      130.130    52568.443    60890.033    16933.943       11.342        6.520      309.259      137.835        0.199      342.053       17.191      856.262
10/25/2014  05:53:00       78.239     -213.244       32.328      139.853      253.829      138.263    19558.751    64429.091    19116.789        7.785        5.155      227.143      164.137        0.522      341.994       17.092      856.252
10/25/2014  05:54:00      165.981     -300.054       -5.546      179.009      203.276      117.875    32044.300    41320.941    13894.589       10.242        4.363      342.902      109.125        0.101      342.134       17.326      856.188
10/25/2014  05:55:00       34.518     -230.624        6.151      124.078      173.869      121.196    15395.367    30230.400    14688.553        5.735        3.016      233.193      106.979        0.210      342.043       17.175      856.222
10/25/2014  05:56:00      158.121     -340.783      -12.728      231.305      269.782      125.114    53501.975    72782.558    15653.464       14.159        7.097      375.680      122.638        0.107      342.096       17.265      856.312
10/25/2014  05:57:00      -97.882     -277.771        2.524      269.389      210.400      106.436    72570.304    44268.342    11328.632       10.743        6.408      294.513      108.532        0.136      342.149       17.353      856.310
10/25/2014  05:58:00       55.738     -190.294       34.745      136.027      162.096       86.055    18503.475    26274.996     7405.488        4.634        2.609      198.289       81.053        0.167      342.114       17.295      856.348
10/25/2014  05:59:00       -8.875      -52.383       14.695      125.775      109.167       71.313    15819.375    11917.492     5085.536        1.792        1.641       53.129       72.919        1.884      341.903       16.939      856.353
10/25/2014  06:00:00      175.354     -346.355       -9.056      171.798      198.194       91.686    29514.630    39280.882     8406.296       11.398        3.860      388.215       88.705        0.052      342.131       17.324      856.379
10/25/2014  06:01:00      112.026     -402.362      -13.130      229.648      329.786      130.815    52738.331   108758.887    17112.651       17.658        8.930      417.666      141.592        0.115      342.078       17.233      856.399
10/25/2014  06:02:00      313.120     -460.351      -34.543      216.107      260.838      114.955    46702.069    68036.688    13214.617       21.953        6.398      556.747       89.298        0.026      342.141       17.342      856.382
10/25/2014  06:03:00       94.893     -298.602      -15.651      156.424      148.247       93.118    24468.513    21977.304     8670.929        7.675        2.756      313.317       75.435        0.058      342.117       17.298      856.507
10/25/2014  06:04:00       14.629     -320.308      -14.015      161.246      144.858       85.348    26000.339    20983.741     7284.366        7.863        2.713      320.642       54.527        0.029      342.153       17.361      856.453
10/25/2014  06:05:00       62.993     -349.203        8.213      203.853      192.685      125.055    41556.018    37127.607    15638.688       11.013        4.716      354.839      111.231        0.098      342.095       17.261      856.432
10/25/2014  06:06:00       99.404     -414.727      -26.742      234.410      290.338      166.563    54948.069    84296.271    27743.075       17.476        8.349      426.473      166.911        0.153      342.090       17.254      856.458
10/25/2014  06:07:00      106.193     -264.100       45.278      118.862      251.466      123.183    14128.106    63235.233    15174.118        8.779        4.627      284.650      117.609        0.171      342.064       17.209      856.528
10/25/2014  06:08:00       59.641     -258.356        6.588      331.176      257.677      121.155   109677.374    66397.209    14678.417       13.051        9.538      265.151      135.512        0.261      342.078       17.233      856.535
10/25/2014  06:09:00       -4.454     -138.569       18.312      140.393      148.699       88.973    19710.274    22111.459     7916.137        3.464        2.487      138.640       66.559        0.230      342.048       17.182      856.500
10/25/2014  06:10:00      114.902     -267.502       -1.635      148.168      223.996       93.631    21953.754    50174.011     8766.732        8.281        4.045      291.135       92.774        0.102      341.989       17.082      856.506
10/25/2014  06:11:00       36.010     -231.628        7.587      160.071      188.955      107.510    25622.579    35703.990    11558.391        6.393        3.644      234.411      117.310        0.250      342.040       17.168      856.544
10/25/2014  06:12:00       75.841     -316.756       23.414      128.146      197.646       91.192    16421.416    39064.060     8315.924        8.520        3.190      325.709       63.238        0.038      342.065       17.209      856.549
10/25/2014  06:13:00       63.149     -273.902        3.778      165.075      222.696      101.860    27249.745    49593.329    10375.372        8.310        4.361      281.087      109.045        0.150      342.064       17.209      856.586
10/25/2014  06:14:00       41.031     -248.420       26.793      215.322      207.821      117.283    46363.464    43189.569    13755.252        8.369        5.165      251.785      112.956        0.201      342.010       17.118      856.520
10/25/2014  06:15:00       71.512     -111.556       88.502      124.129      213.846       97.033    15408.109    45729.978     9415.464        4.796        3.528      132.509      106.506        0.646      341.940       17.000      856.558
10/25/2014  06:16:00       46.031     -100.599       41.946      112.955      193.661       84.813    12758.816    37504.450     7193.167        3.572        2.873      110.630       95.300        0.742      341.913       16.954      856.591
10/25/2014  06:17:00      176.768     -314.825        3.239      197.304      231.073      109.799    38928.708    53394.893    12055.785       11.735        5.219      361.056      103.139        0.082      342.021       17.136      856.616
10/25/2014  06:18:00       30.162     -171.629        9.254      190.720      164.234      106.971    36374.105    26972.962    11442.708        5.261        3.739      174.259       95.957        0.303      341.942       17.002      856.599
10/25/2014  06:19:00      -24.799      -79.879       -4.296       99.119      119.215       53.596     9824.499    14212.249     2872.543        1.696        1.345       83.640       45.714        0.299      341.971       17.052      856.619
10/25/2014  06:20:00      -56.876     -121.507       20.890      139.839      136.061       83.148    19555.041    18512.477     6913.622        3.170        2.249      134.159       84.948        0.401      341.969       17.049      856.645
10/25/2014  06:21:00       46.681     -170.371       25.200      127.418      131.586       70.575    16235.346    17314.897     4980.768        3.518        1.927      176.650       66.688        0.143      341.987       17.079      856.687
10/25/2014  06:22:00       -9.266     -138.379        7.174      123.420      118.554       79.837    15232.384    14055.014     6373.936        2.747        1.783      138.689       64.622        0.217      341.996       17.095      856.737
10/25/2014  06:23:00       63.441     -196.398       10.841      133.142      163.136       87.255    17726.921    26613.295     7613.448        4.732        2.598      206.390       63.999        0.096      341.969       17.049      856.753
10/25/2014  06:24:00        4.747     -385.696       11.372      200.926      323.221      130.480    40371.277   104471.533    17025.010       15.536        8.093      385.725      137.049        0.126      342.073       17.224      856.726
10/25/2014  06:25:00       99.483     -234.753       22.784      226.608      253.854      125.664    51351.165    64441.945    15791.564        9.853        6.579      254.963      122.200        0.230      342.042       17.173      856.721
10/25/2014  06:26:00       30.943     -175.560       16.976      249.099      256.306       95.715    62050.560    65692.634     9161.353        8.446        6.845      178.266       54.949        0.095      341.996       17.094      856.712
10/25/2014  06:27:00       -1.515     -160.887        1.667      101.742      154.566       65.940    10351.504    23890.635     4348.050        3.223        1.930      160.894       58.900        0.134      341.973       17.058      856.847
10/25/2014  06:28:00      -87.258      -24.729       -8.675       94.909      101.563       48.492     9007.745    10315.098     2351.430        1.498        1.084       90.694       48.086        0.281      342.045       17.179      856.921
10/25/2014  06:29:00     -188.319     -126.052      -13.199      105.016       84.925       69.793    11028.319     7212.212     4871.036        3.731        1.156      226.612       54.015        0.057      342.005       17.110      856.902
10/25/2014  06:30:00     -155.212      -93.321       -2.932      122.572       89.505       43.541    15023.924     8011.101     1895.796        2.886        1.247      181.107       46.224        0.065      342.035       17.161      856.946
10/25/2014  06:31:00     -191.555     -176.913       -1.669      126.328      126.974       57.700    15958.708    16122.494     3329.266        5.170        1.771      260.752       45.966        0.031      342.040       17.166      856.953
10/25/2014  06:32:00     -143.683     -105.961       -9.502       79.107       59.422       47.679     6257.988     3530.942     2273.266        2.201        0.603      178.529       46.566        0.068      341.966       17.042      856.995
10/25/2014  06:33:00     -143.483      -18.110      -10.834       55.274       65.968       35.058     3055.254     4351.741     1229.047        1.483        0.432      144.621       24.673        0.029      341.977       17.063      857.049
10/25/2014  06:34:00        1.138       -9.158       21.824      146.893       87.452       58.552    21577.504     7647.835     3428.307        1.660        1.633        9.228       44.807       23.577      341.791       16.747      857.075
10/25/2014  06:35:00     -118.700     -254.831        6.700      120.394      195.939       70.759    14494.819    38392.248     5006.769        6.847        2.895      281.120       71.303        0.064      341.945       17.008      857.068
10/25/2014  06:36:00     -220.054     -155.655      -17.877       98.589       83.652       43.586     9719.817     6997.693     1899.740        4.579        0.931      269.541       32.560        0.015      341.879       16.894      857.064
10/25/2014  06:37:00     -246.101     -155.109       -5.824      115.349       93.684       57.207    13305.419     8776.620     3272.691        5.500        1.268      290.903       58.529        0.040      341.546       16.331      857.095
10/25/2014  06:38:00     -311.670      -27.852      -21.314      107.469      124.087       55.768    11549.690    15397.557     3110.119        6.421        1.503      312.912       49.518        0.025      341.416       16.109      857.066
10/25/2014  06:39:00     -202.267      -95.738      -14.473      121.597       78.056       60.152    14785.877     6092.738     3618.291        3.739        1.225      223.780       64.114        0.082      341.236       15.805      857.097
10/25/2014  06:40:00     -283.907      -24.846       -6.357      142.714      118.890       58.213    20367.368    14134.721     3388.740        5.957        1.895      284.992       54.612        0.037      341.327       15.959      857.169
10/25/2014  06:41:00     -300.071       25.112      -14.935      169.870       77.598       50.158    28855.698     6021.407     2515.852        6.414        1.870      301.120       57.166        0.036      341.254       15.837      857.159
10/25/2014  06:42:00      -91.899      -67.988       -1.291       92.738       50.527       34.906     8600.281     2553.005     1218.462        1.272        0.619      114.314       36.388        0.101      341.170       15.696      857.123
10/25/2014  06:43:00     -145.904      -79.366       -7.543       87.966       81.424       45.536     7737.993     6629.904     2073.548        2.204        0.822      166.093       48.714        0.086      341.120       15.610      857.092
10/25/2014  06:44:00     -221.216     -106.356       -4.638       99.516       79.818       51.340     9903.532     6370.865     2635.777        3.959        0.946      245.455       35.888        0.021      341.108       15.589      857.086
10/25/2014  06:45:00     -113.081      -62.179        1.875      114.113       71.247       44.096    13021.745     5076.186     1944.437        1.835        1.002      129.049       51.335        0.158      341.008       15.420      857.057
10/25/2014  06:46:00      -66.794      -46.379        8.829       81.844       58.155       37.743     6698.487     3382.001     1424.540        0.910        0.575       81.317       38.482        0.224      340.920       15.273      857.074
10/25/2014  06:47:00     -124.153      -57.685        0.039       82.093       67.807       46.192     6739.218     4597.843     2133.723        1.610        0.674      136.900       42.671        0.097      340.931       15.291      857.064
10/25/2014  06:48:00      -71.074     -156.544       -1.284       86.538       86.172       44.898     7488.827     7425.531     2015.807        2.324        0.847      171.923       50.280        0.086      340.986       15.382      857.113
10/25/2014  06:49:00      -56.480     -122.143       -1.650       77.516       93.071       43.428     6008.683     8662.161     1885.959        1.733        0.828      134.569       41.600        0.096      340.997       15.403      857.186
10/25/2014  06:50:00       21.509      -18.248       12.541       42.353       32.765       26.053     1793.743     1073.572      678.757        0.225        0.177       28.206       20.007        0.503      340.617       14.761      857.163
10/25/2014  06:51:00       58.482       -1.366       -3.209       30.354       26.195       19.586      921.357      686.166      383.611        0.271        0.100       58.498       14.936        0.065      340.372       14.346      857.077
10/25/2014  06:52:00       27.149      -13.004       20.320       28.145       47.639       27.208      792.138     2269.495      740.271        0.256        0.190       30.103       26.448        0.772      340.283       14.196      857.038
10/25/2014  06:53:00        3.454       48.265        6.723      130.141       56.478       52.141    16936.648     3189.819     2718.675        1.261        1.142       48.389       44.243        0.836      340.544       14.637      857.039
10/25/2014  06:54:00     -235.246      -88.235      -14.641       99.841       83.827       51.639     9968.160     7026.894     2666.616        4.150        0.983      251.249       49.812        0.039      340.844       15.142      857.036
10/25/2014  06:55:00     -102.454      -56.895       -0.742       78.416       73.581       41.325     6149.094     5414.213     1707.775        1.350        0.664      117.191       32.302        0.076      340.801       15.070      857.026
10/25/2014  06:56:00      -70.994      -24.970       -4.440       74.133       35.392       28.461     5495.712     1252.618      810.055        0.662        0.378       75.257       27.810        0.137      340.761       15.003      857.031
10/25/2014  06:57:00      -86.670      -62.237        4.299       81.411       73.611       45.045     6627.708     5418.630     2029.063        1.274        0.704      106.701       40.881        0.147      340.710       14.917      857.002
10/25/2014  06:58:00      -31.089       -6.030       20.206       93.151       55.610       43.080     8677.022     3092.452     1855.864        0.752        0.681       31.668       40.280        1.618      340.652       14.820      857.006
10/25/2014  06:59:00     -237.668       18.998      -19.716      108.497       83.212       47.693    11771.576     6924.302     2274.627        3.910        1.049      238.426       50.025        0.044      340.743       14.971      857.008
10/25/2014  07:00:00     -114.686      -86.138        4.755      114.302       66.520       54.337    13064.963     4424.951     2952.561        2.051        1.022      143.432       62.756        0.191      340.669       14.847      857.032
10/25/2014  07:01:00      -92.307      -92.549        5.556      105.445       83.115       44.559    11118.722     6908.104     1985.486        1.856        1.001      130.713       54.162        0.172      340.683       14.872      857.011
10/25/2014  07:02:00     -170.878      -26.827        2.914       87.779       79.369       42.871     7705.073     6299.365     1837.924        2.288        0.792      172.971       42.548        0.061      340.672       14.853      856.994
10/25/2014  07:03:00      -44.857      -48.057        2.822       53.067       31.611       19.120     2816.109      999.244      365.585        0.425        0.209       65.739       16.766        0.065      340.649       14.817      856.964
10/25/2014  07:04:00       -7.552     -121.836       10.543       30.264       39.336       26.217      915.910     1547.323      687.318        0.908        0.158      122.070       19.233        0.025      340.765       15.012      856.936
10/25/2014  07:05:00      -97.328      -13.798        2.965       64.227       48.592       27.108     4125.132     2361.179      734.821        0.845        0.361       98.301       29.380        0.089      340.679       14.866      856.918
10/25/2014  07:06:00     -185.002      -33.063        0.383       85.561       75.626       43.530     7320.715     5719.341     1894.836        2.512        0.747      187.933       48.391        0.066      340.652       14.819      856.911
10/25/2014  07:07:00     -111.962      -65.761       13.748      130.518       67.192       49.034    17034.960     4514.759     2404.320        2.050        1.198      129.846       58.832        0.205      340.628       14.778      856.982
10/25/2014  07:08:00      -31.725     -136.611        3.673       68.086       58.789       43.248     4635.747     3456.099     1870.379        1.482        0.498      140.247       32.102        0.052      340.686       14.879      857.049
10/25/2014  07:09:00       56.293     -138.107      -10.466      104.794       92.100       64.010    10981.746     8482.335     4097.221        2.295        1.178      149.139       64.358        0.186      340.565       14.672      857.027
10/25/2014  07:10:00       65.340     -133.040      -16.950       93.958      100.168       58.639     8828.171    10033.600     3438.487        2.227        1.115      148.219       61.517        0.172      340.499       14.559      857.049
10/25/2014  07:11:00      -13.000      -17.595       -9.547       56.160       31.452       19.972     3153.908      989.238      398.888        0.255        0.227       21.876       16.199        0.548      340.666       14.843      857.122
10/25/2014  07:12:00     -122.934      -59.305      -10.152       54.168       42.710       24.851     2934.213     1824.132      617.551        1.205        0.269      136.491       20.619        0.023      340.672       14.853      857.118
10/25/2014  07:13:00      -44.627      -37.286        4.202       68.148       37.839       24.979     4644.179     1431.797      623.951        0.505        0.335       58.154       27.369        0.221      340.577       14.694      857.082
10/25/2014  07:14:00      -92.281     -126.398        8.062       71.140       64.026       42.083     5060.842     4099.378     1771.004        1.774        0.547      156.499       42.299        0.073      340.857       15.167      857.111
10/25/2014  07:15:00      -65.554      -77.141        2.817       69.913       55.561       38.337     4887.768     3087.060     1469.741        0.985        0.472      101.233       35.325        0.122      340.693       14.890      857.174
10/25/2014  07:16:00       72.177     -170.948      -26.799      105.618      162.608       74.069    11155.174    26441.313     5486.211        3.911        2.154      185.560       79.214        0.182      340.737       14.962      857.098
10/25/2014  07:17:00      -63.471      -83.570       12.096       88.872       84.132       63.593     7898.223     7078.138     4044.066        1.509        0.951      104.940       32.463        0.096      340.846       15.147      857.033
10/25/2014  07:18:00      -40.067       -9.603        0.550       58.595       62.971       33.715     3433.390     3965.376     1136.709        0.511        0.427       41.201       23.468        0.324      340.768       15.015      857.149
10/25/2014  07:19:00      -50.368       16.392       -8.332       94.641       42.175       36.021     8956.858     1778.753     1297.478        0.745        0.602       52.968       33.099        0.390      340.661       14.836      857.167
10/25/2014  07:20:00      -97.000        1.745       -3.657       58.452       41.730       22.101     3416.636     1741.392      488.446        0.753        0.282       97.016       16.623        0.029      340.617       14.762      857.131
10/25/2014  07:21:00     -106.927     -203.339       -0.264       57.940      121.344       25.209     3357.095    14724.388      635.502        3.574        0.936      229.739       23.853        0.011      340.789       15.047      857.139
10/25/2014  07:22:00      -97.520     -182.085      -12.540       62.804       76.874       37.497     3944.377     5909.567     1406.035        2.704        0.563      206.555       29.499        0.020      340.910       15.254      857.120
10/25/2014  07:23:00     -108.484     -162.680       -0.438       89.091       62.531       39.987     7937.277     3910.157     1598.921        2.584        0.672      195.534       34.192        0.031      340.831       15.120      857.100
10/25/2014  07:24:00      -28.475      -74.272       -3.008       42.217       68.211       30.575     1782.255     4652.726      934.845        0.685        0.368       79.543       35.189        0.196      340.702       14.907      857.034
10/25/2014  07:25:00       -7.207      -36.996       13.075       40.015       70.257       34.704     1601.164     4935.979     1204.387        0.466        0.387       37.691       41.793        1.229      340.680       14.869      857.026
10/25/2014  07:26:00      -35.807      -66.466       20.619       75.706       57.832       46.570     5731.365     3344.521     2168.728        0.868        0.562       75.497       30.434        0.163      340.641       14.802      857.082
10/25/2014  07:27:00        0.429      -33.067       18.762       40.189       57.550       30.215     1615.148     3311.965      912.936        0.364        0.292       33.069       28.390        0.737      340.590       14.715      857.169
10/25/2014  07:28:00     -100.922     -262.244      -21.076       51.445      148.509       35.566     2646.591    22054.955     1264.907        5.268        1.298      280.993       24.519        0.008      340.841       15.136      857.212
10/25/2014  07:29:00     -167.431      -67.210       -9.445       67.558       71.374       36.767     4564.064     5094.253     1351.814        2.182        0.551      180.417       28.386        0.025      340.721       14.937      857.265
10/25/2014  07:30:00     -112.447      -27.994       -1.980      115.708       68.254       39.498    13388.369     4658.628     1560.053        1.652        0.980      115.880       42.061        0.132      340.613       14.752      857.281
10/25/2014  07:31:00     -122.070      -58.094        5.362      126.949      106.577       54.917    16116.063    11358.604     3015.894        2.439        1.525      135.189       55.784        0.170      340.617       14.758      857.218
10/25/2014  07:32:00     -207.717      -46.883        4.211       98.139       68.375       48.970     9631.354     4675.135     2398.063        3.103        0.835      212.942       52.205        0.060      340.657       14.826      857.220
10/25/2014  07:33:00     -142.094     -123.977       14.583      142.191      103.662       51.207    20218.365    10745.901     2622.189        3.467        1.679      188.576       72.030        0.146      340.655       14.824      857.282
10/25/2014  07:34:00     -318.226     -173.755       -2.773      123.681      104.834       56.596    15297.044    10990.184     3203.139        8.047        1.475      362.572       52.610        0.021      340.703       14.905      857.337
10/25/2014  07:35:00     -193.711     -136.070       -2.539       80.404       72.154       46.637     6464.758     5206.183     2175.022        3.494        0.692      236.726       35.595        0.023      340.702       14.902      857.371
10/25/2014  07:36:00     -255.671     -173.162      -15.425      135.560       85.219       50.764    18376.452     7262.348     2577.026        6.190        1.411      308.792       60.762        0.039      340.677       14.858      857.420
10/25/2014  07:37:00     -297.120     -244.592       19.215      200.369      181.061      103.920    40147.589    32782.956    10799.305       11.609        4.186      384.845      117.758        0.094      340.759       14.999      857.415
10/25/2014  07:38:00     -240.606     -109.378      -18.036      131.136       78.376       46.704    17196.618     6142.764     2181.220        4.785        1.276      264.301       44.503        0.028      340.709       14.915      857.450
10/25/2014  07:39:00     -214.707     -120.778      -16.317       89.878       78.349       50.286     8078.064     6138.521     2528.722        3.885        0.837      246.346       44.730        0.033      340.706       14.909      857.451
10/25/2014  07:40:00     -217.133     -119.963      -14.774      114.400       81.965       53.170    13087.272     6718.326     2827.047        4.219        1.132      248.068       44.058        0.032      340.651       14.817      857.450
10/25/2014  07:41:00     -266.266      -33.654        9.114      147.183      130.571       70.325    21662.974    17048.911     4945.598        5.788        2.183      268.384       72.092        0.072      340.712       14.919      857.430
10/25/2014  07:42:00     -352.506      -85.332      -16.433      148.095      150.808       73.695    21932.119    22742.983     5430.938        9.095        2.505      362.687       69.125        0.036      340.839       15.135      857.443
10/25/2014  07:43:00     -225.024     -123.644       -7.216      152.070      108.764       55.989    23125.283    11829.512     3134.734        5.203        1.904      256.756       60.840        0.056      340.853       15.156      857.481
10/25/2014  07:44:00     -380.303     -160.809      -28.120      152.677      106.489       64.251    23310.291    11339.945     4128.238       10.502        1.939      412.905       55.138        0.018      340.867       15.181      857.535
10/25/2014  07:45:00     -329.320      -97.937      -19.862      166.331      100.064       63.267    27666.100    10012.840     4002.731        8.005        2.084      343.574       66.921        0.038      340.904       15.244      857.578
10/25/2014  07:46:00     -344.796      -93.379      -22.250      143.977      103.042       64.194    20729.288    10617.708     4120.878        8.178        1.773      357.217       65.020        0.033      340.851       15.154      857.580
10/25/2014  07:47:00     -363.137      -61.103      -16.956      140.112      177.939       80.613    19631.377    31662.198     6498.500        9.683        2.890      368.242       77.606        0.044      340.818       15.097      857.610
10/25/2014  07:48:00     -484.096      -68.262      -34.024      155.341      153.554       72.459    24130.742    23578.679     5250.262       14.655        2.648      488.885       82.801        0.029      340.845       15.143      857.588
10/25/2014  07:49:00     -389.230     -150.295      -13.484      215.107      163.853       92.453    46270.929    26847.664     8547.577       12.795        4.083      417.240      103.833        0.062      340.813       15.090      857.600
10/25/2014  07:50:00     -421.779     -173.959      -14.300      182.806      142.524       78.233    33418.133    20312.969     6120.445       13.410        2.993      456.245       80.133        0.031      340.790       15.051      857.598
10/25/2014  07:51:00     -489.322      -56.613      -39.411      136.667      125.136       63.338    18677.978    15658.964     4011.718       14.126        1.917      492.586       64.511        0.017      340.817       15.095      857.664
10/25/2014  07:52:00     -227.178      -67.352       -3.544      143.538       89.398       53.269    20603.247     7992.035     2837.534        4.379        1.572      236.952       67.134        0.080      340.832       15.121      857.718
10/25/2014  07:53:00     -312.976      -50.361      -41.363      144.116      139.268       76.910    20769.560    19395.540     5915.123        7.413        2.304      317.002       86.235        0.074      340.898       15.231      857.683
10/25/2014  07:54:00     -270.004      -79.887       -1.515      141.559      126.206       67.046    20038.811    15927.863     4495.159        5.987        2.023      281.574       69.643        0.061      340.856       15.162      857.706
10/25/2014  07:55:00     -264.901      -48.374      -11.210      145.961      112.276       60.083    21304.527    12605.934     3609.971        5.507        1.876      269.281       68.013        0.064      340.903       15.243      857.746
10/25/2014  07:56:00     -216.862      -23.244        1.614      111.051       84.395       60.109    12332.417     7122.444     3613.135        3.532        1.153      218.104       61.582        0.080      340.933       15.292      857.746
10/25/2014  07:57:00     -177.206      -45.849       -0.251      104.825       69.050       47.203    10988.327     4767.944     2228.161        2.574        0.899      183.041       56.284        0.095      340.922       15.274      857.686
10/25/2014  07:58:00     -292.294      -61.078        8.694      145.035      130.474       64.474    21035.110    17023.376     4156.931        6.572        2.111      298.608       70.979        0.057      340.790       15.051      857.621
10/25/2014  07:59:00     -396.171      -16.348      -28.655      192.415      121.903       69.940    37023.598    14860.301     4891.581       10.740        2.839      396.508       84.495        0.045      340.834       15.125      857.634
10/25/2014  08:00:00     -317.223     -110.174       -8.938      115.608      125.802       54.220    13365.096    15826.179     2939.768        7.248        1.607      335.810       55.616        0.027      340.862       15.172      857.638
10/25/2014  08:01:00     -377.903     -109.970      -12.353      153.573      148.036       67.305    23584.558    21914.781     4529.903       10.253        2.501      393.579       71.314        0.033      340.849       15.150      857.673
10/25/2014  08:02:00     -464.585     -116.519       -6.811      131.000      126.784       74.212    17161.128    16074.227     5507.458       13.409        1.937      478.974       66.945        0.020      340.826       15.111      857.692
10/25/2014  08:03:00     -380.312      -72.650      -17.207      121.651       95.278       59.309    14798.931     9077.810     3517.553        8.880        1.370      387.189       58.164        0.023      340.811       15.086      857.722
10/25/2014  08:04:00     -219.141      -74.267      -14.195       86.946       97.209       41.067     7559.594     9449.537     1686.473        3.621        0.935      231.384       43.435        0.035      340.805       15.075      857.724
10/25/2014  08:05:00     -127.204      -49.826        1.245       95.294       63.176       42.776     9080.859     3991.157     1829.815        1.678        0.745      136.614       44.077        0.104      340.828       15.116      857.704
10/25/2014  08:06:00     -143.215      -48.114        3.355       73.029       46.603       34.228     5333.252     2171.867     1171.577        1.576        0.434      151.081       29.604        0.038      340.842       15.141      857.705
10/25/2014  08:07:00     -157.145      -45.175       10.439      107.576       58.986       42.420    11572.600     3479.353     1799.459        2.184        0.843      163.510       51.416        0.099      340.865       15.179      857.741
10/25/2014  08:08:00     -102.014      -70.663       -0.647       69.892       46.059       32.586     4884.896     2121.405     1061.863        1.173        0.403      124.097       23.769        0.037      340.925       15.281      857.832
10/25/2014  08:09:00     -228.111     -159.287       -8.262      104.414      106.690       58.782    10902.315    11382.810     3455.278        5.160        1.287      278.221       57.753        0.043      341.010       15.422      857.869
10/25/2014  08:10:00     -314.748     -139.321       -6.855      136.048      139.325       57.856    18509.042    19411.533     3347.309        7.989        2.063      344.204       66.138        0.037      340.983       15.376      857.838
10/25/2014  08:11:00     -205.658      -66.933       -4.593       75.416       79.784       42.632     5687.631     6365.531     1817.527        3.033        0.694      216.275       32.103        0.022      340.993       15.393      857.818
10/25/2014  08:12:00     -201.293     -116.523        2.577      109.234       86.916       51.602    11932.068     7554.316     2662.719        3.812        1.107      232.587       52.086        0.050      341.033       15.461      857.876
10/25/2014  08:13:00     -267.466     -167.317      -11.628      102.025       75.115       59.768    10409.137     5642.273     3572.222        5.964        0.981      315.488       48.672        0.024      341.063       15.512      857.900
10/25/2014  08:14:00     -278.198     -118.362      -22.384       59.848       65.774       34.978     3581.744     4326.279     1223.465        5.052        0.457      302.330       30.177        0.010      341.055       15.501      857.948
10/25/2014  08:15:00     -226.139     -154.935       -2.128       84.139       78.034       52.095     7079.298     6089.275     2713.933        4.551        0.794      274.124       52.960        0.037      341.017       15.435      857.941
10/25/2014  08:16:00     -216.645     -173.699       -5.348      103.136       75.633       57.371    10636.948     5720.301     3291.389        4.839        0.982      277.680       60.730        0.048      340.999       15.404      857.938
10/25/2014  08:17:00     -184.585     -108.046       -7.630       85.879       71.526       35.324     7375.275     5115.943     1247.782        2.977        0.687      213.883       38.478        0.032      341.000       15.406      857.936
10/25/2014  08:18:00     -203.327     -155.739        2.030      114.991       86.649       46.566    13222.878     7507.989     2168.386        4.425        1.145      256.119       45.194        0.031      340.986       15.383      857.925
10/25/2014  08:19:00      -68.856     -226.875       13.287       84.083       90.546       37.205     7070.012     8198.542     1384.184        3.652        0.833      237.093       24.024        0.010      340.998       15.404      857.962
10/25/2014  08:20:00        1.656      -59.078       39.908       73.067      176.411       57.045     5338.855    31120.888     3254.125        2.239        1.986       59.101       73.166        1.533      340.949       15.322      857.897
10/25/2014  08:21:00     -165.980      -72.366       -8.387      107.178      121.569       54.610    11487.038    14779.099     2982.301        3.105        1.462      181.070       36.417        0.040      340.974       15.365      857.820
10/25/2014  08:22:00     -243.327      -98.981        1.615      119.514       88.850       51.126    14283.490     7894.264     2613.839        4.689        1.240      262.688       51.888        0.039      340.971       15.357      857.840
10/25/2014  08:23:00     -311.136      -76.703      -21.680      146.230      115.375       68.205    21383.104    13311.347     4651.966        7.124        1.967      320.451       66.836        0.044      340.968       15.353      857.804
10/25/2014  08:24:00     -111.179      -63.909        5.612       94.380       77.355       43.177     8907.670     5983.751     1864.236        1.661        0.838      128.238       46.218        0.130      341.044       15.482      857.853
10/25/2014  08:25:00     -131.496       32.204       10.561      150.111       57.465       37.880    22533.182     3302.192     1434.895        2.285        1.364      135.382       60.870        0.202      341.084       15.550      857.822
10/25/2014  08:26:00     -194.964      -59.665       -3.843       98.979       91.398       57.249     9796.901     8353.549     3277.456        3.150        1.071      203.889       54.234        0.071      341.044       15.481      857.774
10/25/2014  08:27:00     -132.028      -42.672       -2.761       84.742       53.458       34.651     7181.280     2857.797     1200.676        1.525        0.562      138.753       37.598        0.073      341.101       15.579      857.794
10/25/2014  08:28:00      -49.800     -164.954       18.658       51.435       86.529       47.286     2645.578     7487.313     2235.924        2.120        0.618      172.307       41.484        0.058      341.182       15.715      857.875
10/25/2014  08:29:00      -28.307     -121.101        1.985       95.972       65.851       38.845     9210.678     4336.408     1508.925        1.526        0.753      124.366       25.086        0.041      341.088       15.556      857.864
10/25/2014  08:30:00     -142.920      -86.774        2.416      129.463       73.334       47.584    16760.706     5377.935     2264.254        2.618        1.220      167.200       41.175        0.061      341.099       15.574      857.800
10/25/2014  08:31:00     -120.862     -151.689       -1.121       87.806       98.753       40.707     7709.977     9752.117     1657.058        2.836        0.956      193.951       42.069        0.047      341.119       15.608      857.821
10/25/2014  08:32:00      -87.734      -40.479       17.781       90.560       75.820       42.500     8201.097     5748.709     1806.292        1.270        0.788       96.622       40.768        0.178      341.086       15.554      857.771
10/25/2014  08:33:00      -38.107      -32.669       17.571       61.348       48.585       25.075     3763.638     2360.530      628.748        0.479        0.338       50.193       33.047        0.433      341.162       15.685      857.754
10/25/2014  08:34:00      -30.625       -2.479       -9.256       67.929       43.000       26.619     4614.350     1849.000      708.571        0.410        0.359       30.725       24.598        0.641      340.957       15.335      857.789
10/25/2014  08:35:00     -106.826      -70.832        5.461       65.338       50.570       30.947     4269.081     2557.285      957.690        1.212        0.389      128.176       33.064        0.067      341.193       15.735      857.786
10/25/2014  08:36:00     -117.031     -128.233       -4.544      112.276       67.096       43.655    12605.849     4501.845     1905.797        2.458        0.951      173.609       48.875        0.079      341.253       15.835      857.839
10/25/2014  08:37:00     -139.729      -87.837        4.580      137.795      103.604       53.327    18987.516    10733.873     2843.764        2.991        1.628      165.044       52.607        0.102      341.346       15.994      857.869
10/25/2014  08:38:00     -107.135      -76.087       13.992      123.163       92.821       53.547    15169.021     8615.763     2867.258        2.205        1.333      131.404       51.380        0.153      341.350       16.001      857.787
10/25/2014  08:39:00      -23.517      -55.249       -0.899       96.622      108.235       53.135     9335.753    11714.890     2823.295        1.374        1.194       60.046       63.857        1.131      341.071       15.530      857.861
10/25/2014  08:40:00     -142.602     -103.055       13.336      115.659      123.336       53.324    13377.039    15211.655     2843.461        3.128        1.572      175.943       56.250        0.102      341.438       16.148      857.923
10/25/2014  08:41:00      -73.291     -253.802       14.664      111.252      143.661       84.017    12377.106    20638.536     7058.802        5.503        2.004      264.173       72.380        0.075      341.416       16.111      857.851
10/25/2014  08:42:00      104.675     -158.265       31.910      145.360      191.905       86.586    21129.452    36827.651     7497.174        5.123        3.273      189.749       98.883        0.272      341.606       16.433      857.942
10/25/2014  08:43:00       13.069      -73.095       51.863       91.577      120.157       88.217     8386.256    14437.710     7782.327        1.940        1.530       74.254       92.512        1.552      341.655       16.517      857.939
10/25/2014  08:44:00       41.885      -93.211       33.537      123.711      120.341       84.323    15304.528    14481.886     7110.286        2.422        1.845      102.189       71.850        0.494      341.653       16.513      857.844
10/25/2014  08:45:00       57.411      -39.232       42.319       77.512       86.831       63.890     6008.109     7539.679     4081.902        1.212        0.881       69.535       57.069        0.674      341.627       16.470      857.812
10/25/2014  08:46:00       60.269     -185.037       34.101      146.270      160.638       82.194    21394.847    25804.499     6755.891        4.648        2.698      194.605       77.220        0.157      341.617       16.452      857.814
10/25/2014  08:47:00       26.907     -123.816       23.042       92.109      123.756       63.942     8484.045    15315.640     4088.590        2.223        1.394      126.706       63.277        0.249      341.669       16.540      857.779
10/25/2014  08:48:00      -30.802      -86.083       -1.132       95.954       84.026       51.719     9207.248     7060.409     2674.884        1.365        0.947       91.428       34.599        0.143      341.555       16.350      857.723
10/25/2014  08:49:00      -42.904      -89.987       30.146      113.958      104.422       71.085    12986.366    10904.042     5053.022        1.989        1.447       99.692       66.460        0.444      341.554       16.345      857.608
10/25/2014  08:50:00        6.147     -106.050       -1.305      111.550       83.534       52.295    12443.502     6977.983     2734.816        1.672        1.108      106.228       43.164        0.165      341.573       16.378      857.662
10/25/2014  08:51:00      116.810     -222.234      -21.433      162.165      207.373      103.242    26297.490    43003.647    10658.831        7.171        3.998      251.062       90.664        0.130      341.639       16.490      857.717
10/25/2014  08:52:00      119.120     -243.241       -7.890      124.977      132.923       83.837    15619.373    17668.590     7028.613        5.686        2.016      270.842       67.503        0.062      341.579       16.386      857.693
10/25/2014  08:53:00       45.925     -130.014       26.469      100.307      142.606       74.031    10061.496    20336.333     5480.633        2.779        1.794      137.887       88.265        0.410      341.664       16.533      857.671
10/25/2014  08:54:00       19.594     -129.095      -29.333      155.401      101.591       46.192    24149.611    10320.661     2133.685        2.725        1.830      130.573       55.903        0.183      341.684       16.565      857.674
10/25/2014  08:55:00       22.758     -149.219        1.723      130.290      123.482       40.425    16975.436    15247.781     1634.212        2.832        1.693      150.944       22.463        0.022      341.625       16.466      857.675
10/25/2014  08:56:00      -53.369     -185.532       28.545      146.098      206.474      105.299    21344.594    42631.484    11087.930        5.656        3.753      193.056      116.582        0.365      341.698       16.589      857.733
10/25/2014  08:57:00        2.228     -232.410        8.497      133.130      259.738       96.298    17723.720    67463.868     9273.246        7.426        4.723      232.420      135.056        0.338      341.738       16.657      857.702
10/25/2014  08:58:00      112.201     -123.233       37.755      173.115      212.889       87.442    29968.939    45321.552     7646.153        5.605        4.147      166.659      119.008        0.510      341.645       16.499      857.706
10/25/2014  08:59:00      148.385     -100.551       36.038      240.016      167.100      112.046    57607.464    27922.244    12554.284        6.574        4.904      179.244      116.735        0.424      341.721       16.629      857.644
10/25/2014  09:00:00      258.704     -311.996      -10.010      164.285      242.752      165.152    26989.467    58928.664    27275.305       13.876        5.660      405.302      180.541        0.198      341.690       16.574      857.578
10/25/2014  09:01:00      -54.807      -48.649       27.584      134.040      106.247       69.059    17966.851    11288.425     4769.198        2.007        1.701       73.284       71.060        0.940      341.807       16.776      857.573
10/25/2014  09:02:00      171.433     -152.159       47.463      195.740      208.096      112.992    38314.163    43303.950    12767.089        7.457        4.719      229.220      135.223        0.348      341.820       16.796      857.629
10/25/2014  09:03:00       91.060     -153.411       68.731      147.126      220.879      149.137    21646.022    48787.419    22241.822        6.459        4.634      178.401      163.049        0.835      341.855       16.854      857.602
10/25/2014  09:04:00       76.838     -133.793       41.535      193.288      211.063      119.729    37360.112    44547.533    14335.135        6.087        4.812      154.288      145.013        0.883      341.776       16.722      857.611
10/25/2014  09:05:00      127.996     -161.256       72.403      190.791      236.469      119.660    36401.350    55917.446    14318.417        7.711        5.332      205.880      145.874        0.502      341.864       16.872      857.556
10/25/2014  09:06:00       49.570        4.119       70.318       84.809      152.250       89.643     7192.515    23180.194     8035.954        2.291        1.920       49.741      104.693        4.430      341.770       16.711      857.574
10/25/2014  09:07:00       43.803      -85.716       49.002      117.107      190.773      137.745    13713.940    36394.487    18973.639        4.036        3.454       96.260      145.496        2.285      341.849       16.846      857.553
10/25/2014  09:08:00       87.211     -132.091       80.801      118.591      216.125      122.534    14063.920    46710.017    15014.625        5.367        3.789      158.284      142.675        0.812      341.763       16.698      857.461
10/25/2014  09:09:00      136.730     -352.415       44.692      247.505      434.396      156.440    61258.813   188699.914    24473.442       20.961       13.722      378.010      224.583        0.353      341.806       16.772      857.520
10/25/2014  09:10:00      165.779     -314.282       35.835      220.656      225.730      150.045    48688.876    50954.238    22513.629       12.482        6.108      355.325      144.619        0.166      341.867       16.876      857.632
10/25/2014  09:11:00       75.492     -187.370       78.853      143.470      320.790      141.068    20583.575   102906.148    19900.146        9.518        7.169      202.006      180.627        0.800      341.815       16.787      857.619
10/25/2014  09:12:00      139.295     -196.939       27.397      139.660      239.455      125.703    19504.972    57338.793    15801.175        7.577        4.632      241.222      148.510        0.379      341.620       16.456      857.629
10/25/2014  09:13:00      139.022     -107.976       56.668      193.665      205.196      107.142    37506.105    42105.285    11479.308        6.263        4.555      176.028      116.371        0.437      341.871       16.883      857.650
10/25/2014  09:14:00      157.385     -226.952       54.129      228.387      253.765      136.675    52160.516    64396.804    18679.955       10.720        6.762      276.183      111.481        0.163      341.846       16.840      857.602
10/25/2014  09:15:00      165.301     -171.206      104.646      209.075      294.178      171.241    43712.287    86540.957    29323.556       11.355        7.979      237.983      190.147        0.638      341.885       16.905      857.515
10/25/2014  09:16:00       78.123      -37.055      129.298      178.167      188.334      147.260    31743.602    35469.842    21685.462        5.653        4.445       86.466      132.999        2.366      341.961       17.035      857.556
10/25/2014  09:17:00      136.365     -213.620       76.120      193.485      191.874      120.426    37436.504    36815.675    14502.538        7.937        4.438      253.434       90.376        0.127      341.854       16.853      857.551
10/25/2014  09:18:00       19.133     -162.364       14.531      129.342      172.090       91.396    16729.463    29614.818     8353.285        4.081        2.735      163.487       84.619        0.268      341.893       16.919      857.545
10/25/2014  09:19:00       91.380     -299.164        1.939      176.804      191.643      114.162    31259.617    36726.880    13032.858        8.942        4.051      312.809      108.119        0.119      341.856       16.855      857.447
10/25/2014  09:20:00      150.532     -231.077       20.812      154.402      246.456      100.071    23840.115    60740.405    10014.123        8.552        4.730      275.784      112.722        0.167      341.915       16.959      857.392
10/25/2014  09:21:00      266.534     -290.556        6.500      232.024      236.954      144.865    53834.991    56147.240    20985.949       14.321        6.548      394.288      134.590        0.117      341.853       16.850      857.393
10/25/2014  09:22:00      420.503     -439.040      -54.914      201.084      170.869      100.910    40434.757    29196.325    10182.915       22.619        3.991      607.931       89.887        0.022      341.746       16.670      857.488
10/25/2014  09:23:00      157.240     -108.751       66.747      210.806      287.462      152.732    44439.216    82634.663    23327.073        9.567        7.520      191.184      173.120        0.820      341.838       16.826      857.360
10/25/2014  09:24:00      200.559     -233.591        5.914      171.860      206.282      142.656    29535.776    42552.271    20350.810        9.361        4.622      307.878      138.708        0.203      341.899       16.928      857.393
10/25/2014  09:25:00      229.842     -270.879      -11.131      236.134      267.174      133.199    55759.096    71381.997    17741.999       13.558        7.244      355.250      176.963        0.248      341.858       16.861      857.407
10/25/2014  09:26:00      175.733      -65.097      170.340      259.682      403.676      214.658    67434.626   162954.247    46077.969       17.025       13.823      187.403      262.340        1.960      341.905       16.940      857.352
10/25/2014  09:27:00      146.473     -153.925       55.526      212.811      248.111      175.907    45288.486    61559.134    30943.225        9.298        6.890      212.479      183.417        0.745      341.916       16.957      857.428
10/25/2014  09:28:00      223.557     -324.182       26.299      174.036      303.332      129.998    30288.483    92010.116    16899.433       14.745        6.960      393.792      158.188        0.161      341.849       16.843      857.485
10/25/2014  09:29:00      250.154     -434.548        0.081      176.505      253.477      123.745    31154.048    64250.608    15312.931       18.104        5.536      501.407      138.604        0.076      341.838       16.825      857.504
10/25/2014  09:30:00       95.611      -97.379      113.986      158.532      206.764      134.341    25132.523    42751.291    18047.421        5.876        4.297      136.470      130.484        0.914      342.011       17.120      857.472
10/25/2014  09:31:00      -27.192       33.224       71.526       65.010       83.138       82.402     4226.283     6911.938     6790.024        1.244        0.896       42.932       67.665        2.484      342.036       17.163      857.461
10/25/2014  09:32:00       36.522     -154.475       27.611      129.916      168.949       97.745    16878.129    28543.670     9554.049        4.046        2.749      158.734      107.125        0.455      342.082       17.242      857.517
10/25/2014  09:33:00      419.263     -310.776       67.703      319.691      298.151      184.400   102202.568    88893.882    34003.250       25.098       11.255      521.884      198.543        0.145      341.860       16.861      857.232
10/25/2014  09:34:00       35.691     -229.272       22.588      233.564      182.168      112.497    54552.094    33185.082    12655.553        7.735        5.020      232.033       97.241        0.176      341.994       17.091      857.532
10/25/2014  09:35:00      -32.017     -174.233       24.703       91.417      144.918       84.976     8357.101    21001.155     7220.853        3.428        1.829      177.151       76.322        0.186      341.970       17.051      857.580
10/25/2014  09:36:00       42.904     -354.707       -9.414      170.106      188.336       98.513    28935.885    35470.267     9704.755       10.091        3.706      357.292       81.092        0.052      341.908       16.944      857.573
10/25/2014  09:37:00      105.938      -91.382       54.491      139.825      196.240       96.318    19551.170    38510.064     9277.133        4.493        3.367      139.906      116.066        0.688      341.926       16.975      857.525
10/25/2014  09:38:00       55.444     -127.218      -17.492      171.443      201.249      114.505    29392.700    40501.248    13111.359        5.127        4.150      138.775      125.156        0.813      341.924       16.974      857.449
10/25/2014  09:39:00      151.730     -179.638       98.032      214.317      310.801      160.726    45931.571    96597.192    25832.802       11.660        8.418      235.141      198.865        0.715      342.004       17.106      857.474
10/25/2014  09:40:00      169.708     -163.029       28.942      192.204      234.383      132.213    36942.463    54935.594    17480.263        8.277        5.468      235.328      150.549        0.409      342.029       17.151      857.513
10/25/2014  09:41:00      138.286      -25.278      100.462      151.422      164.774      110.856    22928.755    27150.467    12289.159        4.610        3.118      140.578      126.758        0.813      341.990       17.084      857.491
10/25/2014  09:42:00      225.162     -285.881       33.785      203.907      275.753      153.372    41578.058    76039.781    23523.094       13.733        7.057      363.904      156.244        0.184      341.924       16.971      857.397
10/25/2014  09:43:00      204.043     -286.954       59.176      164.377      295.976      167.110    27019.677    87601.648    27925.739       13.498        7.127      352.102      198.531        0.318      341.934       16.987      857.474
10/25/2014  09:44:00      229.873     -468.608      -30.042      226.265      332.654      145.804    51195.700   110658.359    21258.898       22.819        9.156      521.953      171.157        0.108      341.879       16.895      857.550
10/25/2014  09:45:00      181.354     -196.646       62.182      214.146      289.674      182.636    45858.333    83910.761    33355.748       11.924        8.156      267.505      217.650        0.662      341.888       16.910      857.483
10/25/2014  09:46:00      129.286      -18.869      105.460      166.425      217.615      139.702    27697.334    47356.495    19516.657        6.136        4.729      130.655      169.007        1.673      341.993       17.090      857.443
10/25/2014  09:47:00      224.701     -415.726       22.333      225.832      333.238      147.949    50999.990   111047.383    21888.855       20.384        9.197      472.566      199.472        0.178      341.909       16.946      857.461
10/25/2014  09:48:00      238.802     -270.355       56.502      273.696      352.753      168.159    74909.494   124434.982    28277.459       18.042       11.381      360.719      217.212        0.363      342.005       17.109      857.501
10/25/2014  09:49:00       20.094      -11.409      182.491      192.709      227.881      132.682    37136.679    51929.814    17604.392        7.023        5.334       23.107      158.844       47.255      342.110       17.287      857.472
10/25/2014  09:50:00      141.210     -124.744       41.833      135.182      207.852      105.184    18274.195    43202.357    11063.606        5.488        3.627      188.418      126.903        0.454      342.078       17.233      857.527
10/25/2014  09:51:00      122.793     -177.793       94.399      208.752      351.851      189.533    43577.421   123799.038    35922.741       12.941       10.165      216.075      236.605        1.199      342.040       17.167      857.468
10/25/2014  09:52:00      129.226     -203.786       30.920      223.772      187.562      128.274    50073.732    35179.328    16454.254        8.043        5.085      241.305      110.764        0.211      342.093       17.258      857.465
10/25/2014  09:53:00      -16.550     -140.836       70.492      121.830      235.076      111.666    14842.516    55260.603    12469.297        5.381        4.129      141.805      119.334        0.708      342.102       17.274      857.389
10/25/2014  09:54:00      263.251     -420.585       -7.246      273.186      301.967      163.013    74630.754    91184.208    26573.080       21.928        9.619      496.178      186.048        0.141      342.053       17.191      857.379
10/25/2014  09:55:00      186.204     -385.361       84.342      254.051      365.590      182.972    64541.743   133655.900    33478.769       21.094       11.584      427.990      215.508        0.254      342.084       17.243      857.366
10/25/2014  09:56:00       48.402     -118.178      100.531      180.983      233.169      144.167    32754.870    54367.964    20784.092        6.714        5.395      127.706      152.882        1.433      342.169       17.389      857.428
10/25/2014  09:57:00       97.323     -126.633       71.026      175.152      196.913      101.619    30678.373    38774.731    10326.485        5.515        3.989      159.712      128.467        0.647      342.220       17.475      857.458
10/25/2014  09:58:00      128.532     -185.821       56.217      150.979      183.958      124.393    22794.732    33840.712    15473.559        6.315        3.605      225.943      130.786        0.335      342.117       17.300      857.392
10/25/2014  09:59:00       79.931      -45.260      117.645      133.197      246.653      137.386    17741.510    60837.678    18874.922        5.985        4.873       91.855      152.647        2.762      342.079       17.233      857.362
10/25/2014  10:00:00       -0.100      -78.978       89.474      115.995      171.352      119.742    13454.948    29361.382    14338.129        3.569        2.858       78.978      105.274        1.777      342.316       17.638      857.423
10/25/2014  10:01:00       71.297     -199.985       36.701      152.059      246.149       95.782    23121.943    60589.085     9174.190        6.964        4.644      212.314      109.431        0.266      342.092       17.258      857.463
10/25/2014  10:02:00      110.280      -24.437      170.726      198.034      298.392      174.383    39217.293    89038.049    30409.264       10.025        7.933      112.955      215.480        3.639      342.160       17.373      857.490
10/25/2014  10:03:00      266.719     -408.466       25.427      225.114      224.351      140.037    50676.102    50333.514    19610.470       17.960        6.031      487.835      114.402        0.055      341.981       17.068      857.539
10/25/2014  10:04:00      105.022     -192.237       69.210      144.366      297.188      140.914    20841.455    88320.850    19856.795        9.087        6.451      219.054      182.679        0.695      342.088       17.248      857.538
10/25/2014  10:05:00       23.621      -64.951       21.228       89.467      162.881       60.053     8004.372    26530.156     3606.362        2.168        1.907       69.113       64.768        0.878      342.132       17.328      857.512
10/25/2014  10:06:00       76.765      -84.590       56.070      124.759      213.713      146.753    15564.806    45673.206    21536.338        4.947        4.139      114.230      141.167        1.527      342.166       17.384      857.479
10/25/2014  10:07:00      208.301     -228.405       73.477      275.419      348.865      207.202    75855.889   121706.893    42932.491       17.068       12.025      309.125      233.788        0.572      342.100       17.270      857.425
10/25/2014  10:08:00      120.740      -59.689      128.318      180.978      243.376      151.042    32753.025    59231.682    22813.648        7.468        5.740      134.688      170.163        1.596      342.261       17.544      857.487
10/25/2014  10:09:00       65.173     -149.488       17.032      136.710      184.194       89.705    18689.644    33927.524     8046.952        4.376        3.033      163.077      100.438        0.379      342.287       17.589      857.564
10/25/2014  10:10:00       52.956     -223.130       16.439      144.739      154.454      100.706    20949.235    23856.094    10141.793        5.389        2.747      229.328       71.705        0.098      342.238       17.505      857.623
10/25/2014  10:11:00      119.167     -166.772       12.824      124.644      193.981       82.722    15536.124    37628.532     6842.995        5.108        3.000      204.972      103.473        0.255      342.286       17.587      857.697
10/25/2014  10:12:00       15.056       39.340       71.690      106.807       97.497       84.515    11407.797     9505.629     7142.753        1.748        1.403       42.123       76.354        3.286      342.314       17.637      857.682
10/25/2014  10:13:00      -12.554       15.740       -4.417       86.265       86.960       44.071     7441.661     7562.006     1942.293        0.868        0.847       20.133       37.499        3.469      342.197       17.437      857.617
10/25/2014  10:14:00       95.430     -155.717       -4.903      105.236      183.911       95.162    11074.560    33823.241     9055.725        4.366        2.698      182.633       96.855        0.281      342.292       17.597      857.568
10/25/2014  10:15:00      149.963     -272.045       13.229      138.643      226.526      101.218    19221.817    51313.844    10244.999        8.871        4.039      310.641      117.439        0.143      342.331       17.663      857.669
10/25/2014  10:16:00       99.420     -106.102      101.559      206.626      242.486      131.403    42694.461    58799.384    17266.662        7.508        5.938      145.403      162.254        1.245      342.337       17.674      857.702
10/25/2014  10:17:00       98.228     -127.731       29.444      100.983      140.893       87.839    10197.545    19850.907     7715.736        3.229        1.888      161.133       87.983        0.298      342.407       17.792      857.683
10/25/2014  10:18:00       87.938     -140.914       12.671      146.632      140.326       72.514    21500.897    19691.279     5258.245        3.709        2.323      166.102       75.544        0.207      342.418       17.811      857.661
10/25/2014  10:19:00       -4.689      -67.829       36.284      142.299      116.686       89.887    20248.944    13615.554     8079.728        2.393        2.097       67.991       79.987        1.384      342.476       17.910      857.623
10/25/2014  10:20:00       11.324       11.818       76.560      116.734      123.452       94.944    13626.725    15240.364     9014.309        2.200        1.894       16.367       91.591       31.315      342.534       18.008      857.605
10/25/2014  10:21:00       39.804     -105.869      122.264      140.610      211.761      151.344    19771.311    44842.558    22904.943        5.761        4.376      113.105      134.654        1.417      342.488       17.930      857.622
10/25/2014  10:22:00      175.235     -233.986       60.544      172.660      339.737      148.874    29811.625   115421.201    22163.547       12.823        8.370      292.330      182.909        0.391      342.273       17.565      857.689
10/25/2014  10:23:00       70.090      -21.546      149.783      176.340      234.084      149.414    31095.972    54795.507    22324.591        6.799        5.411       73.327      162.946        4.938      342.331       17.663      857.757
10/25/2014  10:24:00        6.185       16.720      131.362      125.194      182.313      142.512    15673.597    33237.873    20309.668        4.338        3.461       17.827      137.907       59.841      342.405       17.789      857.729
10/25/2014  10:25:00      108.780     -163.597       51.688      161.761      198.920       96.631    26166.654    39569.043     9337.574        5.816        3.754      196.462      110.376        0.316      342.277       17.571      857.759
10/25/2014  10:26:00       70.022      -55.765       69.771      104.950      164.315       79.125    11014.508    26999.531     6260.805        2.857        2.214       89.514       82.821        0.856      342.387       17.760      857.737
10/25/2014  10:27:00      240.259     -244.145       41.377      200.375      259.035      152.064    40150.275    67099.039    23123.353       12.468        6.519      342.537      158.666        0.215      342.422       17.816      857.766
10/25/2014  10:28:00       77.775     -366.665       -1.237      251.142      221.432      128.279    63072.373    49032.065    16455.533       13.450        6.428      374.822      123.640        0.109      342.307       17.622      857.799
10/25/2014  10:29:00      -39.389     -126.394      -19.496       93.932      141.041       74.572     8823.306    19892.582     5560.912        2.609        1.714      132.389       76.933        0.338      342.308       17.625      857.948
10/25/2014  10:30:00     -166.722     -202.095        1.270      166.883      161.408       90.871    27850.008    26052.438     8257.521        6.539        3.108      261.989       96.450        0.136      342.325       17.653      857.895
10/25/2014  10:31:00     -220.155     -119.838       -2.333      153.239      103.552       67.245    23482.126    10722.923     4521.862        5.077        1.936      250.658       69.767        0.077      342.357       17.709      857.942
10/25/2014  10:32:00      -47.841     -104.253       16.819      191.361      126.933       81.362    36619.108    16111.925     6619.830        3.638        2.968      114.706       75.227        0.430      342.448       17.862      857.901
10/25/2014  10:33:00      124.870      -91.983       69.004      147.688      183.906       93.509    21811.799    33821.324     8743.848        4.658        3.219      155.091      121.180        0.611      342.535       18.010      857.870
10/25/2014  10:34:00       66.386      -71.710       25.261      126.325      115.373       66.779    15957.903    13310.843     4459.417        2.195        1.686       97.721       73.716        0.569      342.581       18.088      857.849
10/25/2014  10:35:00      209.087      -87.950      107.100      180.370      308.712      130.833    32533.206    95303.072    17117.400       10.391        7.248      226.832      168.548        0.552      342.388       17.760      857.784
10/25/2014  10:36:00       95.383      -65.964      140.942      262.099      396.641      207.301    68695.925   157323.974    42973.514       15.110       13.450      115.971      271.859        5.495      342.416       17.807      857.789
10/25/2014  10:37:00      135.161     -258.450       50.653      191.475      265.154      123.448    36662.697    70306.821    15239.315       10.490        6.110      291.659      143.999        0.244      342.446       17.859      857.777
10/25/2014  10:38:00      235.512     -343.969       84.212      199.964      371.716      173.817    39985.726   138173.144    30212.262       19.458       10.419      416.870      222.817        0.286      342.454       17.871      857.745
10/25/2014  10:39:00       71.621     -150.080       59.315      117.807      166.231       86.253    13878.593    27632.683     7439.537        4.005        2.448      166.293       85.832        0.266      342.620       18.156      857.792
10/25/2014  10:40:00      153.286     -203.910      -13.731      182.063      171.603       83.995    33146.790    29447.756     7055.243        6.744        3.482      255.100       78.640        0.095      342.467       17.895      857.779
10/25/2014  10:41:00      149.027     -212.223       30.037      126.371      163.030       89.607    15969.664    26578.836     8029.441        5.935        2.529      259.321       97.809        0.142      342.653       18.211      857.826
10/25/2014  10:42:00      110.180     -221.396       28.691      133.793      205.399      112.989    17900.476    42188.897    12766.563        6.740        3.643      247.297      122.314        0.245      342.637       18.182      857.881
10/25/2014  10:43:00      -75.604     -314.452      -22.719      154.951      135.406       82.552    24009.766    18334.687     6814.829        7.713        2.458      323.413       71.546        0.049      342.487       17.928      857.879
10/25/2014  10:44:00        5.938     -147.175       17.249      125.111      119.034       71.464    15652.827    14169.144     5107.131        2.845        1.746      147.295       74.955        0.259      342.591       18.105      857.930
10/25/2014  10:45:00      -21.250     -203.513       31.431      187.558      243.655      103.174    35177.964    59367.985    10644.954        7.400        5.260      204.620       91.985        0.202      342.592       18.107      857.965
10/25/2014  10:46:00       23.227     -116.115       41.978      125.816      181.034      111.941    15829.664    32773.324    12530.770        3.845        3.057      118.416      104.851        0.784      342.753       18.382      857.998
10/25/2014  10:47:00      143.657     -110.647       95.926      159.169      237.058      117.673    25334.773    56196.660    13846.960        6.871        4.769      181.329      144.428        0.634      342.588       18.100      857.963
10/25/2014  10:48:00      -33.042      -19.091       71.579      127.205       97.219      105.024    16181.234     9451.619    11030.017        2.161        1.833       38.161       78.570        4.239      342.817       18.492      857.912
10/25/2014  10:49:00      138.675     -176.240        9.141      132.583      171.133       76.200    17578.316    29286.666     5806.365        5.151        2.634      224.257       85.677        0.146      342.736       18.353      857.940
10/25/2014  10:50:00       46.718     -113.037       57.514      146.533      253.256      150.138    21471.956    64138.804    22541.488        6.319        5.408      122.311      172.496        1.989      342.607       18.132      857.896
10/25/2014  10:51:00     -120.158      -83.613       30.571      151.096      146.651       87.208    22829.904    21506.466     7605.211        3.714        2.597      146.387       74.841        0.261      342.610       18.139      857.904
10/25/2014  10:52:00      131.682     -395.424       -6.336      228.369      219.198      113.538    52152.554    48047.700    12890.946       14.339        5.655      416.774       82.128        0.039      342.440       17.848      857.911
10/25/2014  10:53:00      -34.899     -158.161       29.911      185.536      233.900       93.354    34423.480    54709.247     8715.045        6.247        4.892      161.966      102.125        0.398      342.414       17.806      857.978
10/25/2014  10:54:00       37.211     -234.316       15.891      158.577      155.610       75.266    25146.598    24214.511     5664.960        5.577        2.751      237.253       65.086        0.075      342.407       17.792      857.977
10/25/2014  10:55:00       12.044     -195.979        2.176      110.273      151.416       69.897    12160.175    22926.775     4885.647        3.926        1.999      196.349       60.162        0.094      342.617       18.149      858.083
10/25/2014  10:56:00     -100.465       17.039       -0.481       98.021       82.973       54.966     9608.047     6884.491     3021.282        1.494        0.976      101.900       43.420        0.182      342.534       18.010      858.011
10/25/2014  10:57:00      -47.431      -58.376      -15.364       71.802       69.596       47.073     5155.586     4843.670     2215.882        0.905        0.611       75.216       31.954        0.180      342.549       18.037      857.964
10/25/2014  10:58:00      -25.866      -61.901       21.643      139.888      105.688       66.822    19568.578    11169.910     4465.159        2.008        1.760       67.088       66.271        0.976      342.418       17.811      857.967
10/25/2014  10:59:00       61.183      -83.544       44.440       88.809      110.909       80.142     7887.046    12300.744     6422.798        1.965        1.331      103.552       76.463        0.545      342.576       18.081      857.991
10/25/2014  11:00:00      142.744     -169.141       16.996      110.879      166.452      104.519    12294.125    27706.173    10924.207        5.009        2.546      221.324       95.976        0.188      342.464       17.888      857.898
10/25/2014  11:01:00       91.224     -164.319      -12.604      139.348      136.403       66.558    19417.912    18605.832     4429.961        3.896        2.123      187.943       65.559        0.122      342.469       17.899      857.928
10/25/2014  11:02:00       -2.865       18.024       18.523       71.902       76.775       54.037     5169.899     5894.346     2919.989        0.733        0.699       18.250       32.331        3.138      342.475       17.910      857.915
10/25/2014  11:03:00       86.250      -74.849       22.079       86.263      145.788       78.085     7441.364    21254.162     6097.209        2.415        1.740      114.199       84.295        0.545      342.421       17.817      857.903
10/25/2014  11:04:00       78.182     -405.062      -25.395      232.643      181.486       87.129    54122.843    32937.055     7591.411       13.272        4.733      412.538       81.080        0.039      342.292       17.596      857.944
10/25/2014  11:05:00     -130.261     -163.506        2.744      135.498      141.046       87.354    18359.773    19893.937     7630.774        4.479        2.294      209.051       77.223        0.136      342.384       17.753      857.882
10/25/2014  11:06:00       49.258     -159.122       22.600      128.451      138.757       75.544    16499.652    19253.519     5706.890        3.485        2.073      166.571       81.406        0.239      342.516       17.979      857.871
10/25/2014  11:07:00       25.446     -122.191       16.172      111.661      103.516       61.704    12468.117    10715.486     3807.362        2.141        1.350      124.812       66.633        0.285      342.553       18.041      857.852
10/25/2014  11:08:00      -25.400     -157.895       -3.757      210.273      140.586       78.410    44214.856    19764.507     6148.093        4.784        3.506      159.925       80.068        0.251      342.486       17.927      857.786
10/25/2014  11:09:00       55.544     -174.498       -3.605      116.692      144.703       70.765    13617.117    20938.881     5007.682        3.655        1.978      183.125       60.860        0.110      342.553       18.042      857.797
10/25/2014  11:10:00       83.824     -225.927       36.408      179.385      292.051      116.329    32178.852    85293.543    13532.333        9.517        6.550      240.976      147.710        0.376      342.444       17.855      857.783
10/25/2014  11:11:00       94.253     -141.154       39.005      124.289      227.806      146.337    15447.848    51895.793    21414.418        5.953        4.438      169.729      167.653        0.976      342.376       17.739      857.698
10/25/2014  11:12:00      161.389      -93.789      139.734      193.600      303.954      152.331    37480.880    92387.734    23204.599       10.369        7.654      186.662      185.385        0.986      342.334       17.668      857.642
10/25/2014  11:13:00      191.135     -286.728       16.465      194.275      224.031      123.889    37742.591    50189.759    15348.437       11.113        5.164      344.595      127.709        0.137      342.348       17.692      857.698
10/25/2014  11:14:00      169.062     -252.935       27.913      187.547      281.625      126.878    35174.010    79312.373    16098.104       11.193        6.529      304.234      165.682        0.297      342.405       17.789      857.709
10/25/2014  11:15:00      -39.443      -82.656       35.889      108.824      131.377       70.407    11842.564    17259.982     4957.139        2.186        1.703       91.584       62.032        0.459      342.584       18.096      857.748
10/25/2014  11:16:00       57.488      -66.049       21.777       94.525      166.827       61.047     8934.919    27831.197     3726.753        2.431        2.025       87.563       65.957        0.567      342.404       17.789      857.746
10/25/2014  11:17:00       11.915     -139.746       15.512      186.197      159.903       62.339    34669.497    25568.870     3886.111        4.201        3.206      140.253       72.639        0.268      342.606       18.131      857.763
10/25/2014  11:18:00       98.709     -191.010       59.166      181.796      250.999      121.113    33049.880    63000.456    14668.240        8.020        5.536      215.008      154.106        0.514      342.425       17.823      857.787
10/25/2014  11:19:00       77.615     -278.026        8.878      190.262      228.055      102.722    36199.753    52009.277    10551.744        9.106        4.938      288.657      101.602        0.124      342.424       17.822      857.774
10/25/2014  11:20:00     -106.824      -79.711        1.069       93.155       81.227       43.454     8677.800     6597.766     1888.210        1.746        0.858      133.287       41.472        0.097      342.539       18.018      857.906
10/25/2014  11:21:00       26.402     -102.089       12.754      135.817      111.522       58.837    18446.247    12437.259     3461.823        2.281        1.717      105.448       37.437        0.126      342.544       18.026      857.905
10/25/2014  11:22:00       29.210     -220.312        5.516      179.252      181.950      108.698    32131.298    33105.835    11815.297        6.322        3.853      222.240      115.366        0.269      342.583       18.091      857.866
10/25/2014  11:23:00      -77.026     -113.313        6.119       92.955      113.604       58.565     8640.616    12905.900     3429.900        2.189        1.249      137.014       58.972        0.185      342.726       18.336      857.962
10/25/2014  11:24:00      -51.483      -84.551      -12.176       56.190       80.930       35.412     3157.269     6549.672     1254.006        1.045        0.548       98.992       22.000        0.049      342.688       18.272      857.926
10/25/2014  11:25:00        6.901       -9.733        4.158       43.124       42.597       38.918     1859.720     1814.468     1514.576        0.267        0.259       11.931       28.984        5.901      342.877       18.595      857.882
10/25/2014  11:26:00       56.624       57.069       42.856       61.030       98.845       76.106     3724.696     9770.400     5792.191        1.379        0.964       80.394       59.098        0.540      342.413       17.804      857.782
10/25/2014  11:27:00       55.936      -61.053       43.165       73.327      129.201       68.514     5376.806    16692.914     4694.191        1.774        1.338       82.803       69.304        0.701      342.428       17.830      857.728
10/25/2014  11:28:00      -80.288     -112.854       41.097      181.918      146.457       78.105    33094.060    21449.569     6100.360        4.075        3.032      138.499       95.174        0.472      342.578       18.083      857.812
10/25/2014  11:29:00     -187.405     -129.534      -28.773      153.970       93.894       49.121    23706.904     8816.114     2412.850        4.382        1.747      227.815       39.692        0.030      342.459       17.880      857.880
10/25/2014  11:30:00      -82.311      -21.226      -12.635      137.949       89.471       65.453    19029.796     8005.086     4284.107        1.935        1.566       85.004       69.498        0.668      342.441       17.852      857.862
10/25/2014  11:31:00     -208.663     -182.543       -4.903      137.554      111.024       68.135    18921.047    12326.406     4642.332        5.638        1.794      277.241       61.379        0.049      342.437       17.843      857.920
10/25/2014  11:32:00     -199.955     -144.400      -22.166      124.883       61.670       39.914    15595.683     3803.244     1593.160        4.115        1.050      246.644       27.876        0.013      342.298       17.608      857.955
10/25/2014  11:33:00       -4.456       84.417      114.937       46.300       93.015       98.816     2143.678     8651.870     9764.642        2.045        1.028       84.534       81.991        0.941      342.623       18.161      857.914
10/25/2014  11:34:00      157.686       31.856      150.652      170.614      304.785      194.539    29109.186    92894.109    37845.298       10.418        7.992      160.871      230.678        2.056      342.452       17.869      857.799
10/25/2014  11:35:00      179.041     -208.758        3.563      129.787      151.361       78.558    16844.609    22910.069     6171.359        6.078        2.296      275.019       84.718        0.095      342.568       18.065      857.770
10/25/2014  11:36:00      -24.730     -166.754       -1.940      127.168      122.133       69.377    16171.745    14916.371     4813.112        3.215        1.795      168.577       54.150        0.103      342.739       18.356      857.802
10/25/2014  11:37:00     -160.006     -118.122       10.510      117.167       84.484       54.288    13728.078     7137.620     2947.220        3.173        1.191      198.884       61.200        0.095      342.713       18.313      857.876
10/25/2014  11:38:00      -49.096     -147.810        2.344       57.378      123.247       43.329     3292.242    15189.851     1877.359        2.231        1.018      155.751       25.164        0.026      342.641       18.191      857.882
10/25/2014  11:39:00      -67.667      -92.014        1.657       83.946       62.592       46.877     7046.984     3917.729     2197.427        1.310        0.658      114.217       39.500        0.120      342.480       17.918      857.870
10/25/2014  11:40:00      -79.580      -91.323       11.228       88.559      128.526       52.824     7842.762    16518.819     2790.367        2.097        1.358      121.132       71.790        0.351      342.437       17.844      857.893
10/25/2014  11:41:00       25.887      -74.113       16.266      147.388      156.355       76.840    21723.080    24446.848     5904.407        2.924        2.604       78.504       73.978        0.888      342.432       17.837      857.905
10/25/2014  11:42:00       14.393       68.562       68.335       98.235       94.626       96.003     9650.202     8954.142     9216.659        1.869        1.391       70.056       84.441        1.453      342.621       18.158      857.895
10/25/2014  11:43:00       -1.035       -7.072       13.507       82.515       91.240       49.640     6808.689     8324.747     2464.098        0.891        0.880        7.147       41.485       33.689      342.784       18.437      857.839
10/25/2014  11:44:00      -28.242      -18.675       -7.800      101.896       73.134       46.494    10382.740     5348.596     2161.684        0.955        0.895       33.858       36.998        1.194      342.718       18.324      857.864
10/25/2014  11:45:00        2.436      -46.569       17.074       94.445       85.204       42.436     8919.868     7259.704     1800.780        1.022        0.899       46.633       28.579        0.376      342.732       18.347      857.953
10/25/2014  11:46:00     -201.488     -225.530       -6.328      147.582      179.363       73.499    21780.436    32171.205     5402.170        7.542        2.968      302.426       66.234        0.048      342.545       18.028      858.012
10/25/2014  11:47:00       98.952      -73.926       79.687      224.623      210.210      134.805    50455.477    44188.160    18172.366        6.719        5.641      123.518      143.368        1.347      342.588       18.100      857.776
10/25/2014  11:48:00     -157.842     -298.636      -29.912      187.417      148.835       84.558    35125.059    22151.881     7150.081        8.970        3.221      337.783       63.098        0.035      342.645       18.197      857.787
10/25/2014  11:49:00     -455.397     -241.608       -4.687      174.298      121.272       80.117    30379.758    14706.834     6418.696       15.863        2.575      515.520       82.684        0.026      342.567       18.065      857.976
10/25/2014  11:50:00     -417.500     -196.510      -25.206      209.278      169.153       79.001    43797.211    28612.822     6241.129       14.609        3.933      461.436       94.495        0.042      342.341       17.679      857.937
10/25/2014  11:51:00     -264.070     -168.924       -2.160      191.546      169.253       76.960    36689.989    28646.602     5922.840        8.475        3.563      313.478       89.674        0.082      342.619       18.153      857.997
10/25/2014  11:52:00      -91.797      -69.454       35.820       92.427      109.368       63.093     8542.809    11961.380     3980.751        1.950        1.224      115.111       67.100        0.340      342.824       18.502      858.039
10/25/2014  11:53:00     -314.918      -30.459      -14.431      324.729      146.323       75.953   105448.756    21410.563     5768.804       11.644        6.631      316.387      112.984        0.128      342.729       18.342      857.960
10/25/2014  11:54:00     -465.837     -158.352      -16.861      239.875      214.868      111.867    57539.806    46168.209    12514.280       17.927        5.811      492.016      126.741        0.066      342.504       17.956      857.893
10/25/2014  11:55:00     -439.078     -299.550       -8.674      285.963      207.704      101.365    81774.734    43141.010    10274.890       20.887        6.760      531.526      103.411        0.038      342.572       18.073      857.958
10/25/2014  11:56:00     -136.474     -247.707        5.330      168.715      182.395       88.152    28464.597    33268.101     7770.823        7.474        3.475      282.814       68.768        0.059      342.675       18.249      858.083
10/25/2014  11:57:00     -102.556     -229.218       -1.879      100.931      160.826       63.766    10187.104    25864.947     4066.072        5.158        2.006      251.115       66.074        0.069      342.582       18.091      858.140
10/25/2014  11:58:00       38.054      -98.691       -7.566      123.514      135.989       74.927    15255.620    18492.925     5614.019        2.530        1.968      105.773       82.106        0.603      342.652       18.208      858.095
10/25/2014  11:59:00     -199.147     -220.266      -22.077      103.586      104.315       59.885    10730.128    10881.617     3586.227        5.693        1.260      296.946       42.710        0.021      342.525       17.993      858.117
10/25/2014  12:00:00     -210.785     -139.847       -3.479      154.371       95.419       60.665    23830.560     9104.861     3680.296        5.030        1.831      252.958       61.541        0.059      342.584       18.092      858.211
10/25/2014  12:01:00      -58.882     -152.936       -4.297      174.317       73.729       45.425    30386.284     5436.027     2063.474        3.237        1.894      163.880       43.062        0.069      342.720       18.323      858.276
10/25/2014  12:02:00     -125.079     -163.778       18.217      183.308      172.817       72.621    33601.691    29865.731     5273.835        5.576        3.437      206.077       74.962        0.132      342.706       18.302      858.290
10/25/2014  12:03:00     -417.887     -362.364      -25.096      180.567      158.652      101.065    32604.392    25170.504    10214.211       18.726        3.399      553.116       88.585        0.026      342.411       17.799      858.309
10/25/2014  12:04:00     -111.881     -124.038      -11.441      105.458      120.636       53.864    11121.440    14553.148     2901.348        2.830        1.429      167.042       41.417        0.061      342.468       17.895      858.299
10/25/2014  12:05:00     -341.890     -268.746      -15.966      210.926      155.769       89.589    44489.734    24263.974     8026.165       13.306        3.839      434.871       73.885        0.029      342.285       17.584      858.308
10/25/2014  12:06:00     -180.290     -379.962        0.230      117.504      236.024       82.439    13807.215    55707.286     6796.269       12.658        3.816      420.566       64.041        0.023      342.292       17.597      858.367
10/25/2014  12:07:00     -216.794     -278.914       -7.700      147.791      145.808       83.455    21842.168    21260.072     6964.819        8.745        2.503      353.260       77.610        0.048      342.369       17.727      858.303
10/25/2014  12:08:00     -313.623     -308.237      -12.841      204.055      230.524       87.521    41638.263    53141.168     7659.869       14.797        5.122      439.738       97.618        0.049      342.399       17.779      858.334
10/25/2014  12:09:00     -222.306     -263.244       55.008      303.991      271.654      140.348    92410.299    73796.027    19697.610       15.379        9.295      344.554      152.391        0.196      342.336       17.671      858.470
10/25/2014  12:10:00     -285.082     -516.923       -1.430      244.230      305.550      111.629    59648.407    93361.028    12461.042       25.694        8.274      590.323      120.353        0.042      342.124       17.311      858.629
10/25/2014  12:11:00     -234.658     -406.054       25.348      238.464      216.723      121.696    56864.951    46968.779    14809.818       16.959        5.932      468.983      127.037        0.073      342.071       17.219      858.735
10/25/2014  12:12:00     -147.972     -317.382      -14.423      220.409      165.193       70.652    48580.125    27288.580     4991.750       10.183        4.043      350.182       73.226        0.044      342.013       17.123      858.738
10/25/2014  12:13:00     -186.112     -314.777       -6.376      188.147      185.755       82.655    35399.384    34505.029     6831.809       10.523        3.837      365.681       79.085        0.047      342.007       17.111      858.709
10/25/2014  12:14:00     -402.607     -410.489      -14.033      268.362      258.475      114.082    72017.993    66809.326    13014.715       24.129        7.592      574.973      103.818        0.033      341.865       16.871      858.765
10/25/2014  12:15:00     -531.605     -373.490       -7.919      367.944      274.249      147.672   135382.452    75212.381    21807.140       32.724       11.620      649.691      160.995        0.061      341.750       16.676      858.632
10/25/2014  12:16:00     -384.522     -312.950       -9.871      282.079      224.633      125.731    79568.704    50459.889    15808.201       19.584        7.292      495.778      123.466        0.062      341.794       16.749      858.676
10/25/2014  12:17:00     -316.900     -244.964       15.667      272.905      155.747      113.975    74477.034    24257.097    12990.318       13.618        5.586      400.541      120.614        0.091      341.892       16.917      858.725
10/25/2014  12:18:00     -240.671     -227.686        9.893      170.176      219.039       85.600    28959.951    47978.292     7327.282        9.705        4.213      331.306       68.909        0.043      341.882       16.898      858.771
10/25/2014  12:19:00     -296.364     -405.415      -23.098      207.424      233.359       97.273    43024.794    54456.442     9461.965       17.981        5.347      502.188      105.732        0.044      341.756       16.686      858.821
10/25/2014  12:20:00     -277.597     -309.939       -7.969      270.958      195.314      112.884    73418.049    38147.473    12742.735       14.872        6.215      416.080      128.581        0.095      341.699       16.590      858.735
10/25/2014  12:21:00     -486.148     -302.850       -6.019      282.050      225.049      122.956    79552.317    50647.187    15118.109       23.668        7.266      572.764      140.395        0.060      341.574       16.376      858.788
10/25/2014  12:22:00     -654.734     -376.108      -21.852      335.885      198.099      137.336   112818.586    39243.195    18861.218       37.073        8.546      755.071      154.307        0.042      341.516       16.278      858.706
10/25/2014  12:23:00     -427.367     -314.810       15.131      274.695      214.146      125.020    75457.089    45858.319    15630.039       20.943        6.847      530.800      129.899        0.060      341.554       16.344      858.835
10/25/2014  12:24:00     -299.492     -206.197        3.746      223.966      241.986      102.632    50160.880    58557.123    10533.246       12.572        5.963      363.611      104.587        0.083      341.644       16.497      858.726
10/25/2014  12:25:00     -398.067     -263.899       10.846      269.788      203.832      114.167    72785.661    41547.676    13034.029       17.777        6.368      477.598      128.077        0.072      341.755       16.684      858.726
10/25/2014  12:26:00     -483.187     -271.429       -2.029      308.486      213.983      115.024    95163.897    45788.909    13230.410       23.063        7.709      554.205      140.415        0.064      341.673       16.545      858.870
10/25/2014  12:27:00     -560.643      -36.468      -51.402      224.392      158.073       95.981    50351.548    24987.030     9212.278       20.141        4.228      561.828      120.412        0.046      341.320       15.948      858.957
10/25/2014  12:28:00     -394.670     -214.554       -9.547      208.200      148.312       91.878    43347.395    21996.462     8441.587       13.782        3.689      449.219      107.719        0.058      341.375       16.040      858.897
10/25/2014  12:29:00     -422.839     -224.765        3.159      173.161      144.668       86.627    29984.735    20928.734     7504.214       14.386        2.921      478.865       92.258        0.037      341.441       16.152      858.932
10/25/2014  12:30:00     -249.899      -88.253       13.612      141.466      164.811       79.296    20012.755    27162.616     6287.866        6.193        2.673      265.025       82.703        0.097      341.675       16.548      858.997
10/25/2014  12:31:00     -190.142       50.359      -14.177      182.495       89.467       67.225    33304.416     8004.394     4519.207        4.235        2.291      196.697       73.645        0.140      341.682       16.563      859.061
10/25/2014  12:32:00     -610.569     -146.293      -27.560      198.271      144.704       86.787    39311.325    20939.351     7531.906       23.136        3.389      627.851       72.589        0.013      341.150       15.660      859.040
10/25/2014  12:33:00     -424.019     -157.973       -9.818      187.333      143.045       87.195    35093.603    20461.738     7602.995       13.399        3.158      452.490       83.671        0.034      341.136       15.636      859.091
10/25/2014  12:34:00     -469.928      -68.084      -14.117      220.522      154.805       98.534    48629.985    23964.609     9708.877       15.397        4.115      474.834      127.654        0.072      340.967       15.350      859.131
10/25/2014  12:35:00     -407.858     -119.114      -31.148      160.688      154.861       68.889    25820.490    23981.977     4745.737       11.802        2.727      424.896       71.464        0.028      340.989       15.387      859.150
10/25/2014  12:36:00     -360.386      -35.885      -10.742      217.399      160.956       90.476    47262.489    25906.814     8185.974       10.630        4.068      362.168      111.068        0.094      341.067       15.521      859.234
10/25/2014  12:37:00     -328.858       52.593       -8.751      190.031      141.996       72.329    36111.860    20162.815     5231.517        8.624        3.075      333.037       78.387        0.055      340.947       15.316      859.328
10/25/2014  12:38:00     -268.980      -13.696       -7.513      188.625      152.025       81.290    35579.497    23111.660     6608.100        6.893        3.265      269.328       99.952        0.138      341.106       15.587      859.428
10/25/2014  12:39:00     -417.135     -136.372      -22.782      171.959      174.089       75.478    29569.975    30307.026     5696.902       12.933        3.279      438.861       82.511        0.035      340.789       15.048      859.437
10/25/2014  12:40:00     -386.579       22.605      -46.253      159.002      109.765       65.857    25281.773    12048.425     4337.173        9.687        2.083      387.239       76.429        0.039      340.519       14.593      859.414
10/25/2014  12:41:00     -378.133     -101.426       -8.877      219.064      146.210       74.429    47988.867    21377.483     5539.700       11.411        3.745      391.500       79.859        0.042      340.637       14.793      859.456
10/25/2014  12:42:00     -623.508     -142.735      -23.563      242.649      184.601      106.026    58878.408    34077.353    11241.518       25.692        5.210      639.637      123.088        0.037      340.534       14.619      859.521
10/25/2014  12:43:00     -692.689     -168.882      -21.517      279.172      226.517      120.927    77936.939    51310.072    14623.338       32.631        7.194      712.979      136.201        0.036      340.441       14.462      859.633
10/25/2014  12:44:00     -734.634     -100.510      -43.413      290.661      236.246      123.398    84483.567    55811.937    15227.110       35.357        7.776      741.478      133.776        0.033      340.358       14.320      859.719
10/25/2014  12:45:00     -588.389     -212.738      -10.913      335.295      245.572      118.120   112422.479    60305.803    13952.361       28.909        9.334      625.667      157.265        0.063      340.286       14.198      859.843
10/25/2014  12:46:00     -656.171     -347.361       -7.460      343.276      265.538      138.264   117838.729    70510.510    19117.003       37.933       10.373      742.442      158.311        0.045      340.065       13.824      859.926
10/25/2014  12:47:00     -627.460     -328.784       -6.921      369.579      257.927      127.911   136588.673    66526.583    16361.167       36.062       10.974      708.381      138.194        0.038      339.924       13.588      860.044
10/25/2014  12:48:00     -789.390     -318.380      -21.855      367.662      295.840      153.071   135175.012    87521.561    23430.749       48.550       12.306      851.177      179.927        0.045      339.715       13.234      860.103
10/25/2014  12:49:00     -560.536     -272.168      -13.835      377.150      314.921      165.639   142242.197    99174.954    27436.250       32.861       13.443      623.118      205.025        0.108      339.597       13.036      860.164
10/25/2014  12:50:00     -483.931       15.230       -7.360      324.611      224.785      130.479   105372.329    50528.389    17024.837       20.367        8.646      484.170      147.985        0.093      339.561       12.977      860.257
10/25/2014  12:51:00     -559.507     -167.117       -4.543      295.148      229.232      121.393    87112.100    52547.116    14736.254       24.767        7.720      583.932      132.573        0.052      339.243       12.441      860.228
10/25/2014  12:52:00     -564.553     -302.369      -25.488      400.264      293.491      132.822   160210.876    86137.047    17641.798       33.734       13.199      640.427      160.819        0.063      339.131       12.251      860.227
10/25/2014  12:53:00     -505.680     -235.352        5.437      298.972      236.322      149.450    89384.149    55848.135    22335.253       23.932        8.378      557.766      157.825        0.080      338.944       11.937      860.248
10/25/2014  12:54:00     -569.858     -363.892      -15.283      325.697      269.910      139.300   106078.496    72851.437    19404.518       32.782        9.917      676.132      137.627        0.041      338.832       11.748      860.222
10/25/2014  12:55:00     -438.439     -239.837       -7.206      228.363      221.049      109.061    52149.792    48862.672    11894.344       18.133        5.645      499.751      116.380        0.054      338.916       11.889      860.196
10/25/2014  12:56:00     -615.180      -49.037      -20.415      329.570      192.541      105.557   108616.562    37072.164    11142.303       26.902        7.842      617.132      135.861        0.048      338.865       11.803      860.215
10/25/2014  12:57:00     -460.942      -56.608      -28.842      225.950      180.187      103.965    51053.418    32467.195    10808.667       15.540        4.716      464.405      105.790        0.052      338.870       11.813      860.267
10/25/2014  12:58:00     -540.780     -361.980       -8.382      255.797      201.252      109.772    65432.259    40502.474    12049.804       27.074        5.899      650.747      129.272        0.039      338.785       11.670      860.332
10/25/2014  12:59:00     -500.139     -355.964       -5.058      338.831      199.869      140.141   114806.166    39947.764    19639.484       27.560        8.720      613.880      160.372        0.068      338.680       11.492      860.345
10/25/2014  13:00:00     -517.821     -155.490      -21.261      288.525      191.008      112.211    83246.465    36484.001    12591.347       21.252        6.616      540.662      122.906        0.052      338.690       11.510      860.436
10/25/2014  13:01:00     -426.171     -157.484       -6.553      228.444      185.931      102.830    52186.886    34570.407    10573.999       15.188        4.867      454.338      119.171        0.069      338.763       11.632      860.520
10/25/2014  13:02:00     -522.996      -58.748      -13.254      321.208      207.717      105.775   103174.346    43146.506    11188.271       21.730        7.875      526.285      141.593        0.072      338.667       11.473      860.507
10/25/2014  13:03:00     -446.472      -69.540       -2.888      227.855      150.500       90.686    51918.118    22650.295     8224.032       14.347        4.140      451.855      107.691        0.057      338.791       11.679      860.556
10/25/2014  13:04:00     -320.085      -50.184       22.785      183.276      163.126       94.256    33590.117    26609.947     8884.184        8.727        3.454      323.995      101.472        0.098      338.725       11.569      860.598
10/25/2014  13:05:00     -272.091     -113.544        1.076      146.432      129.470       77.493    21442.426    16762.499     6005.091        6.556        2.211      294.832       76.600        0.068      338.784       11.668      860.623
10/25/2014  13:06:00     -261.675     -176.128        3.983      228.316      168.891       84.249    52127.988    28524.281     7097.937        9.361        4.388      315.429       97.246        0.095      338.729       11.576      860.557
10/25/2014  13:07:00     -417.549     -262.107       10.986      224.756      172.438      101.443    50515.142    29734.706    10290.590       16.684        4.527      492.998      107.593        0.048      338.683       11.499      860.559
10/25/2014  13:08:00     -398.638     -214.133      -25.631      210.864      147.161       95.564    44463.664    21656.302     9132.502       14.032        3.763      452.509       97.191        0.046      338.586       11.335      860.539
10/25/2014  13:09:00     -424.988     -127.694      -12.220      224.797      173.301       96.886    50533.880    30033.362     9386.953       14.349        4.498      443.757      115.577        0.068      338.685       11.501      860.533
10/25/2014  13:10:00     -452.300     -124.616      -24.034      184.823      185.191       92.644    34159.634    34295.846     8582.962       14.885        3.852      469.153       94.999        0.041      338.724       11.567      860.614
10/25/2014  13:11:00     -361.275       36.280      -29.491      120.590      111.314       60.761    14541.958    12390.822     3691.953        8.166        1.531      363.092       43.006        0.014      338.706       11.536      860.669
10/25/2014  13:12:00     -337.474       18.393      -26.234      155.301      156.648       66.332    24118.334    24538.489     4399.897        8.398        2.653      337.975       67.546        0.040      338.700       11.526      860.687
10/25/2014  13:13:00     -552.282     -164.494      -23.868      171.436      154.271       82.021    29390.218    23799.603     6727.367       19.627        2.996      576.258       87.046        0.023      338.673       11.481      860.788
10/25/2014  13:14:00     -334.545     -131.802      -25.479      181.573      214.158       77.088    32968.619    45863.561     5942.484       10.734        4.239      359.572       80.972        0.051      338.466       11.134      860.860
10/25/2014  13:15:00     -279.885       67.336      -15.425      143.839      196.376       83.805    20689.761    38563.577     7023.241        7.468        3.314      287.872       77.459        0.072      338.570       11.308      860.842
10/25/2014  13:16:00     -291.252     -184.850       -2.553      223.612      194.036       81.218    50002.306    37649.808     6596.282       10.661        4.712      344.960       97.798        0.080      338.649       11.441      860.912
10/25/2014  13:17:00     -346.588     -122.904      -26.911      133.890      148.199       79.159    17926.519    21962.991     6266.091        9.105        2.308      367.735       77.952        0.045      338.548       11.270      860.952
10/25/2014  13:18:00     -571.346      -28.528      -22.309      203.434      154.500       97.840    41385.237    23870.316     9572.659       20.127        3.741      572.058       98.282        0.030      338.581       11.326      860.882
10/25/2014  13:19:00     -341.042      -77.407        6.417      212.758      156.172       72.676    45265.814    24389.649     5281.786        9.862        3.747      349.716       79.947        0.052      338.717       11.556      860.871
10/25/2014  13:20:00     -609.469     -137.884      -20.080      329.392      213.078      122.070   108498.891    45402.099    14901.104       27.980        8.440      624.872      152.504        0.060      338.456       11.116      860.832
10/25/2014  13:21:00     -506.672     -127.399       -1.896      266.550      223.608      110.693    71049.111    50000.372    12252.957       20.310        6.665      522.443      106.889        0.042      338.351       10.939      860.711
10/25/2014  13:22:00     -732.309     -198.435      -16.615      249.585      209.052      110.352    62292.855    43702.738    12177.674       34.703        5.909      758.718      114.409        0.023      338.222       10.724      860.605
10/25/2014  13:23:00     -749.157     -157.717      -44.506      288.681      253.853      119.124    83336.839    64441.170    14190.519       37.500        8.098      765.578      126.146        0.027      338.179       10.652      860.554
10/25/2014  13:24:00     -653.891     -227.232      -24.455      269.087      217.875      112.968    72407.861    47469.360    12761.860       30.620        6.632      692.248      107.407        0.024      338.131       10.570      860.525
10/25/2014  13:25:00     -740.776      -72.507      -54.685      345.104      245.457      132.312   119096.975    60249.203    17506.464       37.689        9.843      744.316      168.052        0.051      338.101       10.521      860.605
10/25/2014  13:26:00     -802.424     -252.592       -6.613      361.873      279.089      144.916   130951.878    77890.939    21000.565       46.874       11.492      841.242      167.746        0.040      337.964       10.290      860.580
10/25/2014  13:27:00     -667.974     -205.411      -22.489      258.681      188.071      116.493    66916.108    35370.870    13570.607       30.235        5.793      698.844      126.636        0.033      337.912       10.203      860.654
10/25/2014  13:28:00     -523.790     -263.657      -18.209      270.616      202.880      121.662    73232.759    41160.185    14801.708       23.667        6.460      586.405      123.786        0.045      337.979       10.316      860.630
10/25/2014  13:29:00     -505.613     -149.747       -5.505      260.853      242.073      113.741    68044.431    58599.346    12937.044       20.881        6.979      527.322      118.022        0.050      337.959       10.282      860.677
10/25/2014  13:30:00     -688.732      -97.033      -46.723      297.409      197.929      103.625    88452.111    39176.045    10738.051       31.213        6.918      695.533      108.545        0.024      337.917       10.213      860.735
10/25/2014  13:31:00     -686.590     -138.577      -41.293      244.317      227.838       96.520    59691.033    51910.139     9316.059       30.659        6.046      700.435      107.046        0.023      337.856       10.110      860.772
10/25/2014  13:32:00     -445.382     -222.097       18.907      276.757      215.947      102.011    76594.502    46633.129    10406.268       19.082        6.682      497.687      123.954        0.062      338.004       10.358      860.756
10/25/2014  13:33:00     -666.980      -26.885      -40.221      355.670      291.301      116.638   126501.224    84856.202    13604.416       33.604       11.248      667.521      144.167        0.047      337.917       10.211      860.784
10/25/2014  13:34:00     -673.969     -249.739      -47.951      304.551      261.344      123.212    92751.145    68300.853    15181.225       34.753        8.812      718.752      107.003        0.022      337.853       10.104      860.780
10/25/2014  13:35:00     -802.662     -243.182      -66.271      309.510      216.339      113.736    95796.251    46802.702    12935.913       43.163        7.777      838.692      114.762        0.019      337.616        9.708      860.839
10/25/2014  13:36:00     -684.645     -159.935      -63.400      200.732      177.956      105.617    40293.335    31668.402    11154.931       29.071        4.156      703.078       76.780        0.012      337.594        9.670      860.771
10/25/2014  13:37:00     -608.533     -343.104      -34.453      270.677      201.076      111.669    73265.885    40431.671    12469.986       30.767        6.308      698.593      133.741        0.037      337.619        9.711      860.739
10/25/2014  13:38:00     -653.087     -463.744      -19.394      365.858      283.776      154.215   133852.393    80528.970    23782.248       44.001       11.908      800.988      175.228        0.048      337.724        9.889      860.807
10/25/2014  13:39:00     -441.313     -258.232        5.073      324.920      254.278      145.413   105573.196    64657.430    21145.001       22.638        9.569      511.313      168.744        0.109      337.771        9.967      860.922
10/25/2014  13:40:00     -711.078     -306.453      -51.987      280.566      273.116      123.653    78717.211    74592.248    15290.114       38.539        8.430      774.303      120.225        0.024      337.568        9.627      860.961
10/25/2014  13:41:00     -598.363     -176.333      -31.169      218.722      168.113      105.515    47839.518    28262.028    11133.449       23.865        4.362      623.804      113.297        0.033      337.601        9.680      860.922
10/25/2014  13:42:00     -564.189      -38.490      -40.583      217.047      220.489       99.841    47109.331    48615.479     9968.191       21.354        5.285      565.501       94.954        0.028      337.831       10.066      860.928
10/25/2014  13:43:00     -528.893      -93.380      -63.521      232.898      160.386      106.315    54241.678    25723.722    11302.804       19.186        4.563      537.073      114.280        0.045      337.670        9.798      860.848
10/25/2014  13:44:00     -698.042     -110.269      -45.158      199.081      197.166      109.944    39633.202    38874.593    12087.618       29.601        4.530      706.698      107.828        0.023      337.567        9.625      860.773
10/25/2014  13:45:00     -650.816     -150.660      -43.631      236.293      183.211      106.859    55834.400    33566.193    11418.866       27.447        5.041      668.027      115.394        0.030      337.558        9.609      860.787
10/25/2014  13:46:00     -606.325     -138.953      -29.455      219.860      180.738      106.077    48338.320    32666.297    11252.356       24.001        4.613      622.044      109.572        0.031      337.544        9.587      860.827
10/25/2014  13:47:00     -581.215      -86.438      -38.090      244.779      251.716      109.975    59916.685    63360.992    12094.453       24.103        6.769      587.607      113.003        0.037      337.573        9.636      860.793
10/25/2014  13:48:00     -591.187      -78.277      -27.578      317.132      220.883      109.607   100572.635    48789.168    12013.594       25.885        8.069      596.347      135.881        0.052      337.517        9.540      860.821
10/25/2014  13:49:00     -578.560      -22.679      -40.879      323.788      185.633      110.440   104838.404    34459.796    12196.943       24.418        7.575      579.004      134.458        0.054      337.533        9.567      860.816
10/25/2014  13:50:00     -834.644     -132.329      -57.556      254.903      204.592      121.729    64975.778    41858.056    14818.030       41.953        6.083      845.069      124.082        0.022      337.500        9.512      860.776
10/25/2014  13:51:00     -589.886     -130.053      -45.012      245.408      215.889      118.863    60225.251    46607.904    14128.429       24.391        6.048      604.052      116.207        0.037      337.615        9.704      860.776
10/25/2014  13:52:00     -653.301     -139.910      -27.295      292.466      253.908      111.988    85536.171    64469.474    12541.309       30.480        8.127      668.115      119.296        0.032      337.542        9.583      860.798
10/25/2014  13:53:00     -812.789     -141.814      -60.643      291.532      260.901      125.730    84991.143    68069.138    15808.070       42.661        8.443      825.068      138.646        0.028      337.507        9.525      860.839
10/25/2014  13:54:00     -962.230     -257.254      -48.507      299.384      213.605      133.002    89630.904    45626.956    17689.514       57.365        7.647      996.026      164.384        0.027      337.414        9.369      860.979
10/25/2014  13:55:00     -628.927     -130.810      -40.451      266.656      247.404      109.710    71105.162    61208.966    12036.381       27.929        7.218      642.386      106.522        0.027      337.503        9.518      861.161
10/25/2014  13:56:00     -680.552     -176.958      -35.001      304.808      201.271      109.876    92907.939    40510.067    12072.643       32.056        7.275      703.182      126.631        0.032      337.491        9.496      861.210
10/25/2014  13:57:00     -925.265        7.417      -92.352      245.508      255.502      126.637    60274.116    65281.511    16037.032       50.312        7.080      925.295      117.790        0.016      337.288        9.158      861.346
10/25/2014  13:58:00     -685.876     -174.971      -50.253      250.825      262.090      122.521    62913.310    68690.962    15011.460       32.506        7.331      707.842      133.620        0.036      337.285        9.153      861.413
10/25/2014  13:59:00     -607.088     -121.625      -26.137      260.042      222.811       99.305    67622.033    49644.533     9861.534       25.555        6.356      619.151      109.265        0.031      337.195        9.002      861.484
10/25/2014  14:00:00     -639.656       -0.828      -40.817      235.790      209.518      100.187    55596.979    43897.838    10037.373       26.016        5.477      639.656       92.870        0.021      337.227        9.057      861.394
10/25/2014  14:01:00     -610.492      -63.323      -35.168      255.122      187.441       91.611    65087.143    35133.953     8392.647       24.326        5.431      613.767      106.487        0.030      337.161        8.946      861.437
10/25/2014  14:02:00     -329.613      -48.800      -33.159      171.189      122.355       75.999    29305.704    14970.833     5775.913        8.108        2.503      333.206       76.676        0.053      337.137        8.906      861.395
10/25/2014  14:03:00     -345.723      -51.238       -2.739      192.138       99.966       69.793    36917.145     9993.161     4871.115        8.696        2.589      349.499       87.782        0.063      337.121        8.879      861.383
10/25/2014  14:04:00     -233.391     -174.438        3.794      198.153      163.586       83.520    39264.414    26760.291     6975.591        7.894        3.650      291.376       79.363        0.074      337.125        8.886      861.470
10/25/2014  14:05:00     -243.763     -249.333       22.499      168.668      180.201       80.677    28448.779    32472.331     6508.856        9.475        3.371      348.694       87.176        0.063      337.059        8.773      861.393
10/25/2014  14:06:00     -218.358      -94.828      -16.631      129.149      114.100       51.144    16679.512    13018.913     2615.737        4.463        1.616      238.060       58.780        0.061      337.144        8.916      861.583
10/25/2014  14:07:00     -195.616      -55.375       -8.634      107.261       80.977       43.463    11504.911     6557.265     1889.075        3.067        0.998      203.303       40.980        0.041      337.099        8.842      861.573
10/25/2014  14:08:00     -236.667     -183.863        0.131      150.448       98.567       59.096    22634.734     9715.364     3492.350        6.282        1.792      299.695       67.942        0.051      337.110        8.858      861.627
10/25/2014  14:09:00     -214.679     -156.815       -5.543      170.323      151.684       75.115    29009.761    23007.978     5642.212        6.417        2.883      265.853       77.739        0.086      337.036        8.736      861.726
10/25/2014  14:10:00     -215.376      -43.570        4.982      195.609      115.898       68.816    38262.749    13432.367     4735.678        5.236        2.822      219.739       86.614        0.155      336.970        8.627      861.536
10/25/2014  14:11:00     -374.382       66.496      -36.670      192.814      113.772       60.436    37177.395    12943.986     3652.479        9.984        2.689      380.242       76.513        0.040      336.952        8.596      861.446
10/25/2014  14:12:00     -482.265      -20.915      -11.428      223.634      170.387       97.506    50012.349    29031.858     9507.367       16.083        4.428      482.718      105.945        0.048      337.037        8.737      861.496
10/25/2014  14:13:00     -616.557      -39.916      -42.836      202.059      190.355       89.506    40827.971    36234.837     8011.393       23.431        4.254      617.848       95.558        0.024      336.939        8.573      861.567
10/25/2014  14:14:00     -513.925      -72.206      -23.772      167.515      178.768      100.251    28061.271    31957.868    10050.328       16.997        3.503      518.972       86.992        0.028      336.999        8.674      861.697
10/25/2014  14:15:00     -469.941      -25.712      -45.340      153.383      112.394       64.208    23526.284    12632.471     4122.623       13.191        2.014      470.644       54.775        0.014      336.970        8.624      861.730
10/25/2014  14:16:00     -601.147     -168.478      -34.843      227.580      212.665      102.039    51792.736    45226.217    10411.958       24.918        5.372      624.310      100.208        0.026      337.028        8.723      861.626
10/25/2014  14:17:00     -660.365     -127.486      -38.163      222.926      228.469       95.247    49695.897    52198.231     9071.933       28.236        5.548      672.559       89.249        0.018      336.956        8.603      861.603
10/25/2014  14:18:00     -788.215     -142.106      -57.868      314.082      200.577      118.018    98647.300    40231.034    13928.196       39.879        7.640      800.923      134.867        0.028      336.924        8.548      861.567
10/25/2014  14:19:00     -617.611     -224.077      -37.006      209.601      201.875       81.147    43932.473    40753.532     6584.769       26.213        4.564      657.004       86.494        0.017      336.934        8.566      861.667
10/25/2014  14:20:00     -625.264     -145.270      -33.222      232.441      182.023       94.463    54029.023    33132.547     8923.285       25.460        4.804      641.918      105.729        0.027      336.974        8.633      861.752
10/25/2014  14:21:00     -390.411     -107.951      -21.719      151.204      138.661       93.384    22862.590    19227.006     8720.545       10.767        2.541      405.061       82.897        0.042      337.016        8.702      861.763
10/25/2014  14:22:00     -353.639       -5.272      -41.202      151.774      130.051       71.040    23035.337    16913.272     5046.627        8.588        2.250      353.679       67.499        0.036      336.978        8.637      861.546
10/25/2014  14:23:00     -662.275     -231.513      -50.973      230.427      241.099      116.754    53096.678    58128.551    13631.475       30.981        6.243      701.574      105.211        0.022      336.992        8.661      861.501
10/25/2014  14:24:00     -718.624     -203.542        8.790      356.031      247.692      117.721   126758.358    61351.381    13858.268       37.991       10.098      746.893      151.783        0.041      337.030        8.725      861.382
10/25/2014  14:25:00     -816.690     -264.152      -66.345      234.380      262.224      132.257    54933.795    68761.608    17491.792       44.115        7.059      858.347      105.803        0.015      337.071        8.795      861.239
10/25/2014  14:26:00     -902.784     -238.062      -66.475      365.284      271.391      126.794   133432.595    73653.097    16076.765       54.959       11.158      933.645      144.517        0.024      337.105        8.851      861.232
10/25/2014  14:27:00     -680.479     -287.892      -57.131      217.325      150.102       92.190    47230.167    22530.734     8499.027       31.371        3.913      738.873       82.648        0.013      337.130        8.895      861.274
10/25/2014  14:28:00     -784.734     -117.152      -97.324      262.770      231.389      106.954    69048.279    53540.986    11439.175       38.649        6.701      793.431      101.810        0.016      337.163        8.949      861.242
10/25/2014  14:29:00     -518.143     -174.969       -8.571      282.901      173.473      103.818    80033.218    30092.931    10778.241       21.001        6.045      546.888      129.215        0.056      337.215        9.036      861.380
10/25/2014  14:30:00     -441.943      -88.837      -30.919      289.927      182.886       94.667    84057.832    33447.433     8961.838       16.529        6.323      450.784       93.398        0.043      337.254        9.100      861.501
10/25/2014  14:31:00     -716.993     -125.142      -28.665      319.680      292.453      122.866   102195.356    85529.027    15096.007       36.665       10.141      727.832      129.981        0.032      337.189        8.993      861.400
10/25/2014  14:32:00     -565.610      -83.343      -40.590      226.827      198.173      101.654    51450.700    39272.497    10333.608       21.476        5.053      571.717      117.449        0.042      337.209        9.025      861.348
10/25/2014  14:33:00     -763.316      -45.103      -64.669      282.860      183.279      116.695    80009.679    33591.275    13617.797       35.802        6.361      764.647      139.358        0.033      337.221        9.045      861.052
10/25/2014  14:34:00     -353.184     -112.856        5.053      211.538      201.112      103.531    44748.259    40445.999    10718.651       11.669        4.796      370.777      106.580        0.083      337.225        9.054      860.937
10/25/2014  14:35:00     -595.338      -95.443      -62.496      222.037      191.349       87.495    49300.354    36614.546     7655.403       23.049        4.679      602.941       70.963        0.014      337.188        8.990      860.772
10/25/2014  14:36:00     -518.252      -64.561      -42.295      251.614      179.966      104.191    63309.564    32387.869    10855.839       19.053        5.328      522.258      124.962        0.057      337.253        9.099      860.717
10/25/2014  14:37:00     -606.463     -104.755      -21.753      273.541      212.991      125.693    74824.558    45365.277    15798.710       25.759        6.799      615.444      132.979        0.047      337.214        9.035      860.713
10/25/2014  14:38:00     -607.827     -111.769      -41.032      206.776      198.511      109.155    42756.357    39406.747    11914.850       23.884        4.704      618.018      114.115        0.034      337.230        9.062      860.864
10/25/2014  14:39:00     -640.455      -84.581      -53.988      209.919      174.515      117.946    44065.972    30455.455    13911.219       25.432        4.422      646.016      110.293        0.029      337.380        9.311      860.965
10/25/2014  14:40:00     -259.500       -3.002       -6.783      114.026      113.782       49.216    13001.842    12946.386     2422.263        4.788        1.419      259.518       48.406        0.035      337.420        9.377      861.024
10/25/2014  14:41:00      -99.572       54.762      -14.479      117.656      125.069       66.539    13843.010    15642.206     4427.422        2.351        1.696      113.638       62.165        0.299      337.467        9.458      861.073
10/25/2014  14:42:00     -177.730       42.630      -21.568      154.665      117.744       73.965    23921.234    13863.551     5470.827        3.855        2.163      182.771       80.310        0.193      337.593        9.669      861.043
10/25/2014  14:43:00     -182.858      134.743      -40.731       79.679       78.985       47.356     6348.667     6238.674     2242.571        3.404        0.741      227.140       41.710        0.034      337.728        9.895      861.021
10/25/2014  14:44:00     -107.441      139.726      -16.427       55.052       84.132       39.671     3030.719     7078.159     1573.768        2.151        0.584      176.258       36.732        0.043      337.636        9.742      860.978
10/25/2014  14:45:00     -131.194      210.456      -32.994       71.594       73.681       41.620     5125.652     5428.881     1732.212        3.744        0.614      247.999       38.871        0.025      337.526        9.556      860.938
10/25/2014  14:46:00     -169.921      260.476      -48.432       87.390       92.671       50.952     7636.972     8587.842     2596.141        5.894        0.941      311.000       54.212        0.030      337.605        9.689      860.927
10/25/2014  14:47:00      -90.815      369.174      -39.591       55.918      179.319       45.959     3126.780    32155.322     2112.261        9.174        1.870      380.180       63.736        0.028      337.528        9.559      860.842
10/25/2014  14:48:00       92.437      320.594      -22.607      133.147      194.497       89.725    17728.048    37829.071     8050.498        8.771        3.180      333.654      107.244        0.103      337.857       10.112      860.712
10/25/2014  14:49:00       56.895      222.527      -39.450      153.022      114.011       65.700    23415.621    12998.413     4316.552        4.751        2.037      229.685       62.037        0.073      338.052       10.439      860.693
10/25/2014  14:50:00      -43.499      285.760      -35.870       39.002       75.755       30.526     1521.188     5738.783      931.813        4.651        0.410      289.052       34.528        0.014      337.679        9.812      860.642
10/25/2014  14:51:00       -8.346      248.023      -31.955       44.065       40.231       25.900     1941.683     1618.506      670.813        3.342        0.212      248.163       20.380        0.007      337.704        9.854      860.539
10/25/2014  14:52:00       17.763      110.762        2.112       33.629       68.754       38.648     1130.927     4727.053     1493.686        0.997        0.368      112.178       34.978        0.097      337.894       10.178      860.499
10/25/2014  14:53:00       67.782      -37.666       16.326       56.807       56.314       50.615     3227.009     3171.267     2561.868        0.762        0.448       77.544       38.308        0.244      338.308       10.871      860.420
10/25/2014  14:54:00       94.822      -10.263       52.484       76.033      101.195       70.866     5780.975    10240.416     5022.007        1.644        1.052       95.376       77.768        0.665      338.583       11.333      860.229
10/25/2014  14:55:00      140.849        0.476       77.565      112.495      135.923       84.212    12655.173    18474.983     7091.689        3.203        1.911      140.850       96.554        0.470      338.746       11.605      860.181
10/25/2014  14:56:00       21.325        2.298       89.512      176.875      234.955      144.844    31284.642    55203.634    20979.644        5.795        5.373       21.448      167.810       61.214      338.964       11.971      860.124
10/25/2014  14:57:00       25.710     -153.115        6.720      125.303      114.913       84.714    15700.825    13205.043     7176.396        3.011        1.804      155.258       61.913        0.159      339.055       12.124      859.975
10/25/2014  14:58:00       61.737     -201.756       33.890      145.925      163.464       96.402    21294.114    26720.477     9293.415        5.148        2.865      210.990       88.773        0.177      339.204       12.375      860.022
10/25/2014  14:59:00      127.171     -226.297       42.007      231.842      326.692      228.290    53750.762   106727.782    52116.105       14.083       10.630      259.582      225.414        0.754      339.097       12.195      860.094
10/25/2014  15:00:00       45.939     -206.154       14.126      109.551      153.122       75.767    12001.506    23446.448     5740.653        4.299        2.059      211.211       68.562        0.105      339.242       12.439      860.237
10/25/2014  15:01:00        9.086     -209.673        1.444      136.383      149.286       74.418    18600.413    22286.185     5538.102        4.523        2.321      209.869       53.450        0.065      339.226       12.411      860.297
10/25/2014  15:02:00       82.312      -40.926       69.242       81.070      115.605       94.958     6572.411    13364.555     9016.990        2.109        1.448       91.925       81.862        0.793      339.127       12.246      860.283
10/25/2014  15:03:00       44.053       30.424       28.419       40.566       45.091       39.451     1645.625     2033.219     1556.410        0.445        0.262       53.538       27.875        0.271      339.125       12.244      860.252
10/25/2014  15:04:00       83.255        9.004       60.443       74.046      114.239       63.713     5482.739    13050.587     4059.300        1.662        1.130       83.740       61.974        0.548      339.143       12.275      860.353
10/25/2014  15:05:00      127.871      -67.797       71.953      185.044      259.389      126.895    34241.220    67282.737    16102.341        7.185        5.881      144.732      161.769        1.249      339.127       12.244      860.299
10/25/2014  15:06:00      119.506     -112.961       15.632       93.214      165.497       94.346     8688.879    27389.128     8901.160        3.612        2.249      164.444      109.179        0.441      338.964       11.971      860.284
10/25/2014  15:07:00       94.714      -39.715       47.541       98.676      109.204       65.166     9736.967    11925.587     4246.604        1.935        1.295      102.703       80.837        0.620      339.073       12.155      860.305
10/25/2014  15:08:00      -63.349      -82.901       -9.050      103.223      111.391       59.767    10655.043    12407.948     3572.114        1.880        1.332      104.335       54.263        0.270      339.293       12.525      860.302
10/25/2014  15:09:00        4.023       51.145       93.428       60.540      100.621       80.711     3665.136    10124.641     6514.237        1.583        1.015       51.303       63.624        1.538      339.398       12.705      860.227
10/25/2014  15:10:00      105.913     -100.977       44.828      101.555      210.465       97.601    10313.400    44295.386     9526.031        4.377        3.207      146.335      122.314        0.699      339.269       12.485      860.236
10/25/2014  15:11:00       24.035      -25.511      121.590      106.050      178.030      113.389    11246.655    31694.648    12856.979        3.589        2.790       35.050      118.168       11.367      339.577       13.004      860.258
10/25/2014  15:12:00      -19.792      -78.761       32.890      100.533       79.634       60.449    10106.938     6341.509     3654.028        1.389        1.005       81.209       39.867        0.241      339.658       13.142      860.358
10/25/2014  15:13:00      -79.286      -57.907      -31.333      137.172       76.564       64.827    18816.252     5862.096     4202.520        1.975        1.444       98.181       48.088        0.240      339.378       12.669      860.399
10/25/2014  15:14:00       28.534      -60.364       27.850       40.290       56.883       38.571     1623.287     3235.723     1487.704        0.579        0.317       66.768       32.634        0.239      339.194       12.360      860.363
10/25/2014  15:15:00      -25.910      -49.907       44.379      107.490      185.070       86.950    11554.183    34250.796     7560.265        2.924        2.668       56.232       71.811        1.631      339.473       12.828      860.315
10/25/2014  15:16:00      -99.568      252.275      -25.564      141.533      146.449       78.144    20031.671    21447.222     6106.462        6.089        2.379      271.213       74.970        0.076      339.344       12.610      860.306
10/25/2014  15:17:00     -170.787      204.049      -28.815      143.308      187.108       72.530    20537.278    35009.551     5260.543        6.621        3.040      266.091       45.779        0.030      339.435       12.763      860.245
10/25/2014  15:18:00     -340.196       79.094      -13.815      278.124      137.316      110.028    77353.132    18855.659    12106.104       11.523        5.416      349.269      150.975        0.187      339.240       12.435      860.265
10/25/2014  15:19:00     -163.580       32.086      -27.611      164.438       60.064       58.198    27039.889     3607.738     3387.000        3.129        1.702      166.697       81.373        0.238      339.287       12.514      860.199
10/25/2014  15:20:00       73.909       60.237        3.178       80.774       73.770       46.457     6524.363     5441.943     2158.278        1.161        0.706       95.347       41.319        0.188      339.477       12.836      860.115
10/25/2014  15:21:00       -8.670      110.086       -9.655       86.379       73.371       49.986     7461.351     5383.316     2498.575        1.381        0.767      110.426       48.181        0.190      339.385       12.682      860.067
10/25/2014  15:22:00      -71.041     -233.063       -3.919      126.535      110.261       71.500    16011.090    12157.570     5112.220        4.632        1.664      243.650       54.116        0.049      339.495       12.864      860.124
10/25/2014  15:23:00      130.366      -44.157       60.442      105.814      152.190       97.432    11196.629    23161.800     9493.075        3.322        2.193      137.641       98.836        0.516      339.362       12.641      860.167
10/25/2014  15:24:00      -29.520      229.264       16.233       95.604      131.444       80.422     9140.188    17277.494     6467.731        4.328        1.644      231.157       71.700        0.096      339.460       12.805      860.118
10/25/2014  15:25:00     -163.692      138.912      -26.068      104.405      129.311       61.296    10900.451    16721.242     3757.227        3.907        1.569      214.689       45.596        0.045      339.575       12.999      860.134
10/25/2014  15:26:00     -113.362      146.532       -8.792       92.491      161.768       60.007     8554.534    26169.034     3600.846        3.635        1.916      185.263       49.566        0.072      339.689       13.192      860.197
10/25/2014  15:27:00     -147.283      192.126      -13.261      128.280      119.024       78.166    16455.796    14166.676     6109.949        4.775        1.837      242.084       63.512        0.069      339.472       12.826      860.249
10/25/2014  15:28:00      -46.428      212.034      -19.354       84.043      118.917       62.473     7063.176    14141.304     3902.832        3.629        1.255      217.057       61.048        0.079      339.425       12.748      860.201
10/25/2014  15:29:00       49.284      124.898        2.337      117.030      106.197       67.429    13695.983    11277.855     4546.695        2.377        1.476      134.270       55.659        0.172      339.367       12.649      860.082
10/25/2014  15:30:00     -372.517       -0.028      -37.301      209.840      189.245       80.269    44032.657    35813.490     6443.172       11.321        4.314      372.517       74.156        0.040      339.803       13.384      860.012
10/25/2014  15:31:00      -47.883      218.475      -28.079      105.025      148.871       56.304    11030.179    22162.586     3170.180        4.358        1.818      223.660       59.804        0.071      339.531       12.928      860.055
10/25/2014  15:32:00      -72.840      228.537       23.794      113.461      148.098       91.728    12873.376    21933.091     8414.049        5.065        2.161      239.864       87.055        0.132      339.695       13.202      859.847
10/25/2014  15:33:00      -99.351      170.243      -31.326      125.221      151.577       58.576    15680.241    22975.583     3431.150        4.095        2.104      197.112       57.065        0.084      339.631       13.093      859.741
10/25/2014  15:34:00     -162.342       -0.813        1.078      115.334       92.838       43.348    13302.000     8618.944     1879.054        2.507        1.190      162.344       37.524        0.053      339.658       13.141      859.724
10/25/2014  15:35:00       38.505     -104.522       31.775      119.329       79.041       68.054    14239.466     6247.536     4631.373        1.926        1.256      111.389       60.954        0.299      339.736       13.272      859.788
10/25/2014  15:36:00       53.017      -42.337       41.929       76.307      112.921       81.687     5822.809    12751.073     6672.744        1.580        1.262       67.847       84.125        1.537      339.812       13.402      859.904
10/25/2014  15:37:00      355.998      174.688       93.273      171.856      106.081       97.301    29534.519    11253.119     9467.399       10.809        2.513      396.548       72.986        0.034      339.583       13.011      859.756
10/25/2014  15:38:00      220.224      150.312       88.246      200.268      158.249      158.225    40107.465    25042.812    25035.273        8.451        4.509      266.631      115.975        0.189      339.436       12.767      859.647
10/25/2014  15:39:00     -137.992       59.384      -11.769      100.505      117.142       44.063    10101.274    13722.339     1941.507        2.423        1.288      150.227       35.080        0.055      339.976       13.676      859.876
10/25/2014  15:40:00     -166.831     -133.701       17.424      236.058      160.629       76.118    55723.287    25801.826     5793.878        6.665        4.366      213.796       82.388        0.149      340.072       13.838      860.138
10/25/2014  15:41:00     -422.597      115.530      -51.453      222.813      379.070      129.734    49645.713   143694.039    16830.935       20.233       10.509      438.104      108.337        0.061      339.372       12.656      859.937
10/25/2014  15:42:00      -82.075     -156.838       25.040      207.784      158.443       81.601    43174.230    25104.266     6658.662        5.343        3.747      177.015       76.275        0.186      339.419       12.736      859.740
10/25/2014  15:43:00      -26.048     -281.833       96.921      365.503      200.326      144.599   133592.399    40130.355    20908.978       14.203        9.732      283.034      179.173        0.401      339.276       12.495      859.372
10/25/2014  15:44:00      -67.204       90.550       55.413      186.168      144.306      120.940    34658.498    20824.152    14626.524        4.293        3.505      112.764      105.201        0.870      339.710       13.229      859.588
10/25/2014  15:45:00       51.398      -69.624       51.301      115.678      195.718      116.560    13381.377    38305.650    13586.326        3.768        3.264       86.540      131.470        2.308      339.616       13.069      859.554
10/25/2014  15:46:00      -74.850       18.712       34.285      167.039      126.703       75.213    27902.181    16053.759     5657.051        2.836        2.481       77.153       99.268        1.655      339.935       13.609      859.587
10/25/2014  15:47:00     -200.135     -187.264        5.467      181.161      127.536       80.885    32819.328    16265.341     6542.390        6.538        2.781      274.084       84.268        0.095      339.573       12.994      859.601
10/25/2014  15:48:00     -327.838      -90.722       -8.536      171.764      128.196       76.209    29502.816    16434.170     5807.778        8.375        2.587      340.159       79.112        0.054      339.554       12.965      859.547
10/25/2014  15:49:00     -128.930      -10.440       22.760      159.240      107.823       71.172    25357.254    11625.751     5065.521        2.964        2.102      129.352       68.269        0.279      339.561       12.976      859.530
10/25/2014  15:50:00      -86.638     -177.022       -3.752      122.799       81.718       55.663    15079.538     6677.751     3098.383        3.185        1.243      197.086       39.081        0.039      339.834       13.436      859.537
10/25/2014  15:51:00      -66.293     -131.960      -32.336      169.157      117.514       51.477    28614.213    13809.647     2649.860        3.395        2.254      147.676       48.927        0.110      339.275       12.496      859.477
10/25/2014  15:52:00      -38.783      -42.056        4.066       62.789       56.748       38.987     3942.423     3220.300     1519.993        0.598        0.434       57.209       40.370        0.498      339.601       13.048      859.428
10/25/2014  15:53:00     -111.539      -79.690        8.028      128.704       82.942       52.942    16564.682     6879.382     2802.864        2.255        1.312      137.082       56.138        0.168      339.556       12.968      859.470
10/25/2014  15:54:00      -52.458     -109.460        2.341       97.375       77.867       46.192     9481.923     6063.291     2133.720        1.621        0.884      121.381       38.942        0.103      339.551       12.960      859.571
10/25/2014  15:55:00      -93.989        4.198        5.154      100.358      132.553       60.633    10071.650    17570.225     3676.387        2.009        1.566       94.082       56.396        0.359      339.571       12.992      859.530
10/25/2014  15:56:00     -269.723     -136.889       -1.894      254.343      180.148       96.645    64690.398    32453.180     9340.194        9.897        5.324      302.472      121.479        0.161      339.550       12.957      859.479
10/25/2014  15:57:00     -194.288      -98.772       12.538      155.381      119.412       76.805    24143.287    14259.124     5899.008        4.597        2.215      217.954       77.333        0.126      339.718       13.240      859.473
10/25/2014  15:58:00     -258.141     -190.581       13.200      293.219      155.530      101.898    85977.643    24189.585    10383.188       11.182        6.028      320.871      129.560        0.163      339.668       13.156      859.538
10/25/2014  15:59:00      -94.250     -143.043      -25.193      107.299      105.907       59.811    11513.114    11216.254     3577.398        2.814        1.315      171.301       41.954        0.060      339.972       13.670      859.700
10/25/2014  16:00:00     -104.362     -168.773       17.384      152.727      189.575       83.523    23325.472    35938.843     6976.156        5.295        3.312      198.433       64.844        0.107      340.013       13.738      859.798
10/25/2014  16:01:00      -61.913      -81.175       39.167      143.797      144.047       93.934    20677.498    20749.594     8823.515        3.109        2.513      102.091       88.260        0.747      340.078       13.848      859.733
10/25/2014  16:02:00     -153.890     -313.558      -16.975      194.117      155.612       82.886    37681.316    24215.068     6870.012        9.551        3.438      349.286       69.117        0.039      339.543       12.945      859.817
10/25/2014  16:03:00      -70.334     -181.593      -11.795      136.288      146.427       89.732    18574.318    21440.807     8051.849        4.306        2.403      194.738       39.068        0.040      339.737       13.273      859.824
10/25/2014  16:04:00     -130.890     -132.160        6.581      101.001      122.981       67.365    10201.137    15124.223     4538.041        3.225        1.493      186.007       43.736        0.055      339.739       13.275      859.818
10/25/2014  16:05:00     -125.423      -47.844       23.408      161.649      146.915       92.232    26130.251    21584.085     8506.746        3.738        2.811      134.239       98.037        0.533      339.727       13.258      859.771
10/25/2014  16:06:00     -304.920     -165.317       10.219      279.700      174.129      103.117    78232.053    30320.981    10633.065       11.977        5.959      346.851      110.033        0.101      339.710       13.228      859.617
10/25/2014  16:07:00     -294.822     -237.157        0.218      213.383      146.713      101.513    45532.162    21524.783    10304.930       11.025        3.868      378.370       88.083        0.054      339.728       13.256      859.727
10/25/2014  16:08:00       44.657     -155.465      -27.529      216.082      164.272       64.463    46691.585    26985.327     4155.510        5.236        3.892      161.751       84.239        0.271      339.857       13.476      859.858
10/25/2014  16:09:00      144.392     -250.568      -20.067      150.742      175.201       84.863    22723.184    30695.407     7201.713        7.232        3.031      289.194       71.589        0.061      339.965       13.657      859.993
10/25/2014  16:10:00      106.038     -174.201       -1.393      169.953      161.007      102.372    28883.967    25923.266    10480.020        5.343        3.264      203.936       91.626        0.202      340.044       13.790      860.024
10/25/2014  16:11:00     -347.453     -403.420      -51.445      232.392      221.609       96.704    54006.153    49110.327     9351.755       19.927        5.623      532.420       92.662        0.030      339.649       13.122      860.291
10/25/2014  16:12:00     -412.255     -226.152      -12.224      178.598      164.082       85.085    31897.316    26922.999     7239.418       14.364        3.303      470.211       91.320        0.038      339.599       13.039      860.197
10/25/2014  16:13:00     -221.305      -78.053      -28.570      152.311      155.051       67.752    23198.727    24040.886     4590.318        5.385        2.591      234.666       44.722        0.036      339.499       12.874      860.315
10/25/2014  16:14:00        4.121      -57.181      -24.105       65.005       75.188       33.164     4225.687     5653.203     1099.833        0.742        0.549       57.329       35.706        0.388      339.710       13.229      860.273
10/25/2014  16:15:00     -156.840      -61.342       -6.025       99.013       85.990       48.512     9803.505     7394.226     2353.384        2.397        0.978      168.409       33.396        0.039      339.713       13.233      860.334
10/25/2014  16:16:00       24.803      -56.970       23.836       71.413       93.660       60.313     5099.751     8772.147     3637.643        1.097        0.875       62.135       49.237        0.628      339.975       13.677      860.357
10/25/2014  16:17:00       85.719       42.880      116.846      124.955      173.020      119.370    15613.669    29936.034    14249.173        4.131        2.990       95.846      119.136        1.545      339.804       13.386      860.253
10/25/2014  16:18:00      108.520       58.815      132.375      147.682      182.272      164.496    21810.053    33223.153    27059.049        5.741        4.105      123.434      165.467        1.797      339.521       12.909      860.258
10/25/2014  16:19:00       73.139      -51.687       77.417       90.551       83.784       48.469     8199.440     7019.706     2349.245        1.579        0.878       89.559       42.442        0.225      339.492       12.861      860.249
10/25/2014  16:20:00      100.998      -58.293       49.256       90.787      134.862       68.293     8242.270    18187.813     4663.982        2.355        1.555      116.613       86.413        0.549      339.578       13.004      860.200
10/25/2014  16:21:00       51.011     -161.968       14.035      147.327      144.043       84.010    21705.296    20748.457     7057.727        3.926        2.476      169.811       80.492        0.225      339.585       13.017      860.239
10/25/2014  16:22:00       82.269     -167.417        5.423       91.362      161.185       94.957     8346.942    25980.730     9016.852        3.908        2.167      186.538      114.023        0.374      339.320       12.572      860.224
10/25/2014  16:23:00       21.004      -26.778       67.339       68.700      138.321       76.347     4719.643    19132.702     5828.911        1.768        1.484       34.032       82.159        5.828      339.402       12.711      860.108
10/25/2014  16:24:00     -112.254       14.475        0.179       65.234       52.713       42.471     4255.481     2778.617     1803.825        1.082        0.442      113.184       24.924        0.048      339.453       12.797      860.093
10/25/2014  16:25:00      -91.119      -56.730        2.058       78.256       94.010       45.340     6123.995     8837.834     2055.670        1.427        0.851      107.336       42.476        0.157      339.486       12.852      860.104
10/25/2014  16:26:00       27.633      -60.537       13.625      111.608      109.944       40.561    12456.323    12087.590     1645.168        1.540        1.309       66.546       41.594        0.391      339.575       13.001      860.075
10/25/2014  16:27:00      125.414       80.321       69.157      105.672      126.836       79.638    11166.622    16087.356     6342.160        3.027        1.680      148.930       57.624        0.150      339.352       12.623      859.910
10/25/2014  16:28:00       -9.019      -57.226       66.499       69.630      130.815       97.989     4848.320    17112.605     9601.904        1.966        1.578       57.932       89.679        2.396      339.628       13.092      859.888
10/25/2014  16:29:00     -171.756      -96.948        5.908       83.775       80.577       45.299     7018.304     6492.718     2051.972        2.725        0.778      197.228       43.184        0.048      339.791       13.365      859.903
10/25/2014  16:30:00     -320.749       13.362      -17.496      110.547       90.434       56.298    12220.673     8178.324     3169.433        6.346        1.178      321.027       62.898        0.038      339.621       13.075      859.888
10/25/2014  16:31:00     -241.672     -119.211      -21.555      110.640       86.989       48.278    12241.305     7567.131     2330.779        4.761        1.107      269.474       34.644        0.017      339.519       12.904      859.870
10/25/2014  16:32:00     -279.497      -57.564      -14.500       93.417       99.338       40.911     8726.775     9867.941     1673.710        5.095        1.013      285.363       49.177        0.030      339.604       13.046      859.874
10/25/2014  16:33:00     -253.931      -32.758      -26.584      122.412       71.558       48.369    14984.756     5120.593     2339.572        4.435        1.122      256.035       17.069        0.004      339.556       12.967      859.868
10/25/2014  16:34:00     -245.342      -61.348       -4.484       90.868       80.641       51.829     8257.010     6503.018     2686.282        4.071        0.872      252.896       50.672        0.040      339.823       13.416      859.964
10/25/2014  16:35:00     -192.902     -128.340      -16.409       97.481      108.870       57.553     9502.639    11852.744     3312.368        3.930        1.233      231.694       51.459        0.049      339.741       13.281      860.039
10/25/2014  16:36:00     -231.589     -137.535        6.940      117.790       76.688       51.862    13874.581     5880.996     2689.672        4.752        1.122      269.350       60.643        0.051      339.826       13.423      860.069
10/25/2014  16:37:00      -56.326     -129.805       -3.774       85.624       68.239       44.396     7331.533     4656.509     1971.028        1.699        0.698      141.499       17.822        0.016      340.011       13.734      860.093
10/25/2014  16:38:00      -30.344       -3.162       32.125       56.477       65.272       47.907     3189.607     4260.424     2295.038        0.585        0.487       30.508       43.072        1.993      339.789       13.364      860.091
10/25/2014  16:39:00       49.110      -28.272       -7.623       65.913       86.883       47.817     4344.493     7548.688     2286.506        0.872        0.709       56.667       41.460        0.535      339.654       13.135      860.038
10/25/2014  16:40:00     -133.026     -164.697        6.048      158.268      177.778       67.473    25048.770    31604.998     4552.559        5.302        3.060      211.710       73.640        0.121      339.830       13.431      860.086
10/25/2014  16:41:00     -237.347     -244.280      -26.350      150.973      165.260       77.201    22792.897    27310.925     5959.931        8.637        2.803      340.597       84.675        0.062      339.593       13.029      860.063
10/25/2014  16:42:00     -115.250      -70.146       19.517      125.037       89.214       58.242    15634.261     7959.130     3392.093        2.278        1.349      134.918       51.851        0.148      339.627       13.087      860.010
10/25/2014  16:43:00     -158.758     -108.271        4.744      121.751       98.315       49.447    14823.351     9665.891     2444.983        3.194        1.347      192.163       46.449        0.058      339.751       13.297      859.927
10/25/2014  16:44:00     -393.728     -123.456      -15.639      172.495      134.690       78.204    29754.689    18141.314     6115.825       11.225        2.701      412.629       83.833        0.041      339.492       12.859      859.872
10/25/2014  16:45:00     -205.456       36.992      -27.626      116.182      168.398       55.884    13498.330    28358.033     3123.016        4.465        2.249      208.759       52.810        0.064      339.582       13.012      859.834
10/25/2014  16:46:00     -113.353       74.866      -14.425       71.061      105.640       51.533     5049.695    11159.882     2655.621        1.876        0.943      135.845       25.368        0.035      339.556       12.968      859.895
10/25/2014  16:47:00      -68.758      -31.847       -4.974       48.001       45.484       25.103     2304.051     2068.835      630.140        0.538        0.250       75.775       17.354        0.052      339.831       13.434      859.869
10/25/2014  16:48:00       10.839       12.676      -21.564      152.603       65.022       46.854    23287.649     4227.836     2195.335        1.522        1.486       16.678       66.119       15.716      339.425       12.748      859.821
10/25/2014  16:49:00      -41.078       26.580       41.477       74.140       54.917       48.988     5496.802     3015.837     2399.870        0.751        0.546       48.927       37.454        0.586      339.602       13.048      859.808
10/25/2014  16:50:00     -183.485      -62.327      -10.166       99.451       87.099       53.984     9890.406     7586.163     2914.271        2.902        1.020      193.782       42.890        0.049      339.693       13.199      859.916
10/25/2014  16:51:00     -300.449     -181.326      -23.487      108.037      190.605       61.107    11671.954    36330.186     3734.023        8.771        2.587      350.925       57.247        0.027      339.404       12.710      859.967
10/25/2014  16:52:00       21.717     -265.546        6.623      224.545      214.600      101.796    50420.485    46053.077    10362.433        8.891        5.342      266.432      106.945        0.161      339.522       12.909      860.038
10/25/2014  16:53:00       48.685     -276.816      -15.276      138.311      147.457       71.514    19129.983    21743.450     5114.303        6.260        2.299      281.064       56.266        0.040      339.527       12.919      860.044
10/25/2014  16:54:00      189.148      -86.763       35.273      109.363      194.910       82.083    11960.339    37989.759     6737.635        5.061        2.834      208.098       95.566        0.211      339.397       12.698      860.028
10/25/2014  16:55:00      -12.348       90.897       -9.960      167.537       81.824       44.072    28068.527     6695.212     1942.379        2.260        1.835       91.732       51.657        0.317      339.479       12.838      859.950
10/25/2014  16:56:00     -402.489       59.954      -46.877      158.703      153.563       75.787    25186.707    23581.635     5743.622       11.114        2.726      406.929       83.804        0.042      339.611       13.060      859.920
10/25/2014  16:57:00     -243.086      156.998      -56.904      148.993      187.918       74.234    22198.892    35313.041     5510.746        7.499        3.151      289.378       70.539        0.059      339.601       13.043      859.916
10/25/2014  16:58:00       20.178      -11.475       41.181       53.155       59.972       48.700     2825.420     3596.597     2371.706        0.551        0.440       23.212       42.643        3.375      339.812       13.403      860.000
10/25/2014  16:59:00      -16.560       94.599       14.227      101.458       69.001       43.230    10293.811     4761.180     1868.832        1.317        0.846       96.038       42.864        0.199      339.699       13.209      860.051
10/25/2014  17:00:00      -26.591      119.026       -1.674       51.489       68.417       49.840     2651.086     4680.912     2484.052        1.234        0.491      121.960       47.201        0.150      339.723       13.251      860.041
10/25/2014  17:01:00       94.723       52.268       -2.427       67.011       65.883       35.291     4490.468     4340.577     1245.472        1.089        0.504      108.187       30.131        0.078      339.606       13.054      860.015
10/25/2014  17:02:00        9.648      -45.303        5.609       49.428       64.057       41.717     2443.123     4103.271     1740.283        0.523        0.414       46.319       23.161        0.250      339.758       13.311      859.900
10/25/2014  17:03:00      -93.929       73.333        4.034      117.665       83.744       59.572    13845.039     7013.119     3548.849        1.931        1.220      119.166       66.147        0.308      339.726       13.257      859.910
10/25/2014  17:04:00     -122.507       28.658       -6.966       87.669      107.078       41.809     7685.777    11465.758     1747.967        1.838        1.045      125.814       37.907        0.091      339.823       13.420      859.961
10/25/2014  17:05:00     -102.607      132.954      -22.686      126.744       81.990       63.070    16064.110     6722.436     3977.821        2.774        1.338      167.943       61.769        0.135      339.657       13.138      859.972
10/25/2014  17:06:00       91.407       60.286       -5.932       66.782       59.597       50.854     4459.774     3551.751     2586.133        1.131        0.530      109.497       25.158        0.053      339.482       12.845      860.000
10/25/2014  17:07:00       31.525       33.747       45.596       42.548       41.136       42.548     1810.351     1692.191     1810.323        0.476        0.266       46.181       20.349        0.194      339.640       13.112      860.014
10/25/2014  17:08:00       52.015      -13.599       23.212       64.975       83.238       52.379     4221.787     6928.633     2743.593        0.866        0.695       53.763       40.886        0.578      339.529       12.924      860.032
10/25/2014  17:09:00      -49.848       -6.588       15.822       37.933       42.102       38.257     1438.931     1772.579     1463.576        0.373        0.234       50.282       27.798        0.306      339.769       13.329      860.035
10/25/2014  17:10:00     -125.510        4.571      -21.348       98.557       80.948       40.552     9713.458     6552.526     1644.436        1.707        0.896      125.593       38.171        0.092      339.515       12.899      860.019
10/25/2014  17:11:00       41.420      -63.998        5.362       66.901      112.116       54.098     4475.719    12569.966     2926.561        1.290        0.999       76.232       35.988        0.223      339.458       12.804      859.998
10/25/2014  17:12:00       14.075      -72.244       15.794       88.321       51.986       50.086     7800.665     2702.514     2508.574        0.934        0.651       73.602       27.566        0.140      339.479       12.840      860.064
10/25/2014  17:13:00        6.240      -15.006        6.933       80.801       35.496       36.032     6528.814     1259.994     1298.321        0.470        0.454       16.251       22.760        1.961      339.534       12.934      860.086
10/25/2014  17:14:00      -16.221      -31.477        4.376       41.478       35.575       33.597     1720.397     1265.612     1128.739        0.269        0.206       35.411       24.601        0.483      339.649       13.127      860.176
10/25/2014  17:15:00      -16.252        4.773       19.446       28.574       27.696       25.565      816.464      767.072      653.566        0.145        0.112       16.939       18.427        1.183      339.805       13.391      860.242
10/25/2014  17:16:00       -2.503      -15.126        4.083       58.723       37.960       37.743     3448.350     1440.970     1424.558        0.328        0.316       15.332       24.400        2.533      339.785       13.356      860.207
10/25/2014  17:17:00       21.126        6.149       36.545       29.598       42.431       38.802      876.025     1800.386     1505.606        0.300        0.209       22.003       30.926        1.976      339.491       12.860      860.229
10/25/2014  17:18:00      -64.486      -27.679       -5.955       60.329       48.894       25.766     3639.603     2390.651      663.877        0.583        0.335       70.175       22.028        0.099      339.730       13.264      860.257
10/25/2014  17:19:00       62.932     -128.445        8.453       98.476       82.022       54.369     9697.611     6727.531     2956.002        1.995        0.969      143.033       44.496        0.097      339.612       13.063      860.306
10/25/2014  17:20:00       68.006      -84.825       34.945      125.316      139.019       82.256    15704.104    19326.375     6766.012        2.741        2.090      108.720       65.344        0.361      339.455       12.798      860.281
10/25/2014  17:21:00       28.026       55.633      142.322      142.053      220.291      148.565    20179.179    48528.301    22071.443        5.744        4.539       62.294      157.116        6.361      339.340       12.604      860.280
10/25/2014  17:22:00       38.611     -105.525       20.662      134.811      133.300       94.838    18173.941    17768.885     8994.272        2.899        2.247      112.367       85.695        0.582      339.339       12.602      860.383
10/25/2014  17:23:00      -19.484      -90.455       -5.275       74.601       50.332       36.176     5565.293     2533.284     1308.685        0.900        0.470       92.530       30.727        0.110      339.350       12.623      860.502
10/25/2014  17:24:00     -196.201      -42.746      -20.028       58.228       79.539       28.822     3390.486     6326.409      830.709        2.563        0.527      200.803       26.091        0.017      339.480       12.840      860.567
10/25/2014  17:25:00     -162.041     -179.998      -17.445       85.989      137.342       43.394     7394.140    18862.835     1883.023        4.354        1.407      242.191       27.149        0.013      339.385       12.680      860.604
10/25/2014  17:26:00     -205.079       -8.341      -27.489       50.108       47.588       35.576     2510.789     2264.613     1265.658        2.446        0.302      205.249       29.864        0.021      339.280       12.503      860.603
10/25/2014  17:27:00     -148.191       20.641      -15.829       64.191       37.457       26.641     4120.452     1403.046      709.721        1.443        0.312      149.622       31.147        0.043      339.343       12.610      860.683
10/25/2014  17:28:00        2.503      -72.641       -2.018       97.080       93.898       47.064     9424.454     8816.865     2215.005        1.287        1.023       72.684       49.895        0.471      339.308       12.550      860.724
10/25/2014  17:29:00     -104.738      -19.960        4.675       83.992       54.873       42.223     7054.713     3011.000     1782.750        1.162        0.592      106.623       45.548        0.182      339.264       12.476      860.677
10/25/2014  17:30:00     -147.140      -48.788        0.369       94.712       81.743       36.680     8970.290     6681.864     1345.403        2.051        0.850      155.017       41.665        0.072      339.417       12.735      860.677
10/25/2014  17:31:00      -67.055      -48.230       39.266      136.030      104.323       55.089    18504.100    10883.196     3034.840        2.039        1.621       82.599       54.317        0.432      339.248       12.450      860.684
10/25/2014  17:32:00      -57.048      246.145      -30.541       58.722       73.799       33.389     3448.304     5446.355     1114.828        3.739        0.500      252.669       24.166        0.009      339.084       12.171      860.684
10/25/2014  17:33:00      -75.344      204.198      -24.037       41.254       59.618       36.853     1701.892     3554.255     1358.148        2.728        0.331      217.654       34.868        0.026      339.103       12.204      860.748
10/25/2014  17:34:00       52.481      137.416       -8.754       76.903       91.569       53.264     5914.082     8384.943     2837.015        1.942        0.857      147.096       52.720        0.128      338.995       12.022      860.799
10/25/2014  17:35:00     -151.877      -41.813      -15.509      117.538      143.358       45.772    13815.272    20551.618     2095.046        3.075        1.823      157.527       18.728        0.014      339.082       12.171      860.881
10/25/2014  17:36:00     -237.864       -1.474       -7.063      123.249      101.747       76.889    15190.289    10352.553     5911.981        4.404        1.573      237.868       65.629        0.076      339.014       12.054      860.785
10/25/2014  17:37:00     -107.787      -41.450       15.986      139.750       66.369       56.991    19530.073     4404.838     3247.970        2.038        1.359      115.482       72.476        0.394      338.983       12.004      860.753
10/25/2014  17:38:00      -73.270     -228.029       -6.945       90.269      108.583       53.371     8148.509    11790.369     2848.426        4.010        1.139      239.511       29.887        0.016      338.974       11.989      860.768
10/25/2014  17:39:00     -147.124     -261.548       -5.498      172.988      122.053       72.456    29924.714    14896.992     5249.857        7.007        2.504      300.088       56.986        0.036      338.886       11.839      860.787
10/25/2014  17:40:00     -114.584     -168.681       -1.077      118.628       97.786       63.765    14072.536     9562.123     4066.026        3.464        1.385      203.919       51.441        0.064      338.909       11.879      860.703
10/25/2014  17:41:00     -347.073     -104.794      -30.336      115.570      127.202       50.110    13356.329    16180.346     2511.042        8.220        1.602      362.549       26.943        0.006      338.837       11.757      860.687
10/25/2014  17:42:00     -353.457     -162.958      -27.386      140.326      168.350       85.345    19691.334    28341.612     7283.684       10.377        2.766      389.214       75.693        0.038      338.828       11.743      860.775
10/25/2014  17:43:00     -668.706     -218.632      -35.213      296.259      244.008      120.767    87769.641    59540.007    14584.703       32.902        8.095      703.539      133.272        0.036      338.743       11.598      860.695
10/25/2014  17:44:00     -656.458     -120.742      -27.055      280.984      230.830      116.402    78951.946    53282.564    13549.531       29.599        7.289      667.470      124.521        0.035      338.799       11.694      860.750
10/25/2014  17:45:00     -322.240      -22.746        1.847      270.968      193.309      105.330    73423.622    37368.207    11094.412       11.310        6.094      323.042      132.562        0.168      338.799       11.693      860.932
10/25/2014  17:46:00     -405.427      -51.760      -28.702      157.824      139.283       80.529    24908.314    19399.834     6484.924       10.932        2.540      408.717       83.770        0.042      338.666       11.470      860.758
10/25/2014  17:47:00     -331.675      -58.815       -2.472      172.984      156.068       70.197    29923.573    24357.284     4927.567        8.633        2.960      336.849       72.350        0.046      338.648       11.441      860.804
10/25/2014  17:48:00     -347.275     -161.826      -19.093      136.214      151.277       60.320    18554.258    22884.654     3638.472        9.611        2.254      383.129       42.657        0.012      338.638       11.423      860.759
10/25/2014  17:49:00     -219.137     -127.978        7.656      215.231      151.320       98.369    46324.250    22897.655     9676.499        7.166        3.945      253.770      115.563        0.207      338.599       11.357      860.686
10/25/2014  17:50:00     -541.981      -94.541      -25.082      239.291      180.614       98.499    57260.332    32621.519     9702.058       20.143        4.979      550.165       96.726        0.031      338.575       11.317      860.809
10/25/2014  17:51:00     -230.839     -151.918        1.531      160.064      117.163       74.731    25620.395    13727.100     5584.694        6.064        2.247      276.343       87.914        0.101      338.596       11.353      860.890
10/25/2014  17:52:00     -345.023     -109.645       -2.185      208.039      134.150       88.053    43280.140    17996.127     7753.299       10.003        3.451      362.026      100.173        0.077      338.560       11.292      860.868
10/25/2014  17:53:00     -237.534      -60.538        3.647      160.123      113.317       58.401    25639.314    12840.846     3410.732        5.099        2.095      245.127       74.424        0.092      338.615       11.384      860.890
10/25/2014  17:54:00     -382.717     -321.344      -16.579      190.177      156.187       82.665    36167.402    24394.289     6833.564       15.869        3.370      499.734       81.753        0.027      338.553       11.280      860.912
10/25/2014  17:55:00     -183.658     -251.988       -0.672      152.351      116.382       77.560    23210.893    13544.796     6015.492        6.999        2.139      311.815       74.332        0.057      338.595       11.352      860.900
10/25/2014  17:56:00     -403.878     -161.610      -23.525      137.961      205.374       83.778    19033.291    42178.498     7018.737       12.900        3.412      435.012       71.717        0.027      338.567       11.303      860.881
10/25/2014  17:57:00     -189.128     -134.733        4.581      142.049      166.316       78.767    20177.791    27660.946     6204.172        5.398        2.702      232.212       83.356        0.129      338.560       11.293      860.871
10/25/2014  17:58:00     -234.049     -212.117        9.449      165.416      148.698       76.585    27362.373    22111.179     5865.188        7.759        2.767      315.868       89.932        0.081      338.555       11.284      860.763
10/25/2014  17:59:00     -208.633     -118.993       -9.888      145.344      119.411       47.811    21124.958    14259.057     2285.919        4.772        1.883      240.182       49.808        0.043      338.580       11.327      860.727
10/25/2014  18:00:00     -449.812     -278.831      -22.661      260.178      219.027       92.419    67692.782    47972.619     8541.268       20.237        6.210      529.224      107.576        0.041      338.482       11.160      860.710
10/25/2014  18:01:00     -267.474     -261.159        2.701      142.824      149.656       81.794    20398.642    22396.966     6690.183        9.461        2.474      373.827       81.286        0.047      338.493       11.178      860.704
10/25/2014  18:02:00      -77.518     -235.414        4.541      180.291      157.988       89.955    32505.025    24960.255     8091.921        6.349        3.278      247.848       63.344        0.065      338.574       11.315      860.772
10/25/2014  18:03:00       35.564     -245.845      -46.179      179.920      132.619       91.032    32371.082    17587.673     8286.754        6.103        2.912      248.404       72.373        0.085      338.617       11.388      860.710
10/25/2014  18:04:00       75.641     -243.601      -35.227      146.546      105.372       71.331    21475.847    11103.251     5088.131        5.198        1.883      255.075       55.020        0.047      338.665       11.466      860.616
10/25/2014  18:05:00      -49.192      -53.138        9.167       45.984       50.920       30.303     2114.558     2592.876      918.267        0.548        0.281       72.412       14.783        0.042      338.678       11.492      860.599
10/25/2014  18:06:00      -73.804      -35.090       17.914       69.680       56.116       38.188     4855.328     3148.995     1458.347        0.823        0.473       81.721       35.334        0.187      338.592       11.348      860.618
10/25/2014  18:07:00      -73.823     -164.518       10.725      134.845      152.555       55.330    18183.291    23272.946     3061.421        3.857        2.226      180.322       58.859        0.107      338.618       11.390      860.580
10/25/2014  18:08:00     -122.094     -137.193       -0.705      189.647      145.032       63.810    35965.894    21034.366     4071.672        4.739        3.054      183.654       69.393        0.143      338.509       11.206      860.514
10/25/2014  18:09:00     -114.854     -221.893      -14.896      123.387      107.769       61.486    15224.246    11614.109     3780.584        4.663        1.531      249.855       34.404        0.019      338.545       11.267      860.476
10/25/2014  18:10:00     -155.828     -123.646        3.933      143.600       93.300       60.233    20621.076     8704.951     3628.033        3.626        1.648      198.924       46.637        0.055      338.469       11.139      860.462
10/25/2014  18:11:00     -153.460     -179.396       23.177      152.269      186.382       73.086    23185.819    34738.091     5341.600        5.976        3.163      236.078       91.092        0.149      338.451       11.106      860.498
10/25/2014  18:12:00     -128.554     -238.039       -0.777      135.273      148.286       74.908    18298.787    21988.689     5611.202        5.953        2.295      270.534       73.006        0.073      338.466       11.134      860.492
10/25/2014  18:13:00     -154.761     -352.246      -11.172      200.754      181.582       96.382    40302.153    32971.924     9289.487       11.534        4.128      384.745       97.580        0.064      338.548       11.272      860.500
10/25/2014  18:14:00     -238.956     -316.908        8.584      253.441      184.068      104.445    64232.587    33881.043    10908.755       13.329        5.451      396.901      119.363        0.090      338.526       11.233      860.433
10/25/2014  18:15:00     -271.552     -273.442      -34.907      176.450      189.355       86.439    31134.500    35855.172     7471.714       11.208        3.723      385.372       82.758        0.046      338.534       11.247      860.442
10/25/2014  18:16:00     -141.205     -143.954      -21.330      128.757      125.576       64.162    16578.476    15769.226     4116.772        3.878        1.823      201.647       26.331        0.017      338.560       11.294      860.523
10/25/2014  18:17:00     -180.331     -121.758      -10.876       86.899       66.180       45.014     7551.449     4379.727     2026.216        3.071        0.698      217.588       35.249        0.026      338.542       11.260      860.515
10/25/2014  18:18:00       -4.776      -83.242       10.137       85.092       59.138       36.439     7240.588     3497.358     1327.785        0.956        0.603       83.379       28.913        0.120      338.573       11.315      860.500
10/25/2014  18:19:00      -26.955        1.143       21.614       54.617       34.837       25.779     2983.037     1213.601      664.532        0.303        0.243       26.980       30.404        1.270      338.523       11.233      860.442
10/25/2014  18:20:00     -121.531     -140.518        2.182       82.068       79.475       44.763     6735.125     6316.243     2003.706        2.478        0.753      185.782       47.788        0.066      338.542       11.263      860.484
10/25/2014  18:21:00      -56.998     -147.962        2.523       51.618       49.378       27.149     2664.426     2438.154      737.048        1.549        0.292      158.561       23.066        0.021      338.537       11.255      860.506
10/25/2014  18:22:00      -64.584      -65.800       25.692       81.611       44.634       34.844     6660.356     1992.171     1214.124        0.951        0.493       92.199       37.364        0.164      338.573       11.317      860.518
10/25/2014  18:23:00      -32.160       14.743       12.774      100.463       68.830       54.896    10092.904     4737.564     3013.626        0.963        0.892       35.379       30.219        0.730      338.511       11.211      860.474
10/25/2014  18:24:00     -148.262      -87.816      -10.687       69.394       75.625       49.851     4815.584     5719.214     2485.139        2.141        0.651      172.317       33.257        0.037      338.580       11.327      860.446
10/25/2014  18:25:00     -136.623     -155.319       -2.812      118.674      150.705       54.562    14083.626    22711.972     2977.012        4.128        1.989      206.857       52.920        0.065      338.515       11.216      860.468
10/25/2014  18:26:00     -168.313     -269.109      -15.645      131.638      153.637       64.389    17328.554    23604.318     4145.951        7.303        2.254      317.409       71.402        0.051      338.568       11.306      860.441
10/25/2014  18:27:00      -62.073      -89.289        0.375       73.669       71.821       42.791     5427.189     5158.187     1831.064        1.212        0.621      108.746       20.697        0.036      338.594       11.351      860.380
10/25/2014  18:28:00       67.311     -126.746       -5.802      124.589       86.833       58.475    15522.496     7539.888     3419.341        2.355        1.324      143.510       57.771        0.162      338.643       11.432      860.316
10/25/2014  18:29:00      -24.081     -103.985      -25.656       64.830       50.311       34.907     4202.876     2531.162     1218.474        1.000        0.398      106.737       19.717        0.034      338.708       11.543      860.290
10/25/2014  18:30:00      -92.910      -87.406        2.380       72.729       58.178       40.447     5289.460     3384.695     1635.965        1.329        0.516      127.562       37.210        0.085      338.651       11.445      860.318
10/25/2014  18:31:00      -87.900     -114.406       13.887      113.801      110.431       48.372    12950.734    12195.103     2339.884        2.424        1.374      144.274       56.766        0.155      338.607       11.372      860.305
10/25/2014  18:32:00      -93.819     -149.488        9.620       96.038       85.601       45.284     9223.263     7327.501     2050.649        2.492        0.930      176.490       35.369        0.040      338.624       11.402      860.281
10/25/2014  18:33:00       77.520     -126.830      -28.865      101.228       79.854       49.901    10247.170     6376.598     2490.160        2.102        0.956      148.644       46.297        0.097      338.647       11.439      860.272
10/25/2014  18:34:00      109.162     -194.934      -16.688       69.137       77.962       43.763     4779.964     6078.101     1915.236        3.148        0.639      223.418       36.502        0.027      338.698       11.524      860.229
10/25/2014  18:35:00      104.633     -137.445       -9.811       75.282      111.574       73.540     5667.322    12448.783     5408.187        2.673        1.176      172.740       76.881        0.198      338.651       11.445      860.241
10/25/2014  18:36:00      112.900      -70.470       58.172      110.545      158.529       98.773    12220.283    25131.596     9756.134        3.409        2.355      133.088      115.063        0.747      338.563       11.297      860.151
10/25/2014  18:37:00       76.452      -57.289       65.909      113.057      174.879      124.347    12781.799    30582.802    15462.226        3.614        2.941       95.535      124.381        1.695      338.637       11.422      860.173
10/25/2014  18:38:00      153.333     -143.171       78.889      139.178      250.540      140.270    19370.558    62770.339    19675.807        7.600        5.091      209.784      182.834        0.760      338.691       11.512      860.139
10/25/2014  18:39:00       87.719     -181.386       -6.889      131.715      123.652       54.269    17348.777    15289.701     2945.153        3.811        1.779      201.483       75.267        0.140      338.803       11.700      860.233
10/25/2014  18:40:00     -125.014     -120.769      -12.085      111.406       99.567       43.648    12411.318     9913.599     1905.121        2.729        1.212      173.821       58.116        0.112      338.733       11.583      860.257
10/25/2014  18:41:00       51.318     -131.781       -1.006       83.241       72.760       50.562     6929.078     5293.992     2556.522        1.739        0.739      141.420       42.140        0.089      338.722       11.564      860.299
10/25/2014  18:42:00        9.418      -74.099       11.605       77.222      110.684       79.155     5963.287    12250.885     6265.488        1.509        1.224       74.696       53.665        0.516      338.695       11.520      860.360
10/25/2014  18:43:00       59.299     -150.635       -7.775      129.713      119.205       60.109    16825.369    14209.770     3613.119        3.045        1.732      161.887       60.772        0.141      338.699       11.526      860.365
10/25/2014  18:44:00       34.872      -87.417        6.183       78.464       86.747       34.313     6156.572     7524.977     1177.407        1.187        0.743       94.116       42.049        0.200      338.658       11.458      860.380
10/25/2014  18:45:00      -35.371      -62.155        1.645       75.974       63.665       44.412     5772.046     4053.224     1972.410        0.846        0.590       71.515       38.753        0.294      338.604       11.367      860.342
10/25/2014  18:46:00       37.987      -70.124      -17.768       59.542       89.874       39.757     3545.274     8077.252     1580.590        0.994        0.660       79.752       42.173        0.280      338.620       11.394      860.319
10/25/2014  18:47:00       33.626      -88.232       23.800       72.787       92.549       42.501     5298.020     8565.384     1806.311        1.257        0.783       94.422       48.065        0.259      338.610       11.376      860.362
10/25/2014  18:48:00       -3.349      -72.194        3.998       55.985       31.648       30.259     3134.348     1001.585      915.635        0.514        0.253       72.271       20.177        0.078      338.647       11.441      860.334
10/25/2014  18:49:00       -9.853      -28.530       19.166       56.378       42.261       30.127     3178.465     1785.957      907.640        0.357        0.294       30.183       32.885        1.187      338.641       11.430      860.345
10/25/2014  18:50:00       92.623      -51.601       55.576      142.518      186.637      112.403    20311.295    34833.307    12634.487        4.104        3.389      106.027      124.845        1.386      338.532       11.246      860.291
10/25/2014  18:51:00       34.154     -108.890        7.239       55.639      109.993       62.792     3095.714    12098.442     3942.842        1.610        0.957      114.120       64.383        0.318      338.666       11.471      860.350
10/25/2014  18:52:00      122.723     -185.340       19.272       93.274      127.151       59.242     8700.057    16167.270     3509.571        3.907        1.419      222.287       67.007        0.091      338.637       11.423      860.388
10/25/2014  18:53:00      125.566      -95.052       26.796      123.624      154.554       81.571    15282.910    23887.016     6653.889        3.566        2.291      157.486      100.643        0.408      338.525       11.233      860.348
10/25/2014  18:54:00       14.909      -98.376       24.800       78.691      122.236       90.576     6192.244    14941.642     8203.941        1.992        1.467       99.500       86.073        0.748      338.606       11.372      860.381
10/25/2014  18:55:00       92.885      -97.518       20.079       99.473      135.557       59.278     9894.890    18375.808     3513.835        2.516        1.589      134.675       73.050        0.294      338.579       11.325      860.346
10/25/2014  18:56:00       91.907        1.922       77.355      142.085      134.936       92.699    20188.150    18207.766     8593.084        3.070        2.349       91.927      110.376        1.442      338.437       11.087      860.261
10/25/2014  18:57:00      189.953     -246.399        6.650      153.972      151.298       77.231    23707.309    22890.960     5964.633        7.469        2.628      311.118       88.318        0.081      338.548       11.271      860.265
10/25/2014  18:58:00      -39.298     -179.033       21.104      114.733      126.318       60.810    13163.763    15956.319     3697.900        3.342        1.641      183.295       52.369        0.082      338.621       11.395      860.396
10/25/2014  18:59:00       -8.338     -137.739       19.827      119.587       96.967       60.754    14301.133     9402.617     3691.001        2.341        1.370      137.991       36.642        0.071      338.671       11.477      860.410
10/25/2014  19:00:00      -33.233      -28.871       21.130       74.064       52.778       37.449     5485.415     2785.492     1402.434        0.603        0.484       44.023       24.991        0.322      338.553       11.283      860.347
10/25/2014  19:01:00        8.903       10.504       89.019       62.324      110.560       77.203     3884.278    12223.415     5960.350        1.509        1.103       13.769       84.114       37.317      338.473       11.148      860.304
10/25/2014  19:02:00      211.650     -131.992       83.385      269.010      272.549      163.492    72366.302    74282.710    26729.614       12.124        8.669      249.435      204.330        0.671      338.521       11.227      860.194
10/25/2014  19:03:00      108.688      -28.994      168.449      177.578      274.712      165.446    31534.077    75466.863    27372.318        8.767        6.719      112.489      194.599        2.993      338.512       11.210      860.124
10/25/2014  19:04:00      127.104     -250.460        5.262      185.642      196.905      165.918    34463.091    38771.576    27528.665        8.982        5.038      280.866      145.991        0.270      338.539       11.257      860.183
10/25/2014  19:05:00      225.010     -227.195       51.173      184.431      209.512      138.042    34014.851    43895.143    19055.637       10.090        4.848      319.761      139.327        0.190      338.537       11.253      860.258
10/25/2014  19:06:00      117.797      -72.189       99.752      179.956      219.774      142.462    32384.151    48300.570    20295.539        6.499        5.049      138.157      165.315        1.432      338.530       11.242      860.198
10/25/2014  19:07:00      221.505     -271.296       17.477      186.470      249.682      120.968    34770.908    62341.046    14633.225       11.734        5.587      350.237      163.379        0.218      338.524       11.231      860.282
10/25/2014  19:08:00      292.852     -158.125       24.969      184.736      233.216      123.144    34127.554    54389.475    15164.447       10.751        5.184      332.815      135.952        0.167      338.543       11.262      860.352
10/25/2014  19:09:00      -20.858      -70.442       -9.942      101.503       84.247       43.967    10302.923     7097.615     1933.070        1.241        0.967       73.465       27.077        0.136      338.637       11.421      860.453
10/25/2014  19:10:00     -130.902     -105.009       -3.994      125.924       88.495       39.477    15856.845     7831.321     1558.438        2.671        1.262      167.816       51.871        0.096      338.680       11.494      860.529
10/25/2014  19:11:00        7.334     -247.775      -12.246      154.941      126.406       82.362    24006.750    15978.355     6783.567        5.417        2.338      247.883       73.422        0.088      338.631       11.410      860.596
10/25/2014  19:12:00      -19.403     -321.900      -19.183      109.144      118.241       70.295    11912.522    13980.895     4941.413        6.759        1.542      322.484       52.627        0.027      338.676       11.487      860.673
10/25/2014  19:13:00     -104.966      -19.079        1.754       74.434       68.864       44.794     5540.474     4742.303     2006.517        1.183        0.614      106.686       37.306        0.122      338.548       11.273      860.676
10/25/2014  19:14:00       39.230       52.233       66.998       62.370       85.628       47.135     3890.074     7332.153     2221.711        1.110        0.672       65.324       40.429        0.383      338.422       11.062      860.611
10/25/2014  19:15:00      -13.808      -24.929       35.943       47.364       98.940       55.135     2243.361     9789.131     3039.850        0.859        0.754       28.498       61.286        4.625      338.449       11.106      860.606
10/25/2014  19:16:00       47.211     -130.797      -10.620       66.836       89.272       42.384     4467.013     7969.494     1796.380        1.684        0.712      139.057       42.575        0.094      338.549       11.277      860.675
10/25/2014  19:17:00      -17.196      -84.773       16.465       36.618       51.395       37.035     1340.896     2641.494     1371.603        0.655        0.268       86.499       19.873        0.053      338.535       11.253      860.698
10/25/2014  19:18:00       61.002     -104.000       13.737       73.169       91.106       52.342     5353.683     8300.314     2739.689        1.556        0.820      120.570       49.017        0.165      338.507       11.204      860.716
10/25/2014  19:19:00      127.060     -191.116       -4.236      105.950      105.325       64.268    11225.448    11093.266     4130.368        3.956        1.322      229.498       45.407        0.039      338.598       11.356      860.755
10/25/2014  19:20:00      -87.472     -178.548       -9.134      176.249       90.277       54.407    31063.653     8150.015     2960.168        4.089        2.109      198.823       50.232        0.064      338.588       11.340      860.766
10/25/2014  19:21:00      -77.934     -145.003      -14.060       85.123      102.617       58.719     7245.948    10530.234     3447.893        2.426        1.061      164.619       56.692        0.119      338.585       11.334      860.767
10/25/2014  19:22:00     -152.198       13.341       -4.100       58.222       87.331       28.950     3389.838     7626.773      838.098        1.760        0.593      152.782       24.294        0.025      338.537       11.254      860.692
10/25/2014  19:23:00     -192.414      -31.542       -5.666       65.675       76.526       34.157     4313.174     5856.222     1166.698        2.469        0.567      194.982       19.450        0.010      338.507       11.202      860.637
10/25/2014  19:24:00     -139.396     -110.858       -0.083       90.689       89.115       49.764     8224.471     7941.498     2476.505        2.518        0.932      178.103       49.673        0.078      338.440       11.089      860.643
10/25/2014  19:25:00       -8.899      -63.282       19.121       77.541       50.541       40.049     6012.618     2554.406     1603.933        0.731        0.509       63.904       31.310        0.240      338.428       11.072      860.630
10/25/2014  19:26:00      -20.308      -90.881       -3.233       54.829       98.107       47.860     3006.207     9624.905     2290.622        1.180        0.746       93.122       32.977        0.125      338.453       11.113      860.574
10/25/2014  19:27:00     -245.052      -63.303       -4.582      142.109      138.069       66.294    20194.898    19063.128     4394.917        5.386        2.183      253.096       66.022        0.068      338.421       11.057      860.510
10/25/2014  19:28:00     -303.542      -49.031      -15.467      247.378      180.303       80.347    61195.860    32509.014     6455.608        9.745        5.008      307.476       87.282        0.081      338.444       11.095      860.434
10/25/2014  19:29:00     -255.202      -90.461       -0.457      195.554      165.584       82.729    38241.541    27418.009     6844.086        7.289        3.625      270.761       91.676        0.115      338.443       11.095      860.464
10/25/2014  19:30:00     -195.585      -37.029       -7.555      136.857      113.826       68.594    18729.967    12956.286     4705.166        3.803        1.820      199.059       64.199        0.104      338.454       11.114      860.489
10/25/2014  19:31:00     -113.706      -35.409      -16.863      127.158       66.927       67.099    16169.101     4479.287     4502.230        1.980        1.258      119.092       58.991        0.245      338.444       11.098      860.543
10/25/2014  19:32:00     -264.258      -27.897      -16.393      105.818      136.696       55.225    11197.555    18685.786     3049.782        5.190        1.647      265.727       49.275        0.034      338.446       11.099      860.627
10/25/2014  19:33:00     -270.803     -155.996      -10.318      137.311      105.589       60.909    18854.250    11148.934     3709.866        6.574        1.686      312.520       55.959        0.032      338.432       11.076      860.665
10/25/2014  19:34:00     -334.903     -155.141       -7.496      133.612      119.228       69.056    17852.266    14215.281     4768.782        8.655        1.842      369.092       57.966        0.025      338.443       11.094      860.657
10/25/2014  19:35:00     -440.053     -170.682      -20.837      141.709      134.650       61.779    20081.306    18130.544     3816.612       13.261        2.101      471.995       65.277        0.019      338.472       11.144      860.628
10/25/2014  19:36:00     -277.619     -218.480      -14.762      206.234      139.043       75.799    42532.548    19332.905     5745.423        9.630        3.381      353.279      106.388        0.091      338.440       11.090      860.609
10/25/2014  19:37:00     -239.680      -74.024      -18.888       75.554       88.169       42.247     5708.409     7773.784     1784.830        3.927        0.763      250.850       35.076        0.020      338.458       11.121      860.522
10/25/2014  19:38:00     -369.420     -166.503      -13.424      166.298      136.118       73.118    27654.990    18528.237     5346.182       10.794        2.576      405.209       72.113        0.032      338.434       11.080      860.494
10/25/2014  19:39:00     -440.151     -237.794      -14.429      194.241      127.679       79.703    37729.688    16301.889     6352.535       15.542        3.019      500.279       70.083        0.020      338.463       11.129      860.511
10/25/2014  19:40:00     -261.552     -214.351       -3.848      162.690      130.258       68.683    26468.187    16967.153     4717.353        8.125        2.408      338.165       78.173        0.053      338.418       11.051      860.507
10/25/2014  19:41:00     -291.622      -82.796       -8.629      214.800      108.297       62.018    46139.078    11728.247     3846.219        7.683        3.086      303.147       80.655        0.071      338.397       11.018      860.463
10/25/2014  19:42:00     -217.728      -31.501       -2.330      103.396       89.470       63.229    10690.635     8004.841     3997.870        3.554        1.135      219.995       61.570        0.078      338.438       11.086      860.418
10/25/2014  19:43:00     -273.392     -178.383      -13.048      104.251       95.704       61.250    10868.365     9159.243     3751.507        6.525        1.189      326.441       61.541        0.036      338.449       11.103      860.433
10/25/2014  19:44:00     -220.295     -115.649        2.356      154.451      127.543       56.399    23855.023    16267.234     3180.838        5.260        2.165      248.806       79.201        0.101      338.464       11.131      860.436
10/25/2014  19:45:00     -306.516       56.052      -15.816      154.989      106.963       63.484    24021.694    11440.982     4030.275        6.841        1.975      311.599       57.642        0.034      338.423       11.061      860.338
10/25/2014  19:46:00     -321.617      -54.496      -16.597      139.466      104.318       63.727    19450.819    10882.184     4061.139        7.053        1.720      326.201       62.343        0.037      338.400       11.021      860.300
10/25/2014  19:47:00      -38.062     -161.833       21.409       89.211       92.149       54.650     7958.612     8491.505     2986.649        2.376        0.972      166.249       40.119        0.058      338.391       11.009      860.417
10/25/2014  19:48:00      -15.381     -144.121       12.850       50.229       74.882       35.555     2522.913     5607.302     1264.186        1.528        0.470      144.939        9.785        0.005      338.464       11.132      860.493
10/25/2014  19:49:00       11.587      -49.642       14.802       54.653       48.805       45.754     2986.984     2381.946     2093.451        0.514        0.373       50.976       28.651        0.316      338.383       10.997      860.497
10/25/2014  19:50:00        1.219     -180.160      -23.179       86.474      132.507       69.224     7477.728    17558.195     4791.982        3.141        1.491      180.164       61.651        0.117      338.401       11.024      860.431
10/25/2014  19:51:00      -38.621     -144.688       -5.335      108.364       97.577       44.230    11742.753     9521.361     1956.331        2.283        1.161      149.754       27.166        0.033      338.540       11.258      860.491
10/25/2014  19:52:00     -108.362       18.244       -7.914       76.961       62.127       33.344     5923.022     3859.703     1111.852        1.151        0.545      109.887       34.696        0.100      338.496       11.187      860.442
10/25/2014  19:53:00      -83.094      -10.346        8.397       99.372       56.926       33.477     9874.847     3240.614     1120.724        1.066        0.712       83.735       40.723        0.237      338.419       11.058      860.433
10/25/2014  19:54:00     -131.468      -25.899      -18.070       57.498       57.971       29.071     3306.007     3360.582      845.127        1.289        0.376      133.995       28.997        0.047      338.463       11.131      860.378
10/25/2014  19:55:00     -111.753      -89.233      -24.041      127.007       85.170       50.701    16130.659     7253.862     2570.606        2.349        1.298      143.008       35.144        0.060      338.487       11.169      860.410
10/25/2014  19:56:00       58.259     -238.459      -20.389       86.074      121.837       68.237     7408.695    14844.235     4656.285        4.379        1.345      245.473       62.852        0.066      338.523       11.229      860.611
10/25/2014  19:57:00      143.879     -399.149      -18.185      204.194      214.398       98.355    41695.187    45966.694     9673.778       13.882        4.867      424.289       90.644        0.046      338.533       11.246      860.613
10/25/2014  19:58:00       -2.481      -39.189       -1.374       70.720       75.202       40.521     5001.382     5655.275     1641.981        0.692        0.615       39.268       45.400        1.337      338.442       11.096      860.537
10/25/2014  19:59:00      -24.922       31.677       47.036       87.603       87.254       68.164     7674.198     7613.311     4646.308        1.188        0.997       40.305       59.963        2.213      338.363       10.963      860.506
10/25/2014  20:00:00      -51.711      -17.334       15.175       90.743       62.194       32.482     8234.288     3868.057     1055.094        0.818        0.658       54.539       37.586        0.475      338.430       11.076      860.462
10/25/2014  20:01:00       65.824     -135.775       24.512      134.145      214.434       86.735    17994.978    45981.865     7522.938        4.742        3.575      150.890      109.718        0.529      338.520       11.226      860.486
10/25/2014  20:02:00      -79.923     -251.717       -1.987      111.309      160.538       77.482    12389.607    25772.323     6003.448        5.695        2.208      264.101       80.474        0.093      338.567       11.304      860.497
10/25/2014  20:03:00     -145.658     -237.279      -14.700      178.310      182.879       91.639    31794.286    33444.873     8397.658        7.567        3.682      278.420       88.440        0.101      338.503       11.195      860.454
10/25/2014  20:04:00     -145.890     -192.260       11.387      194.408      147.803       97.736    37794.322    21845.739     9552.360        6.377        3.460      241.346       95.401        0.156      338.464       11.131      860.452
10/25/2014  20:05:00     -201.812     -206.702      -26.814      186.628      125.378       76.335    34829.942    15719.624     5827.081        7.026        2.819      288.884       74.587        0.067      338.479       11.156      860.463
10/25/2014  20:06:00     -114.068     -170.839        7.320       82.113      117.572       47.342     6742.553    13823.179     2241.231        3.252        1.140      205.420       49.895        0.059      338.473       11.144      860.456
10/25/2014  20:07:00      -62.045      -55.249       11.118       76.628       67.840       41.106     5871.842     4602.330     1689.704        0.959        0.608       83.078        7.351        0.008      338.437       11.088      860.449
10/25/2014  20:08:00     -152.397     -130.226       -4.822       93.980       94.824       42.195     8832.301     8991.664     1780.446        2.990        0.980      200.458       34.762        0.030      338.449       11.104      860.426
10/25/2014  20:09:00      -76.063     -110.632       18.817       87.507      124.530       50.961     7657.433    15507.741     2597.016        2.207        1.288      134.257       53.102        0.156      338.404       11.029      860.446
10/25/2014  20:10:00     -162.282     -207.923       12.004      131.591      146.348       58.973    17316.227    21417.775     3477.866        5.595        2.111      263.756       54.702        0.043      338.418       11.053      860.517
10/25/2014  20:11:00     -105.732      -91.730      -13.156       94.170       95.568       38.319     8867.951     9133.205     1468.351        1.961        0.973      139.978       39.831        0.081      338.408       11.038      860.554
10/25/2014  20:12:00      -11.998      -76.997        0.991      102.677       76.982       46.354    10542.637     5926.220     2148.723        1.234        0.931       77.926       39.845        0.261      338.388       11.005      860.515
10/25/2014  20:13:00       14.343     -126.407       -3.004      113.311       78.604       64.187    12839.365     6178.566     4119.964        1.966        1.157      127.218       58.993        0.215      338.523       11.231      860.496
10/25/2014  20:14:00      153.790     -332.580      -24.648      167.724      194.896       93.820    28131.174    37984.430     8802.239       10.488        3.746      366.416       95.155        0.067      338.489       11.170      860.468
10/25/2014  20:15:00       74.337     -276.326       -6.081      126.538      160.348       80.122    16011.761    25711.611     6419.547        6.502        2.407      286.151       66.582        0.054      338.546       11.268      860.441
10/25/2014  20:16:00      -80.601     -113.963        4.993      126.622       81.799       39.698    16033.225     6691.144     1575.919        2.190        1.215      139.585       38.582        0.076      338.528       11.239      860.461
10/25/2014  20:17:00     -156.314     -139.592        0.756      225.407      145.336       83.982    50808.104    21122.586     7053.039        6.144        3.949      209.571       63.676        0.092      338.460       11.124      860.463
10/25/2014  20:18:00     -130.431     -239.790      -37.822      165.943      128.715       65.157    27537.038    16567.463     4245.385        6.214        2.417      272.967       58.200        0.045      338.512       11.212      860.443
10/25/2014  20:19:00     -168.429     -116.794        1.333      115.636       91.071       54.443    13371.784     8293.944     2964.046        3.332        1.231      204.962       41.938        0.042      338.510       11.207      860.428
10/25/2014  20:20:00      -38.633     -156.762       16.234      125.286      161.091       67.649    15696.468    25950.465     4576.368        3.627        2.311      161.453       69.362        0.185      338.541       11.262      860.467
10/25/2014  20:21:00     -187.337     -181.316      -13.873      141.333      167.119       76.566    19975.137    27928.675     5862.376        6.095        2.688      260.712       77.368        0.088      338.504       11.197      860.497
10/25/2014  20:22:00      -68.317     -232.693       -4.669      154.095      102.359       60.903    23745.206    10477.389     3709.235        4.838        1.897      242.515       30.262        0.016      338.537       11.253      860.513
10/25/2014  20:23:00      -74.694     -190.075       21.220      189.221      195.977       87.428    35804.438    38406.925     7643.674        6.199        4.093      204.225       82.811        0.164      338.512       11.212      860.431
10/25/2014  20:24:00      -33.807     -169.238      -14.625       99.441      118.804       51.388     9888.600    14114.364     2640.679        2.832        1.332      172.581       37.713        0.048      338.564       11.299      860.459
10/25/2014  20:25:00      -59.021      -94.199        4.902       87.144      109.535       55.579     7594.053    11997.812     3089.072        1.753        1.134      111.161       54.208        0.238      338.532       11.246      860.473
10/25/2014  20:26:00        9.333      -69.777       34.855      108.035      111.774       78.551    11671.480    12493.455     6170.325        1.825        1.517       70.398       68.646        0.951      338.537       11.254      860.530
10/25/2014  20:27:00      -65.076     -135.753       -1.369       92.798      118.016       54.504     8611.510    13927.820     2970.734        2.408        1.276      150.545       54.995        0.133      338.543       11.263      860.491
10/25/2014  20:28:00      -26.899     -134.088        1.633      134.067      122.870       67.450    17974.006    15097.015     4549.464        2.816        1.881      136.760       73.515        0.289      338.516       11.217      860.403
10/25/2014  20:29:00      -45.133     -170.171        2.141      127.894      119.094       66.226    16356.983    14183.285     4385.895        3.296        1.746      176.054       55.196        0.098      338.487       11.170      860.400
10/25/2014  20:30:00      -96.099     -166.932       25.790      156.280      234.490       93.738    24423.418    54985.535     8786.860        6.296        4.410      192.617      110.227        0.327      338.506       11.201      860.509
10/25/2014  20:31:00     -113.918     -104.770       12.690      209.581      113.071       74.244    43924.131    12785.078     5512.246        4.316        3.111      154.771       91.715        0.351      338.490       11.175      860.582
10/25/2014  20:32:00     -206.381     -113.605      -20.235      110.751       78.520       55.441    12265.874     6165.424     3073.749        3.870        1.075      235.583       54.648        0.054      338.502       11.195      860.655
10/25/2014  20:33:00     -155.649      -81.248      -21.135       96.145       69.276       41.449     9243.957     4799.215     1717.979        2.351        0.788      175.579       49.791        0.080      338.491       11.177      860.606
10/25/2014  20:34:00      -44.030      -52.484       23.851      105.414      115.042       46.157    11112.015    13234.756     2130.489        1.586        1.324       68.507       49.958        0.532      338.388       11.006      860.576
10/25/2014  20:35:00     -212.038     -317.543      -23.140      177.868      158.630       63.769    31637.100    25163.442     4066.543       10.359        3.043      381.829       71.758        0.035      338.490       11.176      860.660
10/25/2014  20:36:00     -229.759     -316.486      -10.169      182.620      204.194       85.643    33350.099    41695.298     7334.759       11.770        4.119      391.092       87.208        0.050      338.486       11.166      860.694
10/25/2014  20:37:00      -51.909     -189.688        2.785      149.123      101.589       55.216    22237.744    10320.395     3048.853        3.714        1.780      196.662       59.678        0.092      338.504       11.197      860.784
10/25/2014  20:38:00      -90.875     -145.300       -6.454       81.318       95.639       47.898     6612.601     9146.891     2294.198        2.373        0.903      171.378       37.760        0.049      338.487       11.168      860.761
10/25/2014  20:39:00     -228.631     -152.755       12.061      132.391      125.160       66.247    17527.344    15665.045     4388.648        5.666        1.879      274.966       60.040        0.048      338.442       11.092      860.730
10/25/2014  20:40:00     -308.581     -117.075      -13.169      142.029      102.022       64.485    20172.257    10408.458     4158.374        7.191        1.737      330.044       58.753        0.032      338.374       10.978      860.615
10/25/2014  20:41:00     -292.911     -168.256        7.880      158.703      142.097       74.096    25186.515    20191.502     5490.207        8.251        2.543      337.797       68.350        0.041      338.356       10.948      860.551
10/25/2014  20:42:00     -278.121     -207.190       -6.459      175.592      130.379       65.408    30832.386    16998.764     4278.221        8.620        2.605      346.812       78.207        0.051      338.389       11.006      860.598
10/25/2014  20:43:00     -242.151     -136.537        1.301      140.612      135.243       69.425    19771.672    18290.564     4819.838        6.007        2.144      277.992       81.018        0.085      338.363       10.961      860.608
10/25/2014  20:44:00     -243.948     -114.038       -9.754      130.191      113.876       62.789    16949.745    12967.830     3942.481        5.323        1.693      269.287       72.301        0.072      338.339       10.921      860.619
10/25/2014  20:45:00     -279.148     -266.378        3.307      168.427      128.801       96.116    28367.523    16589.680     9238.196       10.153        2.710      385.851       91.614        0.056      338.401       11.024      860.640
10/25/2014  20:46:00     -195.600     -201.535       11.745      141.656      178.606       72.116    20066.509    31900.035     5200.763        6.808        2.858      280.848       78.304        0.078      338.389       11.003      860.599
10/25/2014  20:47:00     -209.651     -198.694        8.112      173.666      149.375       71.321    30159.941    22312.750     5086.653        7.052        2.878      288.847       82.957        0.082      338.371       10.975      860.631
10/25/2014  20:48:00     -180.344      -84.304       19.431      163.959      100.509       58.273    26882.594    10102.152     3395.699        4.019        2.019      199.075       61.266        0.095      338.309       10.871      860.633
10/25/2014  20:49:00     -175.410      -57.799       11.519      158.156      112.668       62.985    25013.361    12694.030     3967.172        3.795        2.084      184.687       75.575        0.167      338.316       10.882      860.596
10/25/2014  20:50:00     -303.928     -287.071       -7.401      151.518      182.621       76.848    22957.721    33350.411     5905.649       11.851        3.111      418.069       76.274        0.033      338.339       10.920      860.597
10/25/2014  20:51:00     -209.443     -179.598       15.945      139.790      164.338       85.651    19541.132    27006.905     7336.033        6.512        2.694      275.902      105.005        0.145      338.352       10.943      860.663
10/25/2014  20:52:00     -105.794      -88.891        9.244      102.592       94.720       44.515    10525.074     8971.842     1981.620        2.032        1.074      138.181       37.730        0.075      338.309       10.872      860.583
10/25/2014  20:53:00     -108.666        3.912       -4.934       88.508       56.162       32.961     7833.590     3154.142     1086.447        1.196        0.604      108.737       39.048        0.129      338.320       10.892      860.508
10/25/2014  20:54:00     -182.011     -167.038        0.633      134.274      103.205       69.061    18029.454    10651.239     4769.399        4.723        1.673      247.042       72.720        0.087      338.368       10.969      860.503
10/25/2014  20:55:00     -306.462     -265.430       -9.985      193.145      169.011       90.058    37304.908    28564.621     8110.436       11.921        3.699      405.429       94.458        0.054      338.357       10.951      860.567
10/25/2014  20:56:00      -97.214     -186.173        8.563      123.483      163.155       60.315    15248.137    26619.645     3637.959        4.484        2.275      210.026       48.307        0.053      338.403       11.028      860.607
10/25/2014  20:57:00      -52.081     -128.920      -12.355       76.408       91.337       69.159     5838.246     8342.431     4782.968        1.922        0.948      139.042       57.322        0.170      338.407       11.035      860.567
10/25/2014  20:58:00      -31.122      -97.458        7.744       89.145      179.193       55.395     7946.822    32110.006     3068.646        2.682        2.156      102.307       55.362        0.293      338.447       11.102      860.485
10/25/2014  20:59:00      -94.816      -81.062       23.084      143.561      124.483       60.656    20609.733    15496.006     3679.150        2.793        1.989      124.744       68.222        0.299      338.389       11.007      860.522
10/25/2014  21:00:00     -101.377     -306.354      -19.440      166.519      256.080       94.956    27728.576    65576.906     9016.683       10.339        5.116      322.692       90.603        0.079      338.475       11.149      860.565
10/25/2014  21:01:00     -249.529     -132.256      -21.662      118.406       93.720       69.323    14020.087     8783.506     4805.631        5.391        1.380      282.412       56.244        0.040      338.503       11.194      860.494
10/25/2014  21:02:00     -332.048     -156.711       -9.323      144.573      120.567       65.766    20901.463    14536.444     4325.105        8.732        1.988      367.171       54.756        0.022      338.347       10.935      860.446
10/25/2014  21:03:00     -295.022     -127.363       -8.503      114.138      115.200       49.183    13027.370    13270.943     2419.015        6.602        1.436      321.340       46.237        0.021      338.178       10.649      860.575
10/25/2014  21:04:00     -274.207     -269.315      -15.344      191.686      132.529       77.431    36743.630    17563.992     5995.582       10.412        3.015      384.344       81.629        0.045      338.105       10.528      860.547
10/25/2014  21:05:00     -340.527     -168.398       -2.131      185.759      148.612       77.891    34506.493    22085.420     6066.960       10.348        3.133      379.890       93.747        0.061      338.083       10.489      860.589
10/25/2014  21:06:00     -275.543     -142.167       -1.637      176.415      103.513       59.990    31122.311    10714.910     3598.761        7.078        2.272      310.057       70.431        0.052      338.068       10.465      860.626
10/25/2014  21:07:00     -205.079     -171.612       -5.181       89.220       69.484       44.100     7960.213     4828.059     1944.850        4.313        0.737      267.410       40.072        0.022      338.097       10.513      860.604
10/25/2014  21:08:00     -231.309     -130.831      -10.317      104.472       67.982       50.013    10914.383     4621.566     2501.301        4.438        0.902      265.745       54.801        0.043      338.039       10.416      860.585
10/25/2014  21:09:00     -128.003     -116.249       -2.493      113.054       66.795       45.958    12781.223     4461.626     2112.172        2.463        0.968      172.912       47.684        0.076      338.017       10.382      860.589
10/25/2014  21:10:00     -180.761     -279.874       -7.703      103.668      102.012       48.444    10746.982    10406.489     2346.773        6.728        1.175      333.173       41.259        0.015      338.015       10.377      860.582
10/25/2014  21:11:00     -108.132     -221.865      -15.799       67.454       87.101       40.888     4549.996     7586.632     1671.868        3.748        0.690      246.813       26.934        0.012      338.050       10.435      860.611
10/25/2014  21:12:00     -111.712     -232.084        6.390       66.575       92.250       43.241     4432.255     8510.055     1869.757        4.059        0.741      257.570       39.004        0.023      338.027       10.396      860.687
10/25/2014  21:13:00     -129.994     -161.406       -3.545       75.066      111.882       33.410     5634.917    12517.586     1116.244        3.111        0.963      207.245       32.930        0.025      337.989       10.333      860.645
10/25/2014  21:14:00     -161.928     -113.940       -0.614      100.112       91.028       44.041    10022.403     8286.157     1939.581        2.972        1.012      197.997       50.484        0.065      338.003       10.356      860.599
10/25/2014  21:15:00     -210.248      -53.477       13.199       95.529       87.777       51.738     9125.708     7704.806     2676.776        3.337        0.975      216.943       51.195        0.056      337.972       10.303      860.711
10/25/2014  21:16:00     -247.896     -198.816       -9.188      142.457      125.718       66.157    20293.916    15804.944     4376.766        7.076        2.024      317.774       75.452        0.056      338.057       10.446      860.778
10/25/2014  21:17:00     -197.506      -80.791       -0.101      130.804      112.078       62.980    17109.675    12561.561     3966.487        3.958        1.682      213.391       64.732        0.092      338.010       10.370      860.746
10/25/2014  21:18:00     -218.080     -108.231       -6.118      118.656      118.559       53.420    14079.205    14056.207     2853.665        4.514        1.549      243.461       47.186        0.038      337.956       10.277      860.696
10/25/2014  21:19:00     -184.691     -150.713        3.921      145.402      115.614       72.467    21141.629    13366.695     5251.495        4.829        1.988      238.380       90.445        0.144      337.981       10.321      860.778
10/25/2014  21:20:00     -255.260     -156.885      -16.384      129.715      133.520       70.373    16825.968    17827.630     4952.387        6.481        1.980      299.618       76.727        0.066      338.022       10.388      860.834
10/25/2014  21:21:00     -163.780      -34.249       -8.835      127.544       61.250       45.971    16267.578     3751.505     2113.321        2.510        1.107      167.323       60.181        0.129      337.914       10.208      860.845
10/25/2014  21:22:00     -183.264      -51.132        2.498      117.296       89.752       54.056    13758.331     8055.459     2922.050        3.047        1.237      190.263       52.839        0.077      337.996       10.345      860.849
10/25/2014  21:23:00     -209.809     -101.164      -12.869      103.074       94.126       49.772    10624.183     8859.676     2477.256        3.819        1.098      232.925       51.567        0.049      338.015       10.377      860.749
10/25/2014  21:24:00     -378.705      -70.272      -11.698      166.440      113.087       62.972    27702.242    12788.716     3965.497        9.647        2.223      385.169       71.876        0.035      338.012       10.371      860.684
10/25/2014  21:25:00     -269.245      -94.807      -12.520      117.162       83.465       54.647    13727.004     6966.443     2986.267        5.265        1.184      285.449       52.351        0.034      337.987       10.330      860.771
10/25/2014  21:26:00     -177.843      -45.779        2.194       91.120       88.911       45.622     8302.910     7905.132     2081.351        2.601        0.914      183.640       42.722        0.054      337.947       10.263      860.824
10/25/2014  21:27:00     -354.730      -88.483      -21.617      117.486      110.820       63.265    13802.958    12281.058     4002.432        8.210        1.504      365.599       57.663        0.025      337.965       10.292      860.845
10/25/2014  21:28:00     -179.278      -74.833        5.387      115.234       97.954       60.950    13278.830     9595.076     3714.873        3.217        1.329      194.270       66.127        0.116      337.944       10.259      860.807
10/25/2014  21:29:00     -169.275     -116.956        6.998      111.739      108.040       53.763    12485.601    11672.614     2890.420        3.471        1.352      205.749       58.760        0.082      338.020       10.386      860.736
10/25/2014  21:30:00     -220.699     -148.941      -14.369      127.550      100.312       51.966    16269.045    10062.581     2700.425        5.006        1.452      266.254       63.209        0.056      338.105       10.528      860.734
10/25/2014  21:31:00     -291.688     -113.250       -3.623      112.096      109.671       59.023    12565.406    12027.752     3483.723        6.299        1.404      312.902       51.139        0.027      338.145       10.595      860.805
10/25/2014  21:32:00     -174.621     -169.804        2.097      129.916       83.422       55.863    16878.079     6959.155     3120.676        4.314        1.348      243.570       63.990        0.069      338.217       10.716      860.885
10/25/2014  21:33:00     -186.314     -115.725       11.989       98.640       69.435       45.490     9729.868     4821.235     2069.310        3.243        0.831      219.329       49.064        0.050      338.149       10.601      860.910
10/25/2014  21:34:00     -103.940     -101.493        1.687       93.997       67.156       41.821     8835.374     4509.913     1748.971        1.810        0.755      145.273       44.942        0.096      338.077       10.481      860.895
10/25/2014  21:35:00      -55.224      -69.767        7.528       45.176       53.308       29.615     2040.857     2841.725      877.062        0.687        0.288       88.978       27.304        0.094      338.049       10.437      860.863
10/25/2014  21:36:00      -37.629     -169.681        4.805       50.149      117.147       32.603     2514.915    13723.317     1062.954        2.376        0.865      173.803       24.220        0.019      338.053       10.441      860.825
10/25/2014  21:37:00     -190.958     -125.892       -1.953      118.581       75.364       40.426    14061.399     5679.727     1634.247        3.684        1.069      228.722       33.892        0.022      338.012       10.370      860.821
10/25/2014  21:38:00     -230.619      -54.507        4.302      113.286       93.002       62.879    12833.760     8649.351     3953.717        4.080        1.272      236.973       56.042        0.056      337.899       10.181      860.855
10/25/2014  21:39:00     -277.714     -131.825       11.331      163.222      117.001       72.270    26641.542    13689.218     5222.897        7.008        2.278      307.413       80.919        0.069      337.938       10.248      860.873
10/25/2014  21:40:00     -195.424     -167.677        2.574      120.216       89.650       54.321    14451.830     8037.155     2950.796        4.587        1.272      257.500       59.345        0.053      338.020       10.386      860.904
10/25/2014  21:41:00     -260.305     -173.703      -12.541      109.240      108.106       57.798    11933.325    11687.014     3340.587        6.252        1.348      312.940       52.988        0.029      338.053       10.441      860.934
10/25/2014  21:42:00     -224.878     -122.218        5.280      138.725       86.016       54.333    19244.680     7398.708     2952.026        4.756        1.480      255.944       55.035        0.046      338.023       10.391      860.961
10/25/2014  21:43:00     -287.044     -108.499       -5.989      141.041       98.014       64.688    19892.483     9606.758     4184.503        6.394        1.684      306.865       73.229        0.057      338.103       10.523      860.971
10/25/2014  21:44:00     -194.583     -101.396       -2.683      111.629      112.164       47.746    12460.997    12580.706     2279.648        3.773        1.366      219.417       61.806        0.079      338.116       10.546      860.955
10/25/2014  21:45:00     -157.031     -122.088       -5.845       98.137       80.216       53.635     9630.898     6434.595     2876.685        2.927        0.947      198.908       45.341        0.052      338.106       10.530      860.941
10/25/2014  21:46:00     -208.003      -48.986        4.753      118.475       87.933       54.391    14036.294     7732.289     2958.410        3.520        1.236      213.694       49.772        0.054      338.132       10.571      860.908
10/25/2014  21:47:00     -251.660     -161.388      -10.399      111.978      114.808       61.975    12539.046    13180.960     3840.927        5.952        1.478      298.963       42.911        0.021      338.163       10.624      860.908
10/25/2014  21:48:00     -262.485     -145.604        1.974      140.061      110.406       68.300    19616.959    12189.484     4664.882        6.328        1.824      300.165       79.116        0.069      338.141       10.586      860.944
10/25/2014  21:49:00     -275.457     -203.855      -10.010      153.871      135.613       66.986    23676.303    18390.957     4487.168        8.203        2.328      342.685       83.577        0.059      338.071       10.470      860.977
10/25/2014  21:50:00     -273.255     -122.180      -11.317      142.191      107.021       54.831    20218.275    11453.560     3006.492        6.219        1.734      299.327       58.420        0.038      338.052       10.438      860.987
10/25/2014  21:51:00     -246.515     -140.378      -16.925       92.601       87.800       41.731     8574.996     7708.857     1741.449        4.939        0.901      283.683       41.706        0.022      338.075       10.477      860.971
10/25/2014  21:52:00     -170.656     -142.710        5.022      132.088       94.330       61.173    17447.303     8898.091     3742.170        3.980        1.504      222.462       60.577        0.074      338.069       10.467      860.972
10/25/2014  21:53:00     -376.612     -249.758      -20.380      167.000      132.021       82.581    27888.934    17429.635     6819.553       12.837        2.607      451.902       82.490        0.033      338.138       10.582      860.941
10/25/2014  21:54:00     -447.763     -172.826      -22.861      123.211      116.300       61.870    15180.939    13525.770     3827.922       13.170        1.627      479.959       51.272        0.011      338.180       10.653      861.002
10/25/2014  21:55:00     -380.408     -130.462      -10.493      159.699      107.863       66.836    25503.687    11634.454     4467.015       10.171        2.080      402.157       70.050        0.030      338.260       10.786      861.038
10/25/2014  21:56:00     -223.374      -83.908       17.694      139.110      106.449       59.938    19351.549    11331.297     3592.532        4.576        1.714      238.614       54.767        0.053      338.259       10.786      861.024
10/25/2014  21:57:00     -266.382     -174.299        1.718      139.965       92.335       59.758    19590.326     8525.801     3570.965        6.651        1.584      318.339       66.148        0.043      338.305       10.864      861.018
10/25/2014  21:58:00     -251.208     -189.413       -3.203      113.468      101.608       55.677    12875.017    10324.101     3099.951        6.264        1.315      314.615       48.023        0.023      338.293       10.843      861.058
10/25/2014  21:59:00     -241.111     -156.537        3.810      161.615      125.026       67.671    26119.378    15631.378     4579.427        6.448        2.317      287.469       72.198        0.063      338.355       10.946      861.058
10/25/2014  22:00:00     -260.264     -129.179      -24.075      117.947       98.251       47.834    13911.420     9653.294     2288.139        5.542        1.293      290.559       42.500        0.021      338.405       11.030      861.083
10/25/2014  22:01:00     -182.008     -153.417       -0.115       95.855       85.811       52.927     9188.151     7363.495     2801.215        3.800        0.968      238.041       58.978        0.061      338.416       11.049      861.095
10/25/2014  22:02:00     -189.742     -124.289       -2.333      117.931       85.938       49.077    13907.768     7385.411     2408.522        3.757        1.185      226.825       53.956        0.057      338.418       11.051      861.076
10/25/2014  22:03:00     -233.941      -94.026        5.246      118.984       80.190       45.293    14157.166     6430.508     2051.494        4.311        1.132      252.129       49.549        0.039      338.373       10.978      861.084
10/25/2014  22:04:00     -289.681     -207.643      -12.990      133.014      115.101       57.552    17692.788    13248.230     3312.283        8.072        1.713      356.414       56.526        0.025      338.335       10.913      861.106
10/25/2014  22:05:00     -285.954     -304.798       -8.706      191.576      151.310       89.138    36701.400    22894.570     7945.500       12.113        3.377      417.937      100.984        0.058      338.286       10.830      861.115
10/25/2014  22:06:00     -362.854     -193.114      -19.241      138.614       95.228       55.269    19213.868     9068.321     3054.686       10.033        1.567      411.043       64.894        0.025      338.232       10.740      861.130
10/25/2014  22:07:00     -241.023     -124.896        1.739      163.947       95.063       61.710    26878.608     9037.020     3808.168        5.670        1.986      271.461       77.075        0.081      338.188       10.668      861.123
10/25/2014  22:08:00     -180.372      -79.366       -6.082      111.021       85.055       54.163    12325.767     7234.328     2933.624        3.068        1.125      197.061       61.505        0.097      338.211       10.706      861.059
10/25/2014  22:09:00     -162.959      -51.445       -3.596      127.860       80.428       61.469    16348.289     6468.720     3778.479        2.790        1.330      170.886       69.587        0.166      338.233       10.744      860.998
10/25/2014  22:10:00     -265.759     -106.629       -5.826      133.135      123.407       59.411    17724.953    15229.224     3529.647        5.925        1.824      286.352       58.036        0.041      338.241       10.756      861.016
10/25/2014  22:11:00     -448.902     -130.833      -13.902      138.674      112.384       67.199    19230.350    12630.128     4515.747       12.759        1.819      467.579       77.392        0.027      338.308       10.868      861.060
10/25/2014  22:12:00     -218.242      -75.673        1.400      128.382      107.437       61.511    16481.942    11542.740     3783.554        4.258        1.590      230.989       64.590        0.078      338.255       10.779      861.064
10/25/2014  22:13:00     -251.359     -144.306        3.962      171.353      138.210       69.398    29361.692    19102.128     4816.019        6.864        2.664      289.837       86.311        0.089      338.268       10.802      861.072
10/25/2014  22:14:00     -290.026      -83.082       -3.154      152.945      109.703       64.278    23392.158    12034.748     4131.719        6.529        1.978      301.691       74.530        0.061      338.196       10.680      861.079
10/25/2014  22:15:00     -291.555      -63.238        0.866      172.231      119.172       80.612    29663.613    14202.003     6498.336        6.967        2.518      298.334       97.726        0.107      338.121       10.555      861.099
10/25/2014  22:16:00     -313.523     -178.535       -7.193      164.858      156.188       82.672    27178.035    24394.698     6834.655        9.430        2.920      360.793       88.720        0.060      338.171       10.637      861.121
10/25/2014  22:17:00     -317.973     -110.884      -20.812      140.189      145.302       67.008    19652.979    21112.649     4490.083        7.954        2.263      336.752       62.426        0.034      338.177       10.649      861.129
10/25/2014  22:18:00     -292.128     -138.489       -7.924      119.817      135.468       64.683    14356.149    18351.566     4183.953        7.073        1.845      323.293       61.699        0.036      338.111       10.536      861.088
10/25/2014  22:19:00     -336.376     -142.505      -17.833      120.520      125.432       69.834    14524.992    15733.261     4876.764        8.445        1.757      365.317       67.557        0.034      338.095       10.510      861.046
10/25/2014  22:20:00     -326.175     -186.903      -25.777      125.329      107.538       64.625    15707.422    11564.373     4176.329        8.671        1.572      375.929       52.809        0.020      338.126       10.563      861.068
10/25/2014  22:21:00     -270.881     -104.955       -7.574      124.575      113.395       63.620    15518.851    12858.388     4047.504        5.843        1.621      290.503       68.082        0.055      338.121       10.555      861.112
10/25/2014  22:22:00     -279.025     -172.094      -25.297      117.461      100.787       54.417    13797.025    10157.980     2961.241        6.751        1.346      327.828       52.641        0.026      338.193       10.674      861.110
10/25/2014  22:23:00     -195.405     -150.552        4.444      122.464       86.477       58.611    14997.348     7478.264     3435.220        4.338        1.296      246.676       64.126        0.068      338.196       10.681      861.123
10/25/2014  22:24:00     -182.706     -106.495        3.886       93.683       94.019       51.695     8776.436     8839.494     2672.363        3.251        1.014      211.477       48.848        0.053      338.210       10.703      861.106
10/25/2014  22:25:00     -235.936      -94.249       13.059      166.193       97.802       65.506    27620.020     9565.226     4290.976        5.309        2.074      254.065       70.919        0.078      338.180       10.653      861.108
10/25/2014  22:26:00     -268.271      -21.718       15.531      180.325       95.786       73.682    32517.168     9175.038     5429.063        5.989        2.356      269.149       82.183        0.093      338.238       10.750      861.147
10/25/2014  22:27:00     -200.046      -77.935        2.331      151.551       88.401       64.221    22967.748     7814.820     4124.318        4.050        1.745      214.691       78.575        0.134      338.235       10.746      861.193
10/25/2014  22:28:00     -248.240     -177.516       -1.414      119.257      104.178       58.700    14222.229    10853.110     3445.716        6.082        1.426      305.180       61.864        0.041      338.202       10.691      861.204
10/25/2014  22:29:00     -243.014     -124.254      -12.616       87.188       94.352       51.051     7601.787     8902.392     2606.191        4.688        0.956      272.937       46.130        0.029      338.171       10.638      861.223
10/25/2014  22:30:00     -254.986     -100.930       -3.430      100.487       83.566       50.508    10097.622     6983.230     2551.103        4.742        0.982      274.235       57.736        0.044      338.139       10.585      861.253
10/25/2014  22:31:00     -251.757      -75.414       -8.728       88.341       69.314       50.514     7804.189     4804.391     2551.701        4.215        0.758      262.810       49.667        0.036      338.128       10.565      861.239
10/25/2014  22:32:00     -222.201     -139.017       -8.964       92.688       91.138       46.652     8590.997     8306.058     2176.385        4.392        0.954      262.105       48.436        0.034      338.122       10.555      861.256
10/25/2014  22:33:00     -214.891     -111.333       -8.787      131.407      102.748       58.029    17267.768    10557.108     3367.340        4.491        1.560      242.019       68.549        0.080      338.158       10.617      861.311
10/25/2014  22:34:00     -294.571     -165.811       -6.028      150.245      106.546       66.862    22573.433    11352.098     4470.511        7.634        1.920      338.031       74.966        0.049      338.159       10.617      861.374
10/25/2014  22:35:00     -186.962     -101.705        3.804      138.906      120.563       67.811    19295.005    14535.474     4598.368        4.186        1.921      212.835       73.257        0.118      338.155       10.611      861.395
10/25/2014  22:36:00     -326.354      -96.322      -21.975      149.157      114.098       64.863    22247.672    13018.392     4207.200        7.786        1.974      340.271       74.777        0.048      338.182       10.654      861.417
10/25/2014  22:37:00     -236.125     -103.813        1.571      126.494      104.426       63.509    16000.642    10904.756     4033.432        4.873        1.547      257.938       63.921        0.061      338.133       10.575      861.432
10/25/2014  22:38:00     -150.148      -60.136       24.000      100.736      119.733       56.707    10147.827    14336.093     3215.652        2.721        1.385      161.743       62.495        0.149      338.113       10.541      861.452
10/25/2014  22:39:00     -200.405     -114.173        9.538      164.041      121.566       70.849    26909.322    14778.409     5019.564        4.999        2.335      230.646       76.784        0.111      338.156       10.613      861.468
10/25/2014  22:40:00     -281.144     -126.343       -0.515      156.126      107.331       73.824    24375.278    11519.914     5449.919        6.817        2.067      308.228       82.237        0.071      338.135       10.577      861.490
10/25/2014  22:41:00     -357.289     -163.412      -18.654      119.468      100.779       68.703    14272.566    10156.353     4720.128        9.192        1.457      392.885       59.802        0.023      338.138       10.583      861.522
10/25/2014  22:42:00     -205.641     -120.384       -0.150      119.397      120.103       65.989    14255.694    14424.777     4354.552        4.490        1.652      238.286       63.824        0.072      338.118       10.549      861.505
10/25/2014  22:43:00     -224.295     -118.959        4.518      135.399      145.589       79.908    18332.949    21196.051     6385.265        5.519        2.296      253.889       87.378        0.118      338.085       10.494      861.465
10/25/2014  22:44:00     -344.175     -229.923       -8.531      138.004      151.723       81.417    19045.193    23019.810     6628.775       11.003        2.435      413.909       86.969        0.044      338.083       10.490      861.463
10/25/2014  22:45:00     -270.860     -169.263       15.774      166.048      122.763       76.492    27572.031    15070.803     5850.997        7.537        2.425      319.398       80.441        0.063      338.044       10.425      861.491
10/25/2014  22:46:00     -419.819     -232.208      -30.034      173.354      155.703       81.136    30051.695    24243.330     6583.099       14.596        3.044      479.759       76.008        0.025      338.121       10.553      861.493
10/25/2014  22:47:00     -298.064     -151.432       -6.823      126.132      109.973       67.712    15909.169    12094.162     4584.930        7.220        1.629      334.326       67.160        0.040      338.128       10.564      861.477
10/25/2014  22:48:00     -234.245     -111.395       -4.061      116.695       78.869       54.606    13617.801     6220.252     2981.785        4.505        1.141      259.383       58.191        0.050      338.172       10.638      861.468
10/25/2014  22:49:00     -259.952     -193.289        8.573      142.826       95.905       67.908    20399.392     9197.703     4611.499        6.960        1.710      323.937       75.107        0.054      338.197       10.682      861.482
10/25/2014  22:50:00     -321.554     -165.982       -7.042      186.864      142.992       89.448    34918.022    20446.693     8000.894        9.717        3.168      361.866       96.506        0.071      338.385       10.998      861.499
10/25/2014  22:51:00     -303.514     -215.376      -11.180      166.301      147.006       87.145    27656.071    21610.883     7594.315        9.774        2.843      372.166       95.040        0.065      338.625       11.400      861.512
10/25/2014  22:52:00     -252.805     -146.138        9.433      170.254      120.705       75.941    28986.295    14569.627     5767.049        6.733        2.466      292.004       78.613        0.072      338.535       11.250      861.536
10/25/2014  22:53:00     -232.087     -163.462       -8.954      136.123      104.005       63.199    18529.572    10817.030     3994.090        5.700        1.667      283.874       65.611        0.053      338.443       11.094      861.528
10/25/2014  22:54:00     -208.165      -76.156       -4.009      121.301      101.318       54.184    14713.970    10265.348     2935.897        3.853        1.396      221.658       69.018        0.097      338.392       11.008      861.513
10/25/2014  22:55:00     -315.015     -142.789       -4.124      144.020      123.984       66.446    20741.847    15372.079     4415.076        8.008        2.026      345.865       72.835        0.044      338.422       11.059      861.499
10/25/2014  22:56:00     -317.652     -112.469       -3.177      156.943      103.281       74.153    24630.983    10666.976     5498.629        7.717        2.040      336.975       81.488        0.058      338.494       11.180      861.490
10/25/2014  22:57:00     -353.043     -105.729       -5.283      149.744      133.533       73.126    22423.198    17831.108     5347.382        9.071        2.280      368.535       73.686        0.040      338.456       11.115      861.534
10/25/2014  22:58:00     -242.827     -119.607       -7.248      113.560       89.138       54.497    12895.819     7945.606     2969.969        4.856        1.191      270.686       55.474        0.042      338.382       10.993      861.544
10/25/2014  22:59:00     -244.921      -74.990       -9.658      158.673       81.806       57.944    25177.014     6692.262     3357.543        5.046        1.761      256.144       69.130        0.073      338.335       10.914      861.553
10/25/2014  23:00:00     -248.719      -77.402       -3.083      104.902       81.658       51.713    11004.506     6668.088     2674.283        4.410        1.017      260.485       56.392        0.047      338.240       10.755      861.560
10/25/2014  23:01:00     -246.415      -35.010       -7.893      105.031       80.250       45.405    11031.585     6440.126     2061.595        4.077        0.977      248.889       49.141        0.039      338.184       10.659      861.523
10/25/2014  23:02:00     -245.400      -59.241        4.357      155.762      120.551       60.986    24261.857    14532.621     3719.291        5.312        2.126      252.449       69.527        0.076      338.130       10.570      861.507
10/25/2014  23:03:00     -174.835      -61.722        7.584      124.158       78.168       56.852    15415.155     6110.202     3232.131        2.959        1.238      185.410       52.302        0.080      338.154       10.609      861.520
10/25/2014  23:04:00     -175.925      -62.774        0.288      115.909       80.676       44.020    13434.798     6508.585     1937.789        2.838        1.094      186.789       53.928        0.083      338.156       10.612      861.523
10/25/2014  23:05:00     -200.283     -150.767       -2.535      155.597      121.231       57.072    24210.509    14696.902     3257.268        5.250        2.108      250.687       73.003        0.085      338.155       10.612      861.505
10/25/2014  23:06:00     -232.320     -116.718       -5.553      105.056      128.299       59.541    11036.676    16460.546     3545.116        4.933        1.552      259.992       51.236        0.039      338.197       10.680      861.481
10/25/2014  23:07:00     -300.095     -149.661      -12.219      161.169      121.774       66.866    25975.496    14828.832     4471.106        7.893        2.264      335.344       60.989        0.033      338.155       10.612      861.475
10/25/2014  23:08:00     -313.886      -87.081      -16.612      175.909      128.249       72.214    30944.084    16447.849     5214.910        7.948        2.630      325.741       73.659        0.051      338.144       10.591      861.460
10/25/2014  23:09:00     -342.582     -111.016      -31.391      186.641      121.057       73.190    34834.767    14654.870     5356.727        9.275        2.742      360.121       85.310        0.056      338.186       10.664      861.451
10/25/2014  23:10:00     -329.388     -102.323       -3.120      178.422      108.196       66.556    31834.472    11706.401     4429.646        8.346        2.399      344.915       82.779        0.058      338.188       10.666      861.466
10/25/2014  23:11:00     -119.695      -70.758       26.411      123.330      139.042       66.256    15210.320    19332.582     4389.881        2.947        1.947      139.045       69.824        0.252      338.155       10.613      861.476
10/25/2014  23:12:00     -287.402     -132.038       -5.981      147.480      100.377       62.433    21750.287    10075.477     3897.840        6.789        1.786      316.281       58.243        0.034      338.404       11.027      861.472
10/25/2014  23:13:00     -292.387     -292.291       -5.211      151.414      142.966       76.799    22926.306    20439.309     5898.083       11.010        2.463      413.430       69.236        0.028      338.612       11.378      861.481
10/25/2014  23:14:00     -236.924      -88.600       -6.723       95.987       82.691       56.932     9213.517     6837.828     3241.302        4.166        0.965      252.949       51.935        0.042      338.387       10.999      861.500
10/25/2014  23:15:00     -391.860     -116.693      -14.116      123.879      109.534       55.116    15345.927    11997.726     3037.733        9.887        1.519      408.866       51.623        0.016      338.262       10.790      861.491
10/25/2014  23:16:00     -342.396      -46.229      -14.431      155.479      122.699       66.176    24173.789    15055.067     4379.304        8.159        2.180      345.503       74.157        0.046      338.192       10.673      861.503
10/25/2014  23:17:00     -189.751      -77.165       -2.140      108.807      132.043       55.581    11839.008    17435.396     3089.203        3.716        1.618      204.841       62.022        0.092      338.128       10.566      861.511
10/25/2014  23:18:00     -124.761     -106.922       -4.498       96.681       72.809       47.462     9347.220     5301.124     2252.627        2.196        0.845      164.309       55.213        0.113      338.109       10.536      861.500
10/25/2014  23:19:00     -214.121     -103.781        8.605      178.200      117.936       60.567    31755.159    13908.989     3668.378        5.300        2.467      237.946       83.577        0.123      338.077       10.482      861.509
10/25/2014  23:20:00     -326.262     -204.181      -30.402      154.733      151.444       78.732    23942.405    22935.429     6198.806       10.106        2.654      384.886       70.922        0.034      338.154       10.609      861.514
10/25/2014  23:21:00     -287.050     -112.346       -1.682      143.634      104.743       67.833    20630.730    10971.029     4601.305        6.561        1.810      308.252       72.924        0.056      338.129       10.567      861.524
10/25/2014  23:22:00     -380.706     -223.325        0.226      168.881      114.031       70.221    28520.748    13002.995     4930.941       12.062        2.323      441.374       69.132        0.025      338.074       10.474      861.515
10/25/2014  23:23:00     -244.822     -143.845       -1.509      144.671      113.732       57.924    20929.807    12935.000     3355.163        5.892        1.861      283.953       67.475        0.056      338.022       10.389      861.522
10/25/2014  23:24:00     -327.212     -106.616       -3.654      183.432      146.364       88.146    33647.342    21422.288     7769.656        9.063        3.142      344.143       86.488        0.063      337.994       10.341      861.501
10/25/2014  23:25:00     -331.551     -115.026      -12.584      161.339      138.935       76.463    26030.340    19303.011     5846.661        8.724        2.559      350.938       81.618        0.054      337.981       10.318      861.464
10/25/2014  23:26:00     -314.173      -90.582      -22.255      166.275      137.004       69.852    27647.503    18770.227     4879.336        7.934        2.565      326.970       83.526        0.065      337.962       10.289      861.462
10/25/2014  23:27:00     -415.358     -177.883      -29.329      170.552      157.372       70.891    29087.986    24766.083     5025.506       13.194        2.944      451.846       71.351        0.025      338.003       10.357      861.501
10/25/2014  23:28:00     -352.463     -202.728       -2.805      182.776      138.538       79.460    33406.984    19192.736     6313.915       11.211        2.946      406.606       76.560        0.035      338.043       10.423      861.538
10/25/2014  23:29:00     -301.695     -162.086        5.602      166.930      155.721       81.133    27865.774    24249.075     6582.516        8.800        2.935      342.479       94.929        0.077      338.010       10.368      861.583
10/25/2014  23:30:00     -369.231     -117.269        7.403      212.162      120.810       98.627    45012.822    14595.067     9727.327       10.972        3.467      387.407      113.239        0.085      338.057       10.446      861.620
10/25/2014  23:31:00     -290.565     -221.940      -12.977      182.714      124.523       73.298    33384.359    15506.070     5372.638        9.405        2.713      365.630       80.404        0.048      338.045       10.425      861.574
10/25/2014  23:32:00     -285.292     -136.083      -18.944      138.147      122.607       55.283    19084.641    15032.564     3056.176        6.871        1.859      316.086       50.453        0.025      338.051       10.438      861.538
10/25/2014  23:33:00     -191.769     -126.420       -6.358      124.822      141.683       74.513    15580.525    20074.207     5552.261        4.699        2.060      229.690       69.702        0.092      338.038       10.416      861.488
10/25/2014  23:34:00     -254.880     -117.398      -11.024      125.458       89.992       52.396    15739.785     8098.569     2745.329        5.272        1.329      280.617       38.396        0.019      338.034       10.408      861.476
10/25/2014  23:35:00     -377.932     -186.231      -11.639      211.992      179.671       89.093    44940.457    32281.641     7937.512       13.139        4.258      421.325       87.228        0.043      338.107       10.531      861.450
10/25/2014  23:36:00     -362.968     -150.800      -14.673      187.960      154.380       74.415    35329.077    23833.329     5537.519       10.969        3.235      393.047       74.237        0.036      338.197       10.679      861.501
10/25/2014  23:37:00     -366.348      -73.667      -22.284      121.215      128.892       58.267    14693.043    16613.234     3395.008        8.741        1.735      373.682       38.020        0.010      338.193       10.675      861.545
10/25/2014  23:38:00     -252.623     -147.557       -2.670      167.541      110.907       65.030    28069.968    12300.345     4228.869        6.509        2.230      292.560       69.154        0.056      338.199       10.684      861.500
10/25/2014  23:39:00     -111.998     -121.377        4.228       87.040       86.421       41.772     7576.045     7468.663     1744.867        2.204        0.839      165.154       44.623        0.073      338.191       10.672      861.445
10/25/2014  23:40:00     -330.245     -118.738      -23.646      201.326      135.637       76.247    40532.157    18397.399     5813.608        9.422        3.237      350.942       95.830        0.075      338.128       10.564      861.434
10/25/2014  23:41:00     -381.438      -53.667      -17.116      160.926      142.858       86.872    25897.311    20408.444     7546.779       10.125        2.693      385.195       86.975        0.051      338.102       10.522      861.468
10/25/2014  23:42:00     -265.525      -32.333       -5.601      184.200      155.351       82.016    33929.688    24134.074     6726.683        6.817        3.240      267.487       97.962        0.134      338.069       10.468      861.447
10/25/2014  23:43:00     -333.219      -92.017      -28.740      103.497      112.869       61.676    10711.547    12739.450     3803.886        7.379        1.363      345.691       47.929        0.019      338.067       10.464      861.443
10/25/2014  23:44:00     -251.603     -161.379       -1.790      177.857      129.356       74.940    31633.132    16732.956     5616.054        7.166        2.699      298.911       80.362        0.072      338.116       10.544      861.536
10/25/2014  23:45:00     -230.117     -176.508        3.594      134.451       90.344       65.255    18077.073     8162.125     4258.225        5.730        1.525      290.015       73.101        0.064      338.131       10.570      861.581
10/25/2014  23:46:00     -279.722     -187.136      -14.223      108.768       94.402       68.255    11830.569     8911.813     4658.767        6.943        1.270      336.548       68.336        0.041      338.134       10.575      861.556
10/25/2014  23:47:00     -234.510     -121.567       -5.573       71.151       96.514       54.379     5062.443     9314.960     2957.052        4.357        0.867      264.147       49.153        0.035      338.100       10.518      861.538
10/25/2014  23:48:00     -301.161     -204.563       -5.478      133.529      111.509       65.667    17830.047    12434.312     4312.176        8.357        1.729      364.065       63.988        0.031      338.112       10.538      861.530
10/25/2014  23:49:00     -321.383     -127.569       -1.033      170.630      162.528       80.771    29114.595    26415.333     6524.025        9.080        3.103      345.776       83.197        0.058      338.085       10.495      861.507
10/25/2014  23:50:00     -325.961     -120.675      -12.758      184.834      127.440       61.781    34163.546    16241.015     3816.869        8.759        2.711      347.582       75.444        0.047      338.062       10.455      861.526
10/25/2014  23:51:00     -320.564     -187.833       -8.114      141.315      112.913       69.270    19969.982    12749.298     4798.287        8.781        1.876      371.541       50.883        0.019      338.060       10.453      861.543
10/25/2014  23:52:00     -241.464     -117.931       -1.774      133.578      113.494       50.125    17843.130    12880.802     2512.526        5.272        1.662      268.724       55.718        0.043      338.027       10.397      861.556
10/25/2014  23:53:00     -314.322     -157.783       -9.451      130.520      118.095       65.530    17035.469    13946.544     4294.191        7.952        1.764      351.701       66.373        0.036      338.065       10.462      861.545
10/25/2014  23:54:00     -213.834     -147.287        2.842      134.894       99.894       59.279    18196.293     9978.863     3513.945        4.955        1.584      259.651       69.048        0.071      338.019       10.383      861.534
10/25/2014  23:55:00     -204.073     -124.552       -3.912      120.841      111.365       68.691    14602.630    12402.229     4718.495        4.444        1.586      239.079       68.050        0.081      338.036       10.412      861.542
10/25/2014  23:56:00     -253.002     -149.960      -10.568       96.732      110.525       53.257     9357.067    12215.879     2836.340        5.550        1.220      294.106       50.700        0.030      338.191       10.672      861.515
10/25/2014  23:57:00     -231.366     -104.926       -0.404      159.218      103.999       67.517    25350.287    10815.693     4558.559        5.262        2.036      254.046       85.116        0.112      338.227       10.733      861.481
10/25/2014  23:58:00     -237.494     -122.081       -4.311      167.549      105.139       70.153    28072.678    11054.114     4921.387        5.768        2.202      267.034       78.718        0.087      338.236       10.747      861.510
10/25/2014  23:59:00     -271.053     -122.181      -20.945      119.067      101.225       62.449    14176.842    10246.505     3899.889        5.857        1.416      297.318       56.414        0.036      338.231       10.738      861.546
